[[{"header":{"parameterUnit":"m.s-1","parameterCategory":1,"la1":31.0,"la2":29.5877,"lo1":-88.7671,"lo2":-86.6584,"dy":0.0162,"dx":0.0185,"nx":115,"ny":88,"refTime":"2023-08-07T00:00:00:Z","depth":0,"parameterNumber":2,"parameterNumberName":"U-component_of_WINDS"},"data":[0.0,0.0,0.0,0.0,0.0,0.0,0.0,0.0,0.0,0.0,0.0,0.0,0.0,0.0,0.0,0.0,0.0,0.0,0.0,0.0,0.0,0.0,0.0,0.0,0.0,0.0,0.0,0.0,0.0,0.0,0.0,0.0,0.0,0.0,0.0,0.0,0.0,0.0,0.0,0.0,0.0,0.0,0.0,0.0,0.0,0.0,0.0,0.0,0.0,0.0,0.0,0.0,0.0,0.0,0.0,0.0,0.0,0.0,0.0,0.0,0.0,0.0,0.0,0.0,0.0,0.0,0.0,0.0,0.0,0.0,0.0,0.0,0.0,0.0,0.0,0.0,0.0,0.0,0.0,0.0,0.0,0.0,0.0,0.0,0.0,0.0,0.0,0.0,0.0,0.0,0.0,0.0,0.0,0.0,0.0,0.0,0.0,0.0,0.0,0.0,0.0,0.0,0.0,0.0,0.0,0.0,0.0,0.0,0.0,0.0,0.0,0.0,0.0,0.0,0.0,0.0,0.0,0.0,0.0,0.0,0.0,0.0,0.0,0.0,0.0,0.0,0.0,0.0,0.0,0.0,0.0,0.0,0.0,0.0,0.0,0.0,0.0,0.0,0.0,0.0,0.0,0.0,0.0,0.0,0.0,0.0,0.0,0.0,0.0,0.0,0.0,0.0,0.0,0.0,0.0,0.0,0.0,0.0,0.0,0.0,0.0,0.0,0.0,0.0,0.0,0.0,0.0,0.0,0.0,0.0,0.0,0.0,0.0,0.0,0.0,0.0,0.0,0.0,0.0,0.0,0.0,0.0,0.0,0.0,0.0,0.0,0.0,0.0,0.0,0.0,0.0,0.0,0.0,0.0,0.0,0.0,0.0,0.0,0.0,0.0,0.0,0.0,0.0,0.0,0.0,0.0,0.0,0.0,0.0,0.0,0.0,0.0,0.0,0.0,0.0,0.0,0.0,0.0,0.0,0.0,0.0,0.0,0.0,0.0,0.0,0.0,0.0,0.0,0.0,0.0,0.0,0.0,0.0,0.0,0.0,0.0,0.0,0.0,0.0,0.0,0.0,0.0,0.0,0.0,0.0,0.0,0.0,0.0,0.0,0.0,0.0,0.0,0.0,0.0,0.0,0.0,0.0,0.0,0.0,0.0,0.0,0.0,0.0,0.0,0.0,0.0,0.0,0.0,0.0,0.0,0.0,0.0,0.0,0.0,0.0,0.0,0.0,0.0,0.0,0.0,0.0,0.0,0.0,0.0,0.0,0.0,0.0,0.0,0.0,0.0,0.0,0.0,0.0,0.0,0.0,0.0,0.0,0.0,0.0,0.0,0.0,0.0,0.0,0.0,0.0,0.0,0.0,0.0,0.0,0.0,0.0,0.0,0.0,0.0,0.0,0.0,0.0,0.0,0.0,0.0,0.0,0.0,0.0,0.0,0.0,0.0,0.0,0.0,0.0,0.0,0.0,0.0,0.0,0.0,0.0,0.0,0.0,0.0,0.0,0.0,0.0,0.0,0.0,0.0,0.0,0.0,0.0,0.0,0.0,0.0,0.0,0.0,0.0,0.0,0.0,0.0,0.0,0.0,0.0,0.0,0.0,0.0,0.0,0.0,0.0,0.0,0.0,0.0,0.0,0.0,0.0,0.0,0.0,0.0,0.0,0.0,0.0,0.0,0.0,0.0,0.0,0.0,0.0,0.0,0.0,0.0,0.0,0.0,0.0,0.0,0.0,0.0,0.0,0.0,0.0,0.0,0.0,0.0,0.0,0.0,0.0,0.0,0.0,0.0,0.0,0.0,0.0,0.0,0.0,0.0,0.0,0.0,0.0,0.0,0.0,0.0,0.0,0.0,0.0,0.0,0.0,0.0,0.0,0.0,0.0,0.0,0.0,0.0,0.0,0.0,0.0,0.0,0.0,0.0,0.0,0.0,0.0,0.0,0.0,0.0,0.0,0.0,0.0,0.0,0.0,0.0,0.0,0.0,0.0,0.0,0.0,0.0,0.0,0.0,0.0,0.0,0.0,0.0,0.0,0.0,0.0,0.0,0.0,0.0,0.0,0.0,0.0,0.0,0.0,0.0,0.0,0.0,0.0,0.0,0.0,0.0,0.0,0.0,0.0,0.0,0.0,0.0,0.0,0.0,0.0,0.0,0.0,0.0,0.0,0.0,0.0,0.0,0.0,0.0,0.0,0.0,0.0,0.0,0.0,0.0,0.0,0.0,0.0,0.0,0.0,0.0,0.0,0.0,0.0,0.0,0.0,0.0,0.0,0.0,0.0,0.0,0.0,0.0,0.0,0.0,0.0,0.0,0.0,0.0,0.0,0.0,0.0,0.0,0.0,0.0,0.0,0.0,0.0,0.0,0.0,0.0,0.0,0.0,0.0,0.0,0.0,0.0,0.0,0.0,0.0,0.0,0.0,0.0,0.0,0.0,0.0,0.0,0.0,0.0,0.0,0.0,0.0,0.0,0.0,0.0,0.0,0.0,0.0,0.0,0.0,0.0,0.0,0.0,0.0,0.0,0.0,0.0,0.0,0.0,0.0,0.0,0.0,0.0,0.0,0.0,0.0,0.0,0.0,0.0,0.0,0.0,0.0,0.0,0.0,0.0,0.0,0.0,0.0,0.0,0.0,0.0,0.0,0.0,0.0,0.0,0.0,0.0,0.0,0.0,0.0,0.0,0.0,0.0,0.0,0.0,0.0,0.0,0.0,0.0,0.0,0.0,0.0,0.0,0.0,0.0,0.0,0.0,0.0,0.0,0.0,0.0,0.0,0.0,0.0,0.0,0.0,0.0,0.0,0.0,0.0,0.0,0.0,0.0,0.0,0.0,0.0,0.0,0.0,0.0,0.0,0.0,0.0,0.0,0.0,0.0,0.0,0.0,0.0,0.0,0.0,0.0,0.0,0.0,0.0,0.0,0.0,0.0,0.0,0.0,0.0,0.0,0.0,0.0,0.0,0.0,0.0,0.0,0.0,0.0,0.0,0.0,0.0,0.0,0.0,0.0,0.0,0.0,0.0,0.0,0.0,0.0,0.0,0.0,0.0,0.0,0.0,0.0,0.0,0.0,0.0,0.0,0.0,0.0,0.0,0.0,0.0,0.0,0.0,0.0,0.0,0.0,0.0,0.0,0.0,0.0,0.0,0.0,0.0,0.0,0.0,0.0,0.0,0.0,0.0,0.0,0.0,0.0,0.0,0.0,0.0,0.0,0.0,0.0,0.0,0.0,0.0,0.0,0.0,0.0,0.0,0.0,0.0,0.0,0.0,0.0,0.0,0.0,0.0,0.0,0.0,0.0,0.0,0.0,0.0,0.0,0.0,0.0,0.0,0.0,0.0,0.0,0.0,0.0,0.0,0.0,0.0,0.0,0.0,0.0,0.0,0.0,0.0,0.0,0.0,0.0,0.0,0.0,0.0,0.0,0.0,0.0,0.0,0.0,0.0,0.0,0.0,0.0,0.0,0.0,0.0,0.0,0.0,0.0,0.0,0.0,0.0,0.0,0.0,0.0,0.0,0.0,0.0,0.0,0.0,0.0,0.0,0.0,0.0,0.0,0.0,0.0,0.0,0.0,0.0,0.0,0.0,0.0,0.0,0.0,0.0,0.0,0.0,0.0,0.0,0.0,0.0,0.0,0.0,0.0,0.0,0.0,0.0,0.0,0.0,0.0,0.0,0.0,0.0,0.0,0.0,0.0,0.0,0.0,0.0,0.0,0.0,0.0,0.0,0.0,0.0,0.0,0.0,0.0,0.0,0.0,0.0,0.0,0.0,0.0,0.0,0.0,0.0,0.0,0.0,0.0,0.0,0.0,0.0,0.0,0.0,0.0,0.0,0.0,0.0,0.0,0.0,0.0,0.0,0.0,0.0,0.0,0.0,0.0,0.0,0.0,0.0,0.0,0.0,0.0,0.0,0.0,0.0,0.0,0.0,0.0,0.0,0.0,0.0,0.0,0.0,0.0,0.0,0.0,0.0,0.0,0.0,0.0,0.0,0.0,0.0,0.0,0.0,0.0,0.0,0.0,0.0,0.0,0.0,0.0,0.0,0.0,0.0,0.0,0.0,0.0,0.0,0.0,0.0,0.0,0.0,0.0,0.0,0.0,0.0,0.0,0.0,0.0,0.0,0.0,0.0,0.0,0.0,0.0,0.0,0.0,0.0,0.0,0.0,0.0,0.0,0.0,0.0,0.0,0.0,0.0,0.0,0.0,0.0,0.0,0.0,0.0,0.0,0.0,0.0,0.0,0.0,0.0,0.0,0.0,0.0,0.0,-0.776,0.0,0.0,0.0,0.0,0.0,0.0,0.0,0.0,0.0,0.0,0.0,0.0,0.0,0.0,0.0,0.0,0.0,0.0,0.0,0.0,0.0,0.0,0.0,0.0,0.0,0.0,0.0,0.0,0.0,0.0,0.0,0.0,0.0,0.0,0.0,0.0,0.0,0.0,0.0,0.0,0.0,0.0,0.0,0.0,0.0,0.0,0.0,0.0,0.0,0.0,0.0,0.0,0.0,0.0,0.0,0.0,0.0,0.0,0.0,0.0,0.0,0.0,0.0,0.0,0.0,0.0,0.0,0.0,0.0,0.0,0.0,0.0,0.0,0.0,0.0,0.0,0.0,0.0,0.0,0.0,0.0,0.0,0.0,0.0,0.0,0.0,0.0,0.0,0.0,0.0,0.0,0.0,0.0,0.0,0.0,0.0,0.0,0.0,0.0,0.0,0.0,0.0,0.0,0.0,0.0,0.0,0.0,0.0,0.0,0.0,-0.8436,-0.8442,-0.8264,-0.7998,-0.7744,0.0,0.0,0.0,0.0,0.0,0.0,0.0,0.0,0.0,0.0,0.0,0.0,0.0,0.0,0.0,0.0,0.0,0.0,0.0,0.0,0.0,0.0,0.0,0.0,0.0,0.0,0.0,0.0,0.0,0.0,0.0,0.0,0.0,0.0,0.0,0.0,0.0,0.0,0.0,0.0,0.0,0.0,0.0,0.0,0.0,0.0,0.0,0.0,0.0,0.0,0.0,0.0,0.0,0.0,0.0,0.0,0.0,0.0,0.0,0.0,0.0,0.0,0.0,0.0,0.0,0.0,0.0,0.0,0.0,0.0,0.0,0.0,0.0,0.0,0.0,0.0,0.0,0.0,0.0,0.0,0.0,0.0,0.0,0.0,0.0,0.0,0.0,0.0,0.0,0.0,0.0,0.0,0.0,0.0,0.0,0.0,0.0,0.0,0.0,0.0,0.0,0.0,0.0,0.0,0.0,0.0,0.0,0.0,0.0,0.0,0.0,0.0,-0.839,-0.8102,-0.7718,0.0,0.0,0.0,0.0,0.0,0.0,0.0,0.0,0.0,0.0,0.0,0.0,0.0,0.0,0.0,0.0,0.0,0.0,0.0,0.0,0.0,0.0,0.0,0.0,0.0,0.0,0.0,0.0,0.0,0.0,0.0,0.0,0.0,0.0,0.0,0.0,0.0,0.0,0.0,0.0,0.0,0.0,0.0,0.0,0.0,0.0,0.0,0.0,0.0,0.0,0.0,0.0,0.0,0.0,0.0,0.0,0.0,0.0,0.0,0.0,0.0,0.0,0.0,0.0,0.0,0.0,0.0,0.0,0.0,0.0,0.0,0.0,0.0,0.0,0.0,0.0,0.0,0.0,0.0,0.0,0.0,0.0,0.0,0.0,0.0,0.0,0.0,0.0,0.0,0.0,0.0,0.0,0.0,0.0,0.0,0.0,0.0,0.0,0.0,0.0,0.0,0.0,0.0,0.0,0.0,0.0,0.0,0.0,0.0,0.0,-0.8572,-0.8564,-0.8385,0.0,-0.7801,0.0,0.0,0.0,0.0,0.0,0.0,0.0,0.0,0.0,0.0,0.0,0.0,0.0,0.0,0.0,0.0,0.0,0.0,0.0,0.0,0.0,0.0,0.0,0.0,0.0,0.0,0.0,0.0,0.0,0.0,0.0,0.0,0.0,0.0,0.0,0.0,0.0,0.0,0.0,0.0,0.0,0.0,0.0,0.0,0.0,0.0,0.0,0.0,0.0,0.0,0.0,0.0,0.0,0.0,0.0,0.0,0.0,0.0,0.0,0.0,0.0,0.0,0.0,0.0,0.0,0.0,0.0,0.0,0.0,0.0,0.0,0.0,0.0,0.0,0.0,0.0,0.0,0.0,0.0,0.0,0.0,0.0,0.0,0.0,0.0,0.0,0.0,0.0,0.0,0.0,0.0,0.0,0.0,0.0,0.0,0.0,0.0,0.0,0.0,0.0,0.0,0.0,0.0,0.0,0.0,0.0,0.0,0.0,0.0,0.0,-0.8572,-0.8572,-0.828,-0.8012,0.0,0.0,0.0,0.0,0.0,0.0,0.0,0.0,0.0,0.0,0.0,0.0,0.0,0.0,0.0,0.0,0.0,0.0,0.0,0.0,0.0,0.0,0.0,0.0,0.0,0.0,0.0,0.0,0.0,0.0,0.0,0.0,0.0,0.0,0.0,0.0,0.0,0.0,0.0,0.0,0.0,0.0,0.0,0.0,0.0,0.0,0.0,0.0,0.0,0.0,0.0,0.0,0.0,0.0,0.0,0.0,0.0,0.0,0.0,0.0,0.0,0.0,0.0,0.0,0.0,0.0,0.0,0.0,0.0,0.0,0.0,0.0,0.0,0.0,0.0,0.0,0.0,0.0,0.0,0.0,0.0,0.0,0.0,0.0,0.0,0.0,0.0,0.0,0.0,0.0,0.0,0.0,0.0,0.0,0.0,0.0,0.0,0.0,0.0,0.0,0.0,0.0,0.0,0.0,0.0,0.0,0.0,0.0,0.0,0.0,-0.8508,-0.8665,-0.8645,-0.835,-0.8098,-0.7999,0.0,0.0,0.0,0.0,0.0,0.0,0.0,0.0,0.0,0.0,0.0,0.0,0.0,0.0,0.0,0.0,0.0,0.0,0.0,0.0,0.0,0.0,0.0,0.0,0.0,0.0,0.0,0.0,0.0,0.0,0.0,0.0,0.0,0.0,0.0,0.0,0.0,0.0,0.0,0.0,0.0,0.0,0.0,0.0,0.0,0.0,0.0,0.0,0.0,0.0,0.0,0.0,0.0,0.0,0.0,0.0,0.0,0.0,0.0,0.0,0.0,0.0,0.0,0.0,0.0,0.0,0.0,0.0,0.0,0.0,0.0,0.0,0.0,0.0,0.0,0.0,0.0,0.0,0.0,0.0,0.0,0.0,0.0,0.0,0.0,0.0,0.0,0.0,0.0,0.0,0.0,0.0,0.0,0.0,0.0,0.0,0.0,0.0,0.0,0.0,0.0,0.0,0.0,0.0,0.0,0.0,0.0,0.0,-0.8268,-0.8462,-0.8717,-0.8878,-0.8695,-0.8585,0.0,0.0,0.0,0.0,0.0,0.0,0.0,0.0,0.0,0.0,0.0,0.0,0.0,0.0,0.0,0.0,0.0,0.0,0.0,0.0,0.0,0.0,0.0,0.0,0.0,0.0,0.0,0.0,0.0,0.0,0.0,0.0,0.0,0.0,0.0,0.0,0.0,0.0,0.0,0.0,0.0,0.0,0.0,0.0,0.0,0.0,0.0,0.0,0.0,0.0,0.0,0.0,0.0,0.0,0.0,0.0,0.0,0.0,0.0,0.0,0.0,0.0,0.0,0.0,0.0,0.0,0.0,0.0,0.0,0.0,0.0,0.0,0.0,0.0,0.0,0.0,0.0,0.0,0.0,0.0,0.0,0.0,0.0,0.0,0.0,0.0,0.0,0.0,0.0,0.0,0.0,0.0,0.0,0.0,0.0,0.0,0.0,0.0,0.0,0.0,0.0,0.0,0.0,0.0,0.0,0.0,0.0,0.0,0.0,-0.8187,-0.8465,-0.8695,-0.8935,-0.8756,-0.8643,0.0,0.0,0.0,0.0,0.0,0.0,0.0,0.0,0.0,0.0,0.0,0.0,0.0,0.0,0.0,0.0,0.0,0.0,0.0,0.0,0.0,0.0,0.0,0.0,0.0,0.0,0.0,0.0,0.0,0.0,0.0,0.0,0.0,0.0,0.0,0.0,0.0,0.0,0.0,0.0,0.0,0.0,0.0,0.0,0.0,0.0,0.0,0.0,0.0,0.0,0.0,0.0,0.0,0.0,0.0,0.0,0.0,0.0,0.0,0.0,0.0,0.0,0.0,0.0,0.0,0.0,0.0,0.0,0.0,0.0,0.0,0.0,0.0,0.0,0.0,0.0,0.0,0.0,0.0,0.0,0.0,0.0,0.0,0.0,0.0,0.0,0.0,0.0,0.0,0.0,0.0,0.0,0.0,0.0,0.0,0.0,0.0,0.0,0.0,0.0,0.0,0.0,0.0,0.0,0.0,0.0,0.0,0.0,0.0,-0.848,0.0,-0.9073,-0.9409,-0.9285,-0.9154,0.0,0.0,0.0,0.0,0.0,0.0,0.0,0.0,0.0,0.0,0.0,0.0,0.0,0.0,0.0,0.0,0.0,0.0,0.0,0.0,0.0,0.0,0.0,0.0,0.0,0.0,0.0,0.0,0.0,0.0,0.0,0.0,0.0,0.0,0.0,0.0,0.0,0.0,0.0,0.0,0.0,0.0,0.0,0.0,0.0,0.0,0.0,0.0,0.0,0.0,0.0,0.0,0.0,0.0,0.0,0.0,0.0,0.0,0.0,0.0,0.0,0.0,0.0,0.0,0.0,0.0,0.0,0.0,0.0,0.0,0.0,0.0,0.0,0.0,0.0,0.0,0.0,0.0,0.0,0.0,0.0,0.0,0.0,0.0,0.0,0.0,0.0,0.0,0.0,0.0,0.0,0.0,0.0,0.0,0.0,0.0,0.0,0.0,0.0,0.0,0.0,0.0,0.0,0.0,0.0,0.0,0.0,0.0,-0.8299,-0.9313,-0.9526,-0.9859,-1.0243,-1.0298,-1.0163,0.0,0.0,0.0,0.0,0.0,0.0,0.0,0.0,0.0,0.0,0.0,0.0,0.0,0.0,0.0,0.0,0.0,0.0,0.0,0.0,0.0,0.0,0.0,0.0,0.0,0.0,0.0,0.0,0.0,0.0,0.0,0.0,0.0,0.0,0.0,0.0,0.0,0.0,0.0,0.0,0.0,0.0,0.0,0.0,0.0,0.0,0.0,0.0,0.0,0.0,0.0,0.0,0.0,0.0,0.0,0.0,0.0,0.0,0.0,0.0,0.0,0.0,0.0,0.0,0.0,0.0,0.0,0.0,0.0,0.0,0.0,0.0,0.0,0.0,0.0,0.0,0.0,0.0,0.0,0.0,0.0,0.0,0.0,0.0,0.0,0.0,0.0,0.0,0.0,0.0,0.0,0.0,0.0,0.0,0.0,0.0,0.0,0.0,0.0,0.0,0.0,0.0,0.0,0.0,0.0,0.0,0.0,0.0,0.0,-0.9644,-0.9963,-1.0376,-1.0869,-1.0784,-1.0617,0.0,0.0,0.0,0.0,0.0,0.0,0.0,0.0,0.0,0.0,0.0,0.0,0.0,0.0,0.0,0.0,0.0,0.0,0.0,0.0,0.0,0.0,0.0,0.0,0.0,0.0,0.0,0.0,0.0,0.0,0.0,0.0,0.0,0.0,0.0,0.0,0.0,0.0,0.0,0.0,0.0,0.0,0.0,0.0,0.0,0.0,0.0,0.0,0.0,0.0,0.0,0.0,0.0,0.0,0.0,0.0,0.0,0.0,0.0,0.0,0.0,0.0,0.0,0.0,0.0,0.0,0.0,0.0,0.0,0.0,0.0,0.0,0.0,0.0,0.0,0.0,0.0,0.0,0.0,0.0,0.0,0.0,0.0,0.0,0.0,0.0,0.0,0.0,0.0,0.0,0.0,0.0,0.0,0.0,0.0,0.0,0.0,0.0,0.0,0.0,0.0,0.0,0.0,0.0,0.0,0.0,0.0,0.0,0.0,-1.0418,-1.0756,-1.117,-1.174,-1.1567,-1.1379,-1.1205,0.0,0.0,0.0,0.0,0.0,0.0,0.0,0.0,0.0,0.0,0.0,0.0,0.0,0.0,0.0,0.0,0.0,0.0,0.0,0.0,0.0,0.0,0.0,0.0,0.0,0.0,0.0,0.0,0.0,0.0,0.0,0.0,0.0,0.0,0.0,0.0,0.0,0.0,0.0,0.0,0.0,0.0,0.0,0.0,0.0,0.0,0.0,0.0,0.0,0.0,0.0,0.0,0.0,0.0,0.0,0.0,0.0,0.0,0.0,0.0,0.0,0.0,0.0,0.0,0.0,0.0,0.0,0.0,0.0,0.0,0.0,0.0,0.0,0.0,0.0,0.0,0.0,0.0,0.0,0.0,0.0,0.0,0.0,0.0,0.0,0.0,0.0,0.0,0.0,0.0,0.0,0.0,0.0,0.0,0.0,0.0,0.0,0.0,0.0,0.0,0.0,0.0,0.0,0.0,0.0,0.0,0.0,0.0,-1.1727,-1.1827,-1.2082,-1.2731,-1.2637,-1.2371,0.0,0.0,0.0,0.0,0.0,0.0,0.0,0.0,0.0,0.0,0.0,0.0,0.0,0.0,0.0,0.0,0.0,0.0,0.0,0.0,0.0,0.0,0.0,0.0,0.0,0.0,0.0,0.0,0.0,0.0,0.0,0.0,0.0,0.0,0.0,0.0,0.0,0.0,0.0,0.0,0.0,0.0,0.0,0.0,0.0,0.0,0.0,0.0,0.0,0.0,0.0,0.0,0.0,0.0,0.0,0.0,0.0,0.0,0.0,0.0,0.0,0.0,0.0,0.0,0.0,0.0,0.0,0.0,0.0,0.0,0.0,0.0,0.0,0.0,0.0,0.0,0.0,0.0,0.0,0.0,0.0,0.0,0.0,0.0,0.0,0.0,0.0,0.0,0.0,0.0,0.0,0.0,0.0,0.0,0.0,0.0,0.0,0.0,0.0,0.0,0.0,0.0,0.0,0.0,0.0,0.0,0.0,0.0,0.0,-1.2624,-1.3182,-1.3361,-1.3155,-1.3235,-1.2968,0.0,0.0,0.0,0.0,0.0,0.0,0.0,0.0,0.0,0.0,0.0,0.0,0.0,0.0,0.0,0.0,0.0,0.0,0.0,0.0,0.0,0.0,0.0,0.0,0.0,0.0,0.0,0.0,0.0,0.0,0.0,0.0,0.0,0.0,0.0,0.0,0.0,0.0,0.0,0.0,0.0,0.0,0.0,0.0,0.0,0.0,0.0,0.0,0.0,0.0,0.0,0.0,0.0,0.0,0.0,0.0,0.0,0.0,0.0,0.0,0.0,0.0,0.0,0.0,0.0,0.0,0.0,0.0,0.0,0.0,0.0,0.0,0.0,0.0,0.0,0.0,0.0,0.0,0.0,0.0,0.0,0.0,0.0,0.0,0.0,0.0,0.0,0.0,0.0,0.0,0.0,0.0,0.0,0.0,0.0,0.0,0.0,0.0,0.0,0.0,0.0,0.0,0.0,0.0,0.0,0.0,0.0,0.0,-1.1927,-1.3048,-1.3736,-1.3917,-1.3668,-1.3783,-1.342,0.0,0.0,0.0,0.0,0.0,0.0,0.0,0.0,0.0,0.0,0.0,0.0,0.0,0.0,0.0,0.0,0.0,0.0,0.0,0.0,0.0,0.0,0.0,0.0,0.0,0.0,0.0,0.0,0.0,0.0,0.0,0.0,0.0,0.0,0.0,0.0,0.0,0.0,0.0,0.0,0.0,0.0,0.0,0.0,0.0,0.0,0.0,0.0,0.0,0.0,0.0,0.0,0.0,0.0,0.0,0.0,0.0,0.0,0.0,0.0,0.0,0.0,0.0,0.0,0.0,0.0,0.0,0.0,0.0,0.0,0.0,0.0,0.0,0.0,0.0,0.0,0.0,0.0,0.0,0.0,0.0,0.0,0.0,0.0,0.0,0.0,0.0,0.0,0.0,0.0,0.0,0.0,0.0,0.0,0.0,0.0,0.0,0.0,0.0,0.0,0.0,0.0,0.0,0.0,0.0,0.0,0.0,0.0,-1.2046,-1.3253,-1.3874,-1.422,-1.4206,-1.4248,-1.3777,0.0,0.0,0.0,0.0,0.0,0.0,0.0,0.0,0.0,0.0,0.0,0.0,0.0,0.0,0.0,0.0,0.0,0.0,0.0,0.0,0.0,0.0,0.0,0.0,0.0,0.0,0.0,0.0,0.0,0.0,0.0,0.0,0.0,0.0,0.0,0.0,0.0,0.0,0.0,0.0,0.0,0.0,0.0,0.0,0.0,0.0,0.0,0.0,0.0,0.0,0.0,0.0,0.0,0.0,0.0,0.0,0.0,0.0,0.0,0.0,0.0,0.0,0.0,0.0,0.0,0.0,0.0,0.0,0.0,0.0,0.0,0.0,0.0,0.0,0.0,0.0,0.0,0.0,0.0,0.0,0.0,0.0,0.0,0.0,0.0,0.0,0.0,0.0,0.0,0.0,0.0,0.0,0.0,0.0,0.0,0.0,0.0,0.0,0.0,0.0,0.0,0.0,0.0,0.0,0.0,0.0,0.0,0.0,-1.2996,-1.4143,-1.4522,-1.4695,-1.4695,-1.4473,-1.3917,0.0,0.0,0.0,0.0,0.0,0.0,0.0,0.0,0.0,0.0,0.0,0.0,0.0,0.0,0.0,0.0,0.0,0.0,0.0,0.0,0.0,0.0,0.0,0.0,0.0,0.0,0.0,0.0,0.0,0.0,0.0,0.0,0.0,0.0,0.0,0.0,0.0,0.0,0.0,0.0,0.0,0.0,0.0,0.0,0.0,0.0,0.0,0.0,-0.9881,0.0,0.0,0.0,0.0,0.0,0.0,0.0,0.0,0.0,0.0,0.0,0.0,0.0,0.0,0.0,0.0,0.0,0.0,0.0,0.0,0.0,0.0,0.0,0.0,0.0,0.0,0.0,0.0,0.0,0.0,0.0,0.0,0.0,0.0,0.0,0.0,0.0,0.0,0.0,0.0,0.0,0.0,0.0,0.0,0.0,0.0,0.0,0.0,0.0,0.0,0.0,0.0,0.0,0.0,0.0,0.0,0.0,0.0,0.0,-1.3168,-1.4135,-1.4389,-1.4561,-1.4676,-1.4399,-1.3767,0.0,0.0,0.0,0.0,0.0,0.0,0.0,0.0,0.0,0.0,0.0,0.0,0.0,0.0,0.0,0.0,0.0,0.0,0.0,0.0,0.0,0.0,0.0,0.0,0.0,0.0,0.0,0.0,0.0,0.0,0.0,0.0,0.0,0.0,0.0,0.0,0.0,0.0,0.0,0.0,0.0,0.0,0.0,0.0,0.0,0.0,0.0,0.0,0.0,0.0,0.0,0.0,0.0,0.0,0.0,0.0,0.0,0.0,0.0,0.0,0.0,0.0,0.0,0.0,0.0,0.0,0.0,0.0,0.0,0.0,0.0,0.0,0.0,0.0,0.0,0.0,0.0,0.0,0.0,0.0,0.0,0.0,0.0,0.0,0.0,0.0,0.0,0.0,0.0,0.0,0.0,0.0,0.0,0.0,0.0,0.0,0.0,0.0,0.0,0.0,0.0,0.0,0.0,0.0,0.0,0.0,0.0,-1.2304,-1.3102,-1.3796,-1.4038,-1.423,-1.4248,-1.4104,-1.3522,-1.2529,0.0,0.0,0.0,0.0,0.0,0.0,0.0,0.0,0.0,0.0,0.0,0.0,0.0,0.0,0.0,0.0,0.0,0.0,0.0,0.0,0.0,0.0,0.0,0.0,0.0,0.0,0.0,0.0,0.0,0.0,0.0,0.0,0.0,0.0,0.0,0.0,0.0,0.0,-0.8811,-0.9234,0.0,0.0,0.0,0.0,0.0,0.0,0.0,0.0,-1.1663,0.0,0.0,0.0,0.0,0.0,0.0,0.0,0.0,0.0,0.0,0.0,0.0,0.0,0.0,0.0,0.0,0.0,0.0,0.0,0.0,0.0,0.0,0.0,0.0,0.0,0.0,0.0,0.0,0.0,0.0,0.0,0.0,0.0,0.0,0.0,0.0,0.0,0.0,0.0,0.0,0.0,0.0,0.0,0.0,0.0,0.0,0.0,0.0,0.0,0.0,0.0,0.0,0.0,0.0,0.0,0.0,-1.1611,-1.2736,-1.3457,-1.3724,-1.4502,-1.4356,-1.3273,-1.3492,-1.2931,-1.1641,0.0,0.0,0.0,0.0,0.0,0.0,0.0,0.0,0.0,0.0,0.0,0.0,0.0,0.0,0.0,0.0,0.0,0.0,0.0,0.0,0.0,0.0,0.0,0.0,0.0,0.0,0.0,0.0,0.0,0.0,0.0,0.0,0.0,0.0,0.0,0.0,0.0,0.0,0.0,-0.8882,-0.9266,0.0,0.0,0.0,0.0,0.0,0.0,0.0,0.0,-1.2147,0.0,0.0,0.0,0.0,0.0,0.0,0.0,0.0,0.0,0.0,0.0,0.0,0.0,0.0,0.0,0.0,0.0,0.0,0.0,0.0,0.0,0.0,0.0,0.0,0.0,0.0,0.0,0.0,0.0,0.0,0.0,0.0,0.0,0.0,0.0,0.0,0.0,0.0,0.0,0.0,0.0,0.0,0.0,0.0,0.0,0.0,0.0,0.0,0.0,0.0,0.0,0.0,0.0,0.0,0.0,-1.1548,-1.2779,-1.3468,-1.3774,-1.4262,-1.4138,-1.3272,-1.3205,-1.2522,0.0,0.0,0.0,0.0,0.0,0.0,0.0,0.0,0.0,0.0,0.0,0.0,0.0,0.0,0.0,0.0,0.0,0.0,0.0,0.0,0.0,0.0,0.0,0.0,0.0,0.0,0.0,0.0,0.0,0.0,0.0,0.0,0.0,0.0,0.0,0.0,0.0,0.0,0.0,0.0,-0.8571,-0.8755,-0.9392,0.0,0.0,0.0,0.0,0.0,0.0,-1.3048,-1.3031,0.0,0.0,0.0,0.0,0.0,0.0,0.0,0.0,0.0,0.0,0.0,0.0,0.0,0.0,0.0,0.0,0.0,0.0,0.0,0.0,0.0,0.0,0.0,0.0,0.0,0.0,0.0,0.0,0.0,0.0,0.0,0.0,0.0,0.0,0.0,0.0,0.0,0.0,0.0,0.0,0.0,0.0,0.0,0.0,0.0,0.0,0.0,0.0,0.0,0.0,0.0,0.0,0.0,0.0,0.0,-1.1376,-1.2696,-1.3474,-1.3627,-1.3972,-1.395,-1.3375,-1.2994,-1.2267,0.0,0.0,0.0,0.0,0.0,0.0,0.0,0.0,0.0,0.0,0.0,0.0,0.0,0.0,0.0,0.0,0.0,0.0,0.0,0.0,0.0,0.0,0.0,0.0,0.0,0.0,0.0,0.0,0.0,0.0,0.0,0.0,0.0,0.0,0.0,0.0,0.0,0.0,0.0,0.0,0.0,-0.8606,-0.9819,-0.9857,0.0,0.0,0.0,0.0,-1.3236,-1.3669,0.0,0.0,0.0,0.0,0.0,0.0,0.0,0.0,0.0,0.0,0.0,0.0,0.0,0.0,0.0,0.0,0.0,0.0,0.0,0.0,0.0,0.0,0.0,0.0,0.0,0.0,0.0,0.0,0.0,0.0,0.0,0.0,0.0,0.0,0.0,0.0,0.0,0.0,0.0,0.0,0.0,0.0,0.0,0.0,0.0,0.0,0.0,0.0,0.0,0.0,0.0,0.0,0.0,0.0,0.0,0.0,-1.1381,-1.2696,-1.3296,-1.3112,-1.3966,-1.4054,-1.3045,-1.2727,-1.2004,0.0,0.0,0.0,0.0,0.0,0.0,0.0,0.0,0.0,0.0,0.0,0.0,0.0,0.0,0.0,0.0,0.0,0.0,0.0,0.0,0.0,0.0,0.0,0.0,0.0,0.0,0.0,0.0,0.0,0.0,0.0,0.0,0.0,0.0,0.0,0.0,0.0,0.0,0.0,0.0,0.0,-0.9727,-0.9571,-1.0453,-1.1318,0.0,0.0,-1.3104,-1.4965,-1.4526,0.0,0.0,0.0,0.0,0.0,0.0,0.0,0.0,0.0,0.0,0.0,0.0,0.0,0.0,0.0,0.0,0.0,0.0,0.0,0.0,0.0,0.0,0.0,0.0,0.0,0.0,0.0,0.0,0.0,0.0,0.0,0.0,0.0,0.0,0.0,0.0,0.0,0.0,0.0,0.0,0.0,0.0,0.0,0.0,0.0,0.0,0.0,0.0,0.0,0.0,0.0,0.0,0.0,0.0,0.0,-1.1123,-1.1301,-1.2612,-1.3241,-1.3284,-1.3864,-1.3705,-1.2872,-1.2282,-1.1342,0.0,0.0,0.0,0.0,0.0,0.0,0.0,0.0,0.0,0.0,0.0,0.0,0.0,0.0,0.0,0.0,0.0,0.0,0.0,0.0,0.0,0.0,0.0,0.0,0.0,0.0,0.0,0.0,0.0,0.0,0.0,0.0,0.0,0.0,0.0,0.0,0.0,0.0,0.0,0.0,0.0,0.0,-1.0619,-1.1389,0.0,0.0,0.0,-1.395,-1.5131,0.0,0.0,0.0,0.0,0.0,0.0,0.0,0.0,0.0,0.0,0.0,0.0,0.0,0.0,0.0,0.0,0.0,0.0,0.0,0.0,0.0,0.0,0.0,0.0,0.0,0.0,0.0,0.0,0.0,0.0,0.0,0.0,0.0,0.0,0.0,0.0,0.0,0.0,0.0,0.0,0.0,0.0,0.0,0.0,0.0,0.0,0.0,0.0,0.0,0.0,0.0,0.0,0.0,0.0,0.0,0.0,0.0,-1.1472,-1.2572,-1.3336,-1.3536,-1.3717,-1.3547,-1.3021,-1.201,0.0,0.0,0.0,0.0,0.0,0.0,0.0,0.0,0.0,0.0,0.0,0.0,0.0,0.0,0.0,0.0,0.0,0.0,0.0,0.0,0.0,0.0,0.0,0.0,0.0,0.0,0.0,-0.4854,0.0,0.0,0.0,0.0,0.0,0.0,0.0,0.0,0.0,0.0,0.0,0.0,0.0,0.0,-1.0706,-1.2107,-1.2765,-1.3346,0.0,0.0,-1.4847,-1.5047,-1.4912,-1.4853,0.0,0.0,0.0,0.0,0.0,0.0,0.0,0.0,0.0,0.0,0.0,0.0,0.0,0.0,0.0,0.0,0.0,0.0,0.0,0.0,0.0,0.0,0.0,0.0,0.0,0.0,0.0,0.0,0.0,0.0,0.0,0.0,0.0,0.0,0.0,0.0,0.0,0.0,0.0,0.0,0.0,0.0,0.0,0.0,0.0,0.0,0.0,0.0,0.0,0.0,0.0,0.0,0.0,0.0,0.0,-1.2049,-1.3021,-1.343,-1.3542,-1.3717,-1.3818,-1.3736,-1.1861,-1.0674,0.0,0.0,0.0,0.0,0.0,0.0,0.0,0.0,0.0,0.0,0.0,0.0,0.0,0.0,0.0,0.0,0.0,0.0,0.0,0.0,0.0,0.0,0.0,0.0,0.0,0.0,0.0,0.0,0.0,0.0,0.0,0.0,0.0,0.0,0.0,0.0,0.0,0.0,0.0,0.0,0.0,-1.2941,-1.4078,-1.4853,-1.5348,0.0,0.0,-1.5677,-1.5175,-1.5059,-1.5053,-1.507,0.0,0.0,0.0,0.0,0.0,0.0,0.0,0.0,0.0,0.0,0.0,0.0,0.0,0.0,0.0,0.0,0.0,0.0,0.0,0.0,0.0,0.0,0.0,0.0,0.0,0.0,0.0,0.0,0.0,0.0,0.0,0.0,0.0,0.0,0.0,0.0,0.0,0.0,0.0,0.0,0.0,0.0,0.0,0.0,0.0,0.0,0.0,0.0,0.0,0.0,0.0,0.0,0.0,-1.1529,-1.21,-1.2715,-1.3193,-1.3422,-1.2827,-1.2474,-1.2474,-1.0564,-0.9351,0.0,0.0,0.0,0.0,0.0,0.0,0.0,0.0,0.0,0.0,0.0,0.0,0.0,0.0,0.0,0.0,0.0,0.0,0.0,0.0,0.0,0.0,0.0,0.0,0.0,0.0,0.0,0.0,-0.6224,-0.6634,-0.778,0.0,0.0,0.0,0.0,0.0,0.0,0.0,0.0,0.0,0.0,-1.4079,-1.4838,-1.6163,0.0,0.0,-1.6685,-1.6361,-1.615,-1.5386,-1.4821,-1.4758,-1.4166,0.0,0.0,0.0,0.0,0.0,0.0,0.0,0.0,0.0,0.0,0.0,0.0,0.0,0.0,0.0,0.0,0.0,0.0,0.0,0.0,0.0,0.0,0.0,0.0,0.0,0.0,0.0,0.0,0.0,0.0,0.0,0.0,0.0,0.0,0.0,0.0,0.0,0.0,0.0,0.0,0.0,0.0,0.0,0.0,0.0,0.0,0.0,0.0,0.0,0.0,0.0,0.0,-1.1589,-1.2156,-1.2435,-1.2786,-1.332,-1.2075,-1.1462,-1.1294,-0.9501,-0.8138,0.0,0.0,0.0,0.0,0.0,0.0,0.0,0.0,0.0,0.0,0.0,0.0,0.0,0.0,0.0,0.0,0.0,0.0,0.0,0.0,0.0,0.0,0.0,0.0,0.0,0.0,0.0,0.0,-0.7122,-0.7615,-0.9056,0.0,0.0,0.0,0.0,0.0,0.0,0.0,0.0,0.0,0.0,-1.4713,-1.5589,-1.6788,-1.7698,-1.8114,-1.7435,-1.6736,-1.6524,-1.5523,-1.473,-1.4572,0.0,0.0,0.0,0.0,0.0,0.0,0.0,0.0,0.0,0.0,0.0,0.0,0.0,0.0,0.0,0.0,0.0,0.0,0.0,0.0,0.0,0.0,0.0,0.0,0.0,0.0,0.0,0.0,0.0,0.0,0.0,0.0,0.0,0.0,0.0,0.0,0.0,0.0,0.0,0.0,0.0,0.0,0.0,0.0,0.0,0.0,0.0,0.0,0.0,0.0,0.0,0.0,0.0,-1.166,-1.2376,-1.2422,-1.2523,-1.2774,-1.1626,-1.0853,-1.0636,-0.87,-0.7425,-0.7098,0.0,0.0,0.0,0.0,0.0,0.0,0.0,0.0,0.0,0.0,0.0,0.0,0.0,0.0,0.0,0.0,0.0,0.0,0.0,0.0,0.0,0.0,0.0,0.0,0.0,0.0,-0.7785,-0.9086,-1.0113,0.0,0.0,0.0,0.0,0.0,0.0,0.0,0.0,0.0,0.0,-1.3718,-1.4943,-1.6746,-1.6922,-1.7147,-1.8192,-1.7687,-1.6855,-1.6105,-1.5351,-1.4922,0.0,0.0,0.0,0.0,0.0,0.0,0.0,0.0,0.0,0.0,0.0,0.0,0.0,0.0,0.0,0.0,0.0,0.0,0.0,0.0,0.0,0.0,0.0,0.0,0.0,0.0,0.0,-1.0432,-1.0284,0.0,0.0,0.0,0.0,0.0,0.0,0.0,0.0,0.0,0.0,0.0,-1.1693,-1.1595,0.0,0.0,0.0,0.0,0.0,0.0,0.0,0.0,0.0,0.0,0.0,0.0,-1.1505,-1.2177,-1.2355,-1.2614,-1.2904,-1.1061,-1.0023,-0.9944,-0.7726,-0.6332,-0.5951,0.0,0.0,0.0,0.0,0.0,0.0,0.0,0.0,0.0,0.0,0.0,0.0,0.0,0.0,0.0,0.0,0.0,0.0,0.0,0.0,0.0,0.0,0.0,0.0,0.0,-0.8213,0.0,0.0,0.0,0.0,0.0,0.0,0.0,0.0,0.0,0.0,0.0,-1.2667,-1.341,-1.4544,-1.5682,-1.6467,-1.7252,-1.7891,0.0,0.0,0.0,0.0,0.0,0.0,0.0,0.0,0.0,0.0,0.0,0.0,0.0,0.0,-1.3345,-1.2961,-1.3193,-1.3463,-1.3284,0.0,0.0,0.0,0.0,0.0,0.0,0.0,0.0,0.0,0.0,0.0,0.0,0.0,0.0,0.0,0.0,-0.9798,0.0,0.0,0.0,0.0,0.0,0.0,0.0,0.0,-1.0905,-1.1314,-1.1899,-1.188,-1.1822,0.0,-1.1558,-1.137,0.0,0.0,0.0,0.0,0.0,0.0,0.0,0.0,-1.1191,-1.1857,-1.2122,-1.237,-1.2731,-1.0822,-0.9516,-0.9144,-0.6802,-0.5427,-0.5181,-0.5225,-0.5288,0.0,0.0,0.0,0.0,0.0,0.0,0.0,0.0,0.0,0.0,0.0,0.0,0.0,0.0,0.0,0.0,0.0,0.0,0.0,0.0,0.0,0.0,0.0,-0.9469,0.0,0.0,0.0,0.0,0.0,0.0,0.0,0.0,0.0,-1.2405,-1.2599,-1.301,-1.3744,-1.4622,-1.5481,-1.5962,0.0,0.0,0.0,0.0,0.0,0.0,0.0,-1.3867,-1.3645,-1.3537,-1.35,-1.3487,-1.3541,-1.3552,-1.3626,0.0,0.0,-1.2999,-1.3021,-1.3076,-1.3103,-1.2886,-1.291,-1.3722,-1.4193,-1.4568,0.0,0.0,0.0,0.0,0.0,0.0,0.0,0.0,-0.9079,-0.9283,0.0,-0.8905,0.0,0.0,0.0,0.0,0.0,0.0,0.0,0.0,-1.1272,-1.1564,-1.1687,-1.1879,-1.1991,-1.1975,-1.1682,-1.1577,-1.1542,-1.092,0.0,0.0,0.0,0.0,0.0,0.0,-1.0847,-1.1527,-1.1615,-1.1899,-1.2215,-1.0673,-0.9362,-0.834,-0.6116,-0.4875,-0.4783,-0.4944,-0.4969,-0.4969,-0.4794,0.0,0.0,0.0,0.0,0.0,0.0,0.0,0.0,0.0,0.0,0.0,0.0,0.0,0.0,0.0,0.0,0.0,0.0,0.0,0.0,-1.0097,0.0,0.0,0.0,0.0,0.0,0.0,0.0,0.0,0.0,0.0,-1.2087,-1.2904,-1.3572,-1.3803,0.0,0.0,0.0,0.0,-1.525,-1.6086,-1.5452,-1.4821,-1.46,-1.4067,-1.364,-1.3315,0.0,0.0,-1.3169,-1.3005,-1.288,-1.3055,-1.2878,-1.274,-1.3308,-1.2785,-1.2429,-1.2214,-1.2082,-1.2223,-1.3417,-1.3754,-1.3922,-1.0357,0.0,0.0,0.0,0.0,-0.8403,-0.8736,-0.9322,-0.8969,-0.8981,-0.9154,-0.8508,0.0,0.0,0.0,0.0,0.0,0.0,-0.9912,-1.1096,-1.1282,-1.1601,-1.1895,-1.192,-1.1924,-1.1919,-1.1662,-1.1538,-1.1514,-1.0278,-0.9837,-1.0041,0.0,0.0,0.0,0.0,-0.9295,-1.0192,-1.0432,-1.0596,-1.0993,-0.9685,-0.8088,-0.6304,-0.5423,-0.4989,-0.4989,-0.4979,-0.501,-0.5007,-0.4679,0.0,0.0,0.0,0.0,0.0,0.0,0.0,0.0,0.0,0.0,0.0,0.0,0.0,0.0,0.0,0.0,0.0,0.0,0.0,-1.0636,-1.1456,-1.2073,0.0,0.0,0.0,0.0,0.0,0.0,0.0,0.0,0.0,-1.2427,-1.3122,-1.3814,0.0,0.0,-1.4283,-1.4493,-1.4493,-1.4385,-1.4385,0.0,0.0,0.0,-1.3532,-1.332,-1.3098,-1.3135,-1.3135,-1.3079,-1.31,-1.3085,-1.314,-1.2913,-1.2675,-1.2539,-1.2324,-1.2161,-1.2042,-1.1893,-1.1987,-1.248,-1.2714,-1.2994,-0.8872,-0.8694,-0.8546,-0.8347,-0.7997,-0.7777,-0.7985,-0.844,-0.8027,-0.7971,-0.8292,-0.7547,-0.7119,-0.6792,-0.6783,0.0,0.0,0.0,-0.889,-0.9938,-1.0015,-1.0242,-1.0523,-1.0539,-1.0493,-1.0493,-1.0288,-1.0186,-1.0182,-0.9264,-0.8814,-0.9096,0.0,0.0,-0.7858,-0.7848,-0.8214,-0.8952,-0.9251,-0.9494,-0.969,-0.8553,-0.7155,-0.5611,-0.5169,-0.4953,-0.4953,-0.4947,-0.4894,-0.4894,-0.4709,-0.4552,0.0,0.0,0.0,0.0,0.0,0.0,0.0,0.0,0.0,0.0,0.0,-0.4689,-0.5526,0.0,0.0,0.0,-0.9232,-1.0471,-1.1563,-1.2082,0.0,0.0,0.0,0.0,0.0,0.0,0.0,-1.2134,-1.2534,-1.2837,-1.271,-1.322,-1.3698,-1.3846,-1.3856,-1.3846,-1.3851,0.0,-1.3743,-1.3532,-1.3423,-1.3315,-1.3207,-1.2989,-1.2881,-1.2555,-1.272,-1.2748,-1.2721,-1.2759,-1.2866,-1.2942,-1.2724,-1.2431,-1.2044,-1.2013,-1.1932,-1.1807,-1.1712,-1.1616,-1.1862,-1.2156,-1.2368,-0.7467,-0.7355,-0.8039,-0.802,-0.7674,-0.713,-0.7271,-0.7675,-0.6404,-0.6603,-0.7632,-0.6367,-0.5957,-0.6253,-0.6136,0.0,-0.6685,-0.7099,-0.7517,-0.7839,-0.8086,-0.8223,-0.8246,-0.8259,-0.8266,-0.8266,-0.8266,-0.8276,-0.8286,-0.7947,-0.7737,-0.7419,-0.7045,-0.6948,-0.7149,-0.7146,-0.7397,-0.7819,-0.8014,-0.8312,-0.8506,-0.7198,-0.6308,-0.5818,-0.4955,-0.4573,-0.4571,-0.4665,-0.4704,-0.4702,-0.4707,-0.4617,-0.4444,0.0,0.0,0.0,0.0,0.0,0.0,0.0,0.0,0.0,0.0,0.0,0.0,0.0,0.0,0.0,-1.0296,0.0,-1.2086,-1.2247,0.0,0.0,0.0,-1.251,-1.2622,-1.2474,-1.2299,-1.2103,0.0,0.0,-1.2886,0.0,-1.3207,-1.3207,-1.3207,-1.332,-1.3315,-1.3207,-1.3212,-1.3202,-1.2989,-1.2876,-1.2767,-1.255,-1.2219,-1.201,-1.2192,-1.2298,-1.2236,-1.2225,-1.2408,-1.2569,-1.2354,-1.2137,-1.1777,-1.1737,-1.1719,-1.1552,-1.1325,-1.1224,-1.1557,-1.1786,-1.1915,-0.6942,-0.6909,-0.7204,-0.723,-0.7164,-0.6814,-0.6635,-0.6751,-0.6337,-0.6257,-0.6496,-0.5859,-0.538,-0.5141,-0.4788,-0.5244,-0.6284,-0.6409,-0.7047,-0.8096,-0.8133,-0.812,-0.7941,-0.8149,-0.8091,-0.788,-0.8091,-0.8256,-0.8461,-0.7511,-0.6937,-0.68,-0.5779,-0.5567,-0.6121,-0.5636,-0.5805,-0.6429,-0.6323,-0.6321,-0.6318,-0.5205,-0.4593,-0.4474,-0.4159,-0.4005,-0.4001,-0.4055,-0.4158,-0.4156,-0.4314,-0.4291,-0.4096,-0.3916,0.0,0.0,0.0,0.0,0.0,0.0,0.0,0.0,0.0,-0.5551,-0.6461,0.0,-0.7996,0.0,-1.092,-1.1958,-1.2182,-1.2422,0.0,0.0,-1.2611,-1.2611,-1.24,-1.223,-1.2041,-1.1859,-1.221,-1.2404,-1.2242,-1.2441,-1.2659,-1.2659,-1.2881,-1.2989,-1.2985,-1.2767,-1.2659,-1.255,-1.2441,-1.2223,-1.2219,-1.2005,-1.1787,-1.1678,-1.1961,-1.2091,-1.2135,-1.219,-1.2307,-1.235,-1.2126,-1.1799,-1.1585,-1.1483,-1.136,-1.1139,-1.1036,-1.0938,-1.1171,-1.1183,-1.1297,-0.6543,-0.6612,-0.6642,-0.6614,-0.6589,-0.635,-0.6265,-0.6125,-0.5734,-0.555,-0.545,-0.5108,-0.4713,-0.4366,-0.4157,-0.4545,-0.5116,-0.5152,-0.5686,-0.6408,-0.6461,-0.6412,-0.6263,-0.6373,-0.6423,-0.6209,-0.6471,-0.6636,-0.6687,-0.603,-0.568,-0.5617,-0.4884,-0.4714,-0.5092,-0.469,-0.473,-0.5196,-0.4949,-0.4828,-0.4828,-0.4331,-0.4034,-0.4031,-0.392,-0.3862,-0.4053,-0.3996,-0.4091,-0.4272,-0.4414,-0.4478,-0.4391,-0.443,-0.454,0.0,0.0,0.0,0.0,0.0,0.0,0.0,0.0,0.0,0.0,0.0,-0.8698,-1.0093,-1.1234,-1.1838,-1.195,-1.2178,-1.2215,-1.2115,-1.2179,-1.2199,-1.2087,-1.2068,-1.1864,-1.1764,-1.1895,-1.1917,-1.18,-1.1896,-1.2037,-1.2128,-1.2252,-1.2435,-1.2569,-1.2436,-1.2223,-1.2223,-1.2005,-1.1782,-1.1787,-1.1678,-1.1568,-1.1481,-1.1595,-1.1815,-1.1672,-1.18,-1.1906,-1.1981,-1.1823,-1.1593,-1.1411,-1.1236,-1.1175,-1.0915,-1.0803,-1.0707,-1.0867,-1.0911,-1.1064,-0.6196,-0.621,-0.6162,-0.6066,-0.5864,-0.5864,-0.5769,-0.5618,-0.5058,-0.4788,-0.4702,-0.4353,-0.4147,-0.3975,-0.3974,-0.3965,-0.3952,-0.4013,-0.4147,-0.4152,-0.4215,-0.4252,-0.4264,-0.4339,-0.4373,-0.4267,-0.4436,-0.4472,-0.448,-0.4472,-0.447,-0.4479,-0.4309,-0.4277,-0.4166,-0.4106,-0.4136,-0.4045,-0.3979,-0.3942,-0.3932,-0.3932,-0.3932,-0.393,-0.3852,-0.3905,-0.4195,-0.4137,-0.4324,-0.4785,-0.4809,-0.4945,-0.5121,-0.5312,-0.5465,0.0,-0.5934,0.0,0.0,0.0,0.0,0.0,0.0,0.0,0.0,-0.8562,-0.9324,-1.0557,-1.1194,-1.1505,-1.1447,-1.1503,-1.1599,-1.1518,-1.1643,-1.175,-1.175,-1.1768,-1.1664,-1.1755,-1.1598,-1.1599,-1.1573,-1.1568,-1.1639,-1.1766,-1.1792,-1.1957,-1.2156,-1.2142,-1.1941,-1.1905,-1.1678,-1.1564,-1.1459,-1.1459,-1.135,-1.1143,-1.1184,-1.1352,-1.1273,-1.1334,-1.1512,-1.1638,-1.1561,-1.1407,-1.122,-1.1187,-1.1148,-1.0745,-1.0716,-1.0716,-1.072,-1.0814,-1.0982,-0.5398,-0.5293,-0.5157,-0.5035,-0.4845,-0.4845,-0.5058,-0.5258,-0.4802,-0.4643,-0.4569,-0.4212,-0.4051,-0.388,-0.3662,-0.371,-0.3713,-0.3725,-0.3938,-0.425,-0.4162,-0.4096,-0.3942,-0.4011,-0.3825,-0.3716,-0.3947,-0.3981,-0.4147,-0.4312,-0.4314,-0.4147,-0.4024,-0.3907,-0.3792,0.0,0.0,0.0,-0.3413,-0.3382,-0.3334,-0.333,-0.333,-0.3328,-0.3318,0.0,-0.354,-0.3776,-0.4144,-0.469,-0.5199,0.0,0.0,0.0,0.0,0.0,0.0,0.0,0.0,0.0,0.0,0.0,-0.9002,-0.9205,-0.9419,-1.0202,-1.0784,-1.108,-1.121,-1.1189,-1.1044,-1.094,-1.0923,-1.115,-1.1172,-1.1189,-1.1422,-1.1427,-1.1237,-1.121,-1.1272,-1.1411,-1.1261,-1.1455,-1.1581,-1.1634,-1.1625,-1.1608,-1.1691,-1.1811,-1.1735,-1.1717,-1.1345,-1.1126,-1.0911,-1.0916,-1.0911,-1.0826,-1.0958,-1.1085,-1.1025,-1.1163,-1.1277,-1.1342,-1.1301,-1.122,-1.1057,-1.1109,-1.1023,-1.0729,-1.0692,-1.0692,-1.0692,-1.072,-1.1059,-0.5784,0.0,-0.5656,-0.5178,0.0,-0.4465,-0.4462,-0.4542,-0.4428,-0.4161,-0.3978,-0.3807,-0.3655,-0.3621,-0.3379,-0.3436,-0.3481,-0.3511,-0.3612,-0.3687,-0.3719,-0.3629,-0.353,-0.3594,-0.3518,-0.3412,-0.3549,-0.3688,-0.3718,-0.3796,-0.3813,-0.3763,-0.3657,-0.3448,-0.3362,-0.3362,-0.3404,-0.3368,-0.3337,-0.3292,-0.3234,-0.323,-0.323,-0.3228,0.0,0.0,0.0,0.0,0.0,0.0,0.0,0.0,0.0,0.0,0.0,-0.76,-0.7863,-0.8193,-0.859,-0.8665,-0.9002,-0.949,-0.9772,-0.9976,-1.0074,-1.0644,-1.0904,-1.0806,-1.0794,-1.0676,-1.0539,-1.0338,-1.0289,-1.0445,-1.052,-1.0626,-1.086,-1.0932,-1.0948,-1.098,-1.0999,-1.1015,-1.092,-1.1021,-1.1173,-1.1257,-1.127,-1.1266,-1.127,-1.1377,-1.1338,-1.1143,-1.1021,-1.0911,-1.0692,-1.0692,-1.0688,-1.0708,-1.0769,-1.0867,-1.0952,-1.1041,-1.1122,-1.1191,-1.1159,-1.1066,-1.088,-1.0907,-1.0929,-1.0729,-1.07,-1.1143,-1.2028,-1.1905,-1.1878,-0.6137,-0.5935,-0.5886,-0.5312,-0.4375,-0.421,-0.3975,-0.3813,0.0,0.0,0.0,-0.341,-0.3357,-0.3334,-0.3285,-0.3251,-0.3234,-0.3282,-0.3279,-0.3234,-0.3293,-0.3289,-0.3236,-0.3305,-0.3332,-0.3324,-0.3372,-0.3402,-0.3412,-0.3413,-0.3441,-0.3384,-0.3181,-0.3098,-0.3023,-0.3026,-0.3092,-0.3218,-0.3263,-0.3308,-0.3248,-0.3335,-0.3432,-0.323,-0.3318,-0.3352,-0.3448,-0.4062,-0.4701,-0.5243,-0.635,-0.7073,-0.727,-0.7988,-0.8333,-0.8437,-0.8652,-0.8928,-0.9137,-0.9137,-0.943,-0.992,-1.0216,-1.031,-1.0413,-1.0609,-1.0605,-1.031,-1.0162,-1.003,-0.9931,-0.9859,-0.9704,-0.9684,-0.9932,-1.0122,-1.0358,-1.0471,-1.0579,-1.0791,-1.0789,-1.0692,-1.0692,-1.0692,-1.0741,-1.0875,-1.1003,-1.0919,-1.0903,-1.1007,-1.1038,-1.0806,-1.0802,-1.0692,-1.0688,-1.0647,-1.0651,-1.0635,-1.0611,-1.0668,-1.0818,-1.0875,-1.0944,-1.1074,-1.1005,-1.0823,-1.0571,-1.0477,-1.0488,-1.0594,-1.0594,-1.1261,-1.3355,-1.332,-1.3063,-0.4315,-0.4257,-0.3981,-0.3878,-0.3701,-0.3709,-0.3483,-0.325,-0.3587,-0.3582,-0.3574,-0.3557,-0.3493,-0.3399,-0.339,-0.333,-0.3233,-0.3238,-0.3238,0.0,-0.3294,-0.3289,-0.3238,-0.3346,-0.3371,-0.3326,-0.3331,-0.3361,-0.3301,-0.3305,-0.3227,-0.3172,-0.3106,-0.3021,-0.2805,-0.2806,-0.2779,-0.2727,-0.3108,-0.3369,-0.3311,-0.4168,-0.4133,-0.3328,-0.4046,-0.4197,-0.3517,-0.3725,-0.4152,-0.4626,-0.5761,-0.6591,-0.7078,-0.7902,-0.8495,-0.8693,-0.8814,-0.8928,-0.9137,-0.9137,-0.943,-0.992,-1.0019,-1.0113,-1.0413,-1.0413,-1.0314,-1.0117,-0.9859,-0.9601,-0.9384,-0.9253,-0.9183,-0.9442,-0.9507,-0.9632,-0.9861,-1.0193,-1.0299,-1.0402,-1.0606,-1.0684,-1.0664,-1.0668,-1.0668,-1.0716,-1.0724,-1.0729,-1.0708,-1.0708,-1.0692,-1.0692,-1.0692,-1.0692,-1.0643,-1.0446,-1.0373,-1.0473,-1.0359,-1.0359,-1.0526,-1.057,-1.0631,-1.0753,-1.0548,-1.0422,-1.0414,-0.9941,-0.9919,-1.0021,-1.0131,-1.1126,-1.3408,-1.3706,-1.4132,-0.4891,-0.4698,-0.4552,-0.4115,-0.3587,-0.3362,-0.325,-0.3137,-0.3141,-0.3142,-0.3138,-0.3111,-0.3071,-0.2916,-0.2967,-0.2915,-0.2868,-0.2738,-0.2841,-0.2868,-0.2761,-0.2881,-0.3117,-0.3112,-0.3125,-0.326,-0.3232,-0.3142,-0.3087,-0.2984,-0.2903,-0.2845,-0.2669,-0.2467,-0.2244,-0.2356,-0.2794,-0.3321,-0.3669,-0.3797,-0.3731,-0.4271,-0.4331,-0.3828,-0.3861,-0.3627,-0.3336,-0.3749,-0.4087,-0.4279,-0.522,-0.6152,-0.6937,-0.7451,-0.8024,-0.8726,-0.8825,-0.8829,-0.8931,-0.9031,-0.913,-0.9324,-0.9324,-0.9418,-0.9517,-0.9916,-1.0019,-0.9632,-0.9414,-0.9267,-0.91,-0.8881,-0.8915,-0.9133,-0.9161,-0.9272,-0.9489,-0.971,-0.9892,-0.9915,-1.0112,-1.0289,-1.0202,-1.0297,-1.0404,-1.0408,-1.0477,-1.0517,-1.0428,-1.0493,-1.055,-1.0554,-1.0554,-1.0505,-1.0424,-1.0233,-1.018,-1.0286,-1.0306,-1.0339,-1.0436,-1.0489,-1.0482,-1.0453,-1.0363,-1.0472,-1.068,-1.0798,-1.0343,-0.9537,-1.0562,-1.1664,-1.2271,-1.3131,-1.446,-0.5129,-0.5037,-0.4905,-0.4354,-0.3362,-0.3139,-0.3026,-0.2914,-0.2693,-0.2692,-0.2909,-0.2644,-0.262,-0.2602,-0.2525,-0.2484,-0.2471,-0.2449,-0.2455,-0.2485,-0.2463,-0.2594,-0.2864,-0.2794,-0.2905,-0.3292,-0.3259,-0.3049,-0.2769,-0.2675,-0.2596,-0.253,-0.2451,-0.2354,-0.2242,-0.2689,-0.336,-0.4242,-0.4649,-0.4643,-0.4577,-0.4888,-0.483,-0.4325,-0.3876,-0.3454,-0.296,-0.34,-0.3852,-0.4142,-0.4878,-0.5796,-0.6881,-0.7267,-0.7726,-0.8531,-0.8627,-0.863,-0.8726,-0.8825,-0.8825,-0.8825,-0.8825,-0.8825,-0.8825,-0.9324,-0.9624,-0.9149,-0.9041,-0.8889,-0.888,-0.8796,-0.8733,-0.8906,-0.8937,-0.903,-0.9223,-0.9325,-0.9374,-0.9437,-0.9724,-0.9781,-0.9781,-0.9851,-1.0072,-1.01,-1.029,-1.0302,-1.0209,-1.029,-1.0355,-1.0327,-1.0233,-1.0216,-1.018,-1.0012,-0.9995,-1.0099,-1.0156,-1.0104,-1.0168,-1.0309,-1.0517,-1.0413,-1.0446,-1.0646,-1.1194,-1.167,-1.1328,-1.0401,-1.1242,-1.2001,-1.1159,-1.2318,-1.3976,-0.3758,-0.3687,-0.3534,-0.3099,-0.2805,-0.2806,-0.258,-0.2356,-0.2244,-0.2689,-0.3349,-0.2863,-0.2602,-0.2561,-0.2515,-0.2474,-0.2441,-0.2468,-0.2487,-0.2496,-0.2528,-0.255,-0.2561,-0.2548,-0.2868,-0.3201,-0.3301,-0.309,-0.2675,-0.2166,-0.1981,-0.2346,-0.3023,-0.347,-0.358,-0.447,-0.5139,-0.5246,-0.6046,-0.6253,-0.5814,-0.6551,-0.6037,-0.4131,-0.492,-0.4412,-0.261,-0.2511,-0.3008,-0.4012,-0.4806,-0.5712,-0.6714,-0.7528,-0.7939,-0.8038,-0.8038,-0.8137,-0.8432,-0.863,-0.8726,-0.8825,-0.8726,-0.8726,-0.8726,-0.8825,-0.8924,-0.8733,-0.8546,-0.8592,-0.8866,-0.8713,-0.8632,-0.8882,-0.8923,-0.8882,-0.8879,-0.9054,-0.9205,-0.8937,-0.9242,-0.9448,-0.9406,-0.9495,-0.9619,-0.9792,-0.9943,-1.0164,-1.0223,-1.0252,-1.0323,-1.0121,-1.0063,-1.0152,-1.0111,-0.9899,-0.9717,-0.9904,-0.9803,-0.975,-0.9662,-0.9713,-0.9816,-1.0497,-1.0565,-1.0783,-1.1636,-1.2202,-1.2293,-1.2192,-1.2214,-1.1973,-1.1138,-1.1594,-1.2768,-0.3009,-0.3027,-0.2896,-0.2787,-0.2692,-0.2468,-0.2356,-0.2244,-0.2019,-0.2565,-0.3305,-0.2494,-0.2493,-0.3177,-0.3123,-0.2768,-0.2118,-0.2005,-0.2015,-0.2032,-0.2028,-0.2154,-0.2301,-0.2257,-0.2476,-0.2851,-0.2938,-0.2612,-0.2197,-0.1882,-0.2227,-0.3022,-0.3469,-0.3914,-0.4582,-0.5137,-0.5669,-0.6267,-0.6551,-0.6862,-0.7197,-0.703,-0.6531,-0.5732,-0.5031,-0.4305,-0.3479,-0.3206,-0.331,-0.3773,-0.4499,-0.5427,-0.6534,-0.6836,-0.7338,-0.7939,-0.8038,-0.7942,-0.7942,-0.8038,-0.8035,-0.7832,-0.7832,-0.7832,-0.7832,-0.7832,-0.7832,-0.7932,-0.8233,-0.8428,-0.8543,-0.8536,-0.8574,-0.8757,-0.8804,-0.8777,-0.8723,-0.8735,-0.8727,-0.8591,-0.877,-0.8936,-0.8856,-0.8932,-0.903,-0.9248,-0.9411,-0.9764,-1.018,-1.0535,-1.0918,-1.1264,-1.1477,-1.102,-1.0243,-0.9589,-0.9438,-0.9442,-0.9369,-0.9326,-0.9252,-0.9385,-0.9676,-1.0556,-1.0539,-1.0953,-1.1925,-1.2373,-1.2645,-1.3341,-1.2404,-1.1181,-1.0613,-1.0782,-1.1429,-0.2693,-0.2693,-0.2917,-0.2805,-0.2468,-0.2579,-0.2578,-0.2466,-0.2019,-0.2555,-0.371,-0.2694,-0.2708,-0.3408,-0.3145,-0.259,-0.1842,-0.1722,-0.1723,-0.1736,-0.1722,-0.1849,-0.2108,-0.2066,-0.218,-0.2343,-0.2328,-0.2106,-0.1793,-0.1795,-0.2241,-0.3023,-0.3692,-0.4462,-0.5328,-0.5879,-0.6598,-0.7243,-0.7226,-0.7535,-0.8057,-0.7507,-0.703,-0.6628,-0.5307,-0.4468,-0.4217,-0.397,-0.3973,-0.4311,-0.4879,-0.5715,-0.6685,-0.6688,-0.6985,-0.7677,-0.7779,-0.7697,-0.7537,-0.7441,-0.7441,-0.7235,-0.7235,-0.7235,-0.7235,-0.7235,-0.7235,-0.7235,-0.7736,-0.8109,-0.8309,-0.8421,-0.856,-0.8737,-0.8743,-0.8699,-0.8645,-0.8516,-0.8367,-0.8235,-0.8407,-0.847,-0.8368,-0.8542,-0.8748,-0.9157,-0.9438,-0.9782,-1.0555,-1.1123,-1.1548,-1.2078,-1.2355,-1.1873,-1.06,-1.0031,-0.9723,-0.9446,-0.9426,-0.8974,-0.9008,-0.9229,-0.9796,-1.0707,-1.0689,-1.1221,-1.2274,-1.2633,-1.2602,-1.4149,-1.3044,-1.0505,-1.0335,-1.0343,-1.0355,-0.2693,-0.2805,-0.3583,-0.3025,-0.1907,-0.3024,-0.3469,-0.3246,-0.2354,-0.3107,-0.4691,-0.3808,-0.3458,-0.3414,-0.2419,-0.1787,-0.1709,-0.1845,-0.1843,-0.1826,-0.1843,-0.1858,-0.1861,-0.1858,-0.1874,-0.1905,-0.1904,-0.1903,-0.1795,-0.1795,-0.1795,-0.2018,-0.4137,-0.521,-0.5475,-0.7317,-0.8431,-0.8286,-0.8153,-0.817,-0.8248,-0.8012,-0.7437,-0.6625,-0.623,-0.5589,-0.4793,-0.4604,-0.4994,-0.6058,-0.6168,-0.6781,-0.7557,-0.7547,-0.7362,-0.7155,-0.7152,-0.7205,-0.7217,-0.7238,-0.7235,-0.7135,-0.7135,-0.7135,-0.7135,-0.7135,-0.7135,-0.7138,-0.7238,-0.7541,-0.7978,-0.8233,-0.857,-0.8702,-0.8767,-0.8638,-0.8506,-0.8367,-0.8221,-0.8099,-0.8069,-0.8065,-0.8041,-0.8237,-0.892,-0.9612,-1.0122,-1.0721,-1.16,-1.1898,-1.2088,-1.2181,-1.2262,-1.2068,-1.2052,-1.0979,-1.04,-1.0023,-0.9347,-0.8759,-0.8939,-0.9236,-1.0044,-1.0847,-1.0992,-1.1495,-1.2541,-1.2854,-1.2687,-1.2786,-1.1644,-1.0128,-1.0197,-1.018,-1.0193,-0.3248,-0.3248,-0.2801,-0.2242,-0.2018,-0.3023,-0.3135,-0.2465,-0.2799,-0.3306,-0.3769,-0.29,-0.2766,-0.3346,-0.2186,-0.2109,-0.2812,-0.2862,-0.2986,-0.2967,-0.2846,-0.2526,-0.1887,-0.176,-0.1765,-0.1791,-0.1795,-0.1795,-0.1795,-0.1795,-0.2241,-0.3135,-0.4582,-0.5649,-0.6446,-0.784,-0.8594,-0.8367,-0.8292,-0.8225,-0.8133,-0.8069,-0.7839,-0.7434,-0.6691,-0.61,-0.5666,-0.5699,-0.5811,-0.596,-0.6726,-0.7217,-0.7372,-0.7365,-0.7267,-0.7165,-0.7165,-0.7087,-0.6933,-0.6942,-0.6842,-0.6739,-0.6736,-0.6736,-0.6736,-0.6637,-0.6736,-0.6739,-0.6839,-0.7131,-0.7464,-0.7827,-0.8176,-0.8259,-0.8357,-0.8421,-0.8336,-0.8214,-0.8099,-0.8052,-0.8038,-0.8038,-0.8134,-0.8623,-0.9312,-0.9702,-1.0395,-1.1375,-1.2155,-1.2549,-1.284,-1.3528,-1.3817,-1.3913,-1.3811,-1.1658,-1.0199,-0.9809,-0.9225,-0.8638,-0.8432,-0.863,-0.924,-1.013,-1.0587,-1.0886,-1.1511,-1.1339,-1.143,-1.1002,-0.9793,-0.9932,-1.0111,-1.0099,-1.0107,-0.358,-0.347,-0.2688,-0.213,-0.1907,-0.3135,-0.3135,-0.2464,-0.2783,-0.317,-0.3095,-0.2224,-0.2092,-0.2578,-0.1967,-0.2311,-0.3331,-0.3185,-0.299,-0.2973,-0.2955,-0.2527,-0.1884,-0.1759,-0.1765,-0.1791,-0.1795,-0.1795,-0.1795,-0.1795,-0.2241,-0.3024,-0.4582,-0.563,-0.6398,-0.7773,-0.8492,-0.8252,-0.8197,-0.8143,-0.8048,-0.8038,-0.8038,-0.7839,-0.7238,-0.6718,-0.6564,-0.6663,-0.6586,-0.6337,-0.6997,-0.7322,-0.7081,-0.6935,-0.6932,-0.6872,-0.6874,-0.6799,-0.6734,-0.6642,-0.6642,-0.6437,-0.6437,-0.6437,-0.6437,-0.6437,-0.6437,-0.6437,-0.6539,-0.6785,-0.6946,-0.7277,-0.7616,-0.7885,-0.8193,-0.8272,-0.8262,-0.8136,-0.8055,-0.8041,-0.8038,-0.8038,-0.8137,-0.9019,-0.9604,-1.0002,-1.0974,-1.2047,-1.3022,-1.3414,-1.3709,-1.4394,-1.4592,-1.4496,-1.4196,-1.2441,-1.1365,-1.0881,-0.9612,-0.8726,-0.8333,-0.8432,-0.8528,-0.9312,-0.9805,-1.001,-1.0015,-0.9821,-0.9727,-0.9636,-0.9677,-0.9782,-0.9941,-1.0137,-1.0046,-0.358,-0.358,-0.358,-0.2688,-0.2019,-0.3135,-0.358,-0.3232,-0.2422,-0.2599,-0.3076,-0.2199,-0.1753,-0.1731,-0.1749,-0.2283,-0.2924,-0.2364,-0.2058,-0.2143,-0.2165,-0.2072,-0.1752,-0.1748,-0.1763,-0.1794,-0.1795,-0.1795,-0.2018,-0.2018,-0.2131,-0.2465,-0.4472,-0.5503,-0.5108,-0.7337,-0.8353,-0.8136,-0.8075,-0.8052,-0.8038,-0.8038,-0.7932,-0.7925,-0.7637,-0.741,-0.7136,-0.727,-0.7106,-0.681,-0.7003,-0.7072,-0.6784,-0.6585,-0.6449,-0.6377,-0.6385,-0.6331,-0.642,-0.6437,-0.6437,-0.6437,-0.6437,-0.6437,-0.6437,-0.6437,-0.6437,-0.6437,-0.6437,-0.6445,-0.645,-0.6759,-0.7143,-0.7878,-0.8107,-0.8245,-0.8225,-0.813,-0.8038,-0.8038,-0.8038,-0.8038,-0.8233,-0.9114,-1.0096,-1.1077,-1.2047,-1.2926,-1.3607,-1.3811,-1.41,-1.41,-1.3908,-1.3613,-1.3613,-1.3318,-1.2829,-1.2242,-1.0489,-0.9312,-0.9118,-0.9023,-0.8627,-0.9217,-0.9513,-0.9719,-0.9821,-0.9624,-0.9624,-0.9636,-0.9681,-0.965,-0.9807,-0.9923,-0.9998,-0.28,-0.347,-0.2689,-0.213,-0.2019,-0.3135,-0.3116,-0.2533,-0.2734,-0.2686,-0.2309,-0.1874,-0.1645,-0.1623,-0.1627,-0.1834,-0.2143,-0.188,-0.2329,-0.3187,-0.3917,-0.3213,-0.1959,-0.1729,-0.1745,-0.1787,-0.1795,-0.2354,-0.3249,-0.3136,-0.3358,-0.4472,-0.581,-0.6409,-0.6268,-0.7678,-0.8377,-0.8214,-0.8089,-0.8038,-0.8038,-0.8038,-0.7895,-0.7713,-0.7592,-0.7312,-0.6774,-0.7055,-0.7104,-0.6693,-0.6848,-0.6822,-0.6578,-0.6446,-0.6344,-0.6377,-0.6382,-0.6393,-0.6426,-0.6437,-0.6437,-0.6437,-0.6437,-0.6437,-0.6437,-0.6437,-0.6437,-0.6437,-0.6437,-0.6437,-0.6437,-0.6642,-0.6989,-0.7459,-0.7633,-0.7922,-0.822,-0.8172,-0.8045,-0.8038,-0.8038,-0.8333,-0.9118,-0.9998,-1.1072,-1.1955,-1.3022,-1.3703,-1.3318,-1.3221,-1.2829,-1.2344,-1.2247,-1.2441,-1.2441,-1.2344,-1.215,-1.1755,-1.0587,-0.9608,-0.9509,-0.9118,-0.8825,-0.8825,-0.9122,-0.9422,-0.9525,-0.9628,-0.9628,-0.9628,-0.9549,-0.9585,-0.9674,-0.982,-1.0096,-0.4077,-0.4648,-0.3086,-0.2429,-0.2439,-0.2866,-0.2513,-0.1948,-0.2472,-0.2435,-0.1769,-0.165,-0.1839,-0.2124,-0.2221,-0.2422,-0.2726,-0.2451,-0.2786,-0.3548,-0.3674,-0.2884,-0.1757,-0.2183,-0.2737,-0.3122,-0.3135,-0.3692,-0.4585,-0.4472,-0.4693,-0.5475,-0.6482,-0.6979,-0.697,-0.7918,-0.8414,-0.8272,-0.8119,-0.8038,-0.8038,-0.8038,-0.7799,-0.7628,-0.7448,-0.7104,-0.6707,-0.6775,-0.6686,-0.658,-0.6575,-0.6537,-0.6437,-0.6434,-0.6437,-0.6437,-0.6437,-0.6437,-0.6437,-0.6437,-0.6437,-0.6437,-0.6437,-0.6437,-0.6437,-0.6437,-0.6437,-0.6437,-0.6437,-0.6437,-0.6437,-0.6539,-0.6742,-0.7042,-0.735,-0.7842,-0.8432,-0.9023,-0.9217,-0.9312,-0.9312,-0.9509,-1.0194,-1.1072,-1.1755,-1.2339,-1.3022,-1.3312,-1.2533,-1.2139,-1.1658,-1.1365,-1.1463,-1.156,-1.1365,-1.1268,-1.1268,-1.0881,-1.0391,-0.9805,-0.9608,-0.8726,-0.8233,-0.8432,-0.873,-0.8928,-0.913,-0.9438,-0.964,-0.9537,-0.9537,-0.9862,-1.0116,-1.0502,-1.0799,-0.6648,-0.6516,-0.4395,-0.3451,-0.3378,-0.2585,-0.2031,-0.1804,-0.1782,-0.1871,-0.1859,-0.1734,-0.2226,-0.3029,-0.3029,-0.3432,-0.434,-0.3927,-0.3446,-0.3277,-0.2714,-0.2044,-0.2317,-0.2995,-0.3899,-0.4912,-0.5139,-0.5361,-0.5586,-0.5475,-0.5584,-0.5917,-0.6922,-0.721,-0.7428,-0.804,-0.8452,-0.8336,-0.8157,-0.8069,-0.8065,-0.8041,-0.7822,-0.7608,-0.7324,-0.7003,-0.6715,-0.6421,-0.6277,-0.6265,-0.6377,-0.6437,-0.6437,-0.6437,-0.6437,-0.6437,-0.6437,-0.6437,-0.6437,-0.6437,-0.6437,-0.6437,-0.6437,-0.6437,-0.6437,-0.6437,-0.6437,-0.6437,-0.6437,-0.6437,-0.6437,-0.6437,-0.6639,-0.6942,-0.764,-0.8333,-0.9509,-1.0489,-1.0681,-1.0877,-1.117,-1.1072,-1.0979,-1.1755,-1.1653,-1.1755,-1.2047,-1.2047,-1.1458,-1.1072,-1.1077,-1.0783,-1.0391,-1.0293,-0.9998,-0.9998,-0.9998,-0.9805,-0.9612,-0.9509,-0.941,-0.8627,-0.8038,-0.8233,-0.8432,-0.8531,-0.8829,-0.9236,-0.9438,-0.9339,-0.9573,-1.0141,-1.0314,-1.0505,-1.0945,-0.5469,-0.5443,-0.4884,-0.4561,-0.4358,-0.3798,-0.3312,-0.2825,-0.1977,-0.2265,-0.285,-0.2024,-0.234,-0.3181,-0.3245,-0.3474,-0.4142,-0.4894,-0.5016,-0.4798,-0.4479,-0.4541,-0.4541,-0.3984,-0.4249,-0.5359,-0.5584,-0.5808,-0.6591,-0.6594,-0.7035,-0.7928,-0.8152,-0.8364,-0.8417,-0.8501,-0.8642,-0.8564,-0.833,-0.8204,-0.8187,-0.8089,-0.7783,-0.7296,-0.7242,-0.6893,-0.6407,-0.6308,-0.623,-0.6271,-0.6377,-0.6437,-0.6431,-0.6434,-0.6437,-0.6437,-0.6437,-0.6437,-0.6437,-0.6437,-0.6437,-0.6437,-0.6448,-0.6437,-0.6437,-0.6437,-0.6437,-0.6437,-0.6437,-0.6437,-0.6437,-0.6437,-0.6933,-0.812,-0.852,-0.9213,-1.0386,-1.0974,-1.117,-1.117,-1.0587,-1.0583,-1.0974,-1.0877,-1.0779,-1.1072,-1.1268,-1.1175,-1.0391,-0.9998,-1.0002,-0.9118,-0.8726,-0.8722,-0.8722,-0.8726,-0.8726,-0.863,-0.863,-0.8924,-0.8825,-0.8627,-0.8333,-0.8336,-0.8333,-0.8432,-0.863,-0.8931,-0.9031,-0.9038,-0.8947,-0.908,-0.9438,-0.971,-1.0423,-0.6292,-0.6391,-0.5819,-0.551,-0.5218,-0.445,-0.3655,-0.2983,-0.2462,-0.2854,-0.3639,-0.3255,-0.3589,-0.4648,-0.4743,-0.5099,-0.5705,-0.6344,-0.654,-0.6362,-0.5719,-0.5679,-0.5815,-0.5088,-0.5365,-0.6366,-0.6478,-0.6813,-0.7374,-0.7598,-0.8152,-0.8488,-0.8826,-0.8937,-0.8813,-0.8682,-0.8497,-0.8441,-0.8112,-0.7962,-0.8051,-0.7918,-0.7614,-0.7223,-0.7146,-0.6834,-0.6158,-0.6127,-0.617,-0.6173,-0.6304,-0.6418,-0.6374,-0.6415,-0.6437,-0.6437,-0.6437,-0.6437,-0.6437,-0.6437,-0.6437,-0.645,-0.6472,-0.648,-0.6464,-0.6475,-0.6505,-0.6442,-0.6439,-0.6437,-0.6437,-0.6539,-0.7332,-0.8414,-0.9011,-0.9706,-1.1077,-1.117,-1.117,-1.1072,-1.0681,-1.0386,-1.117,-1.0583,-1.0386,-1.0485,-1.0489,-0.9903,-0.9217,-0.9023,-0.8825,-0.8333,-0.8038,-0.8233,-0.8333,-0.8333,-0.8333,-0.8137,-0.8137,-0.8432,-0.8432,-0.8428,-0.8333,-0.8237,-0.8233,-0.8233,-0.8432,-0.8531,-0.8432,-0.8333,-0.8124,-0.8127,-0.8678,-0.9449,-1.005,-0.8029,-0.8054,-0.6905,-0.6318,-0.5889,-0.4583,-0.3861,-0.3233,-0.3236,-0.3836,-0.4645,-0.4816,-0.5259,-0.6735,-0.6373,-0.7194,-0.7973,-0.7488,-0.7504,-0.715,-0.6516,-0.6088,-0.6127,-0.6048,-0.6566,-0.7593,-0.7934,-0.7934,-0.7934,-0.8263,-0.8374,-0.8488,-0.8712,-0.8716,-0.8699,-0.8375,-0.8314,-0.8161,-0.7836,-0.7704,-0.7763,-0.7639,-0.7431,-0.7201,-0.7058,-0.664,-0.6114,-0.6015,-0.6015,-0.589,-0.6225,-0.6342,-0.6295,-0.6377,-0.6431,-0.6437,-0.6437,-0.6437,-0.6437,-0.6537,-0.6648,-0.6773,-0.6963,-0.6777,-0.6911,-0.6952,-0.6859,-0.6445,-0.6437,-0.6437,-0.6437,-0.6642,-0.7431,-0.8513,-0.9011,-0.9604,-1.0681,-1.1072,-1.117,-1.117,-1.117,-1.0974,-1.0974,-1.0877,-1.0489,-0.941,-0.9414,-0.9118,-0.863,-0.8432,-0.8333,-0.8137,-0.8038,-0.8038,-0.8038,-0.8038,-0.8038,-0.8038,-0.8038,-0.8137,-0.8137,-0.8137,-0.8038,-0.8038,-0.8137,-0.8137,-0.8137,-0.8137,-0.8038,-0.8035,-0.8031,-0.8014,-0.8212,-0.9191,-1.0029,-0.762,-0.7018,-0.6788,-0.6285,-0.5796,-0.5156,-0.5112,-0.5562,-0.556,-0.5854,-0.6458,-0.5773,-0.587,-0.6736,-0.6799,-0.6846,-0.7186,-0.7479,-0.7616,-0.7009,-0.6896,-0.6635,-0.643,-0.6261,-0.6832,-0.7668,-0.7931,-0.7934,-0.8039,-0.8039,-0.8156,-0.8156,-0.8269,-0.8159,-0.8149,-0.8125,-0.8112,-0.7956,-0.7733,-0.7596,-0.7528,-0.7354,-0.7238,-0.7217,-0.6822,-0.6496,-0.6139,-0.5977,-0.5979,-0.6068,-0.6272,-0.6368,-0.6377,-0.6363,-0.6426,-0.6437,-0.6437,-0.6437,-0.6537,-0.7135,-0.7675,-0.7769,-0.8323,-0.894,-0.8004,-0.7824,-0.7376,-0.6768,-0.6437,-0.6537,-0.6537,-0.6742,-0.7434,-0.8319,-0.8326,-0.8531,-0.9706,-1.0685,-1.0974,-1.0877,-1.0386,-0.9899,-0.9903,-0.9213,-0.8825,-0.8432,-0.8333,-0.8233,-0.8137,-0.8038,-0.8038,-0.8038,-0.8038,-0.8038,-0.8038,-0.8038,-0.8038,-0.8038,-0.8038,-0.8038,-0.8038,-0.8038,-0.8038,-0.8038,-0.8038,-0.8038,-0.8038,-0.8038,-0.8038,-0.8038,-0.8038,-0.8028,-0.823,-0.918,-0.9498,-0.6736,-0.5842,-0.5787,-0.5616,-0.522,-0.4808,-0.5295,-0.6282,-0.638,-0.6667,-0.6968,-0.6398,-0.65,-0.7021,-0.7122,-0.7098,-0.714,-0.7336,-0.7205,-0.6839,-0.6655,-0.6666,-0.6627,-0.6529,-0.6762,-0.7414,-0.7489,-0.7512,-0.7526,-0.7683,-0.7826,-0.7826,-0.7934,-0.8048,-0.7934,-0.7823,-0.7781,-0.7698,-0.7437,-0.7305,-0.7321,-0.7155,-0.7138,-0.7111,-0.6849,-0.655,-0.6542,-0.6366,-0.6344,-0.633,-0.6459,-0.6513,-0.6579,-0.6586,-0.6671,-0.6728,-0.6736,-0.6739,-0.6836,-0.754,-0.7989,-0.7626,-0.8611,-0.8398,-0.7885,-0.7589,-0.7325,-0.6788,-0.683,-0.7229,-0.7332,-0.7039,-0.7534,-0.7935,-0.8035,-0.8137,-0.8825,-0.941,-0.9702,-0.9604,-0.9118,-0.8924,-0.8528,-0.8233,-0.8137,-0.8237,-0.8237,-0.8137,-0.8137,-0.8038,-0.8038,-0.8038,-0.8038,-0.8038,-0.8038,-0.8038,-0.8038,-0.8038,-0.8038,-0.8038,-0.8038,-0.8038,-0.8038,-0.8038,-0.8038,-0.8038,-0.8038,-0.8038,-0.8038,-0.8038,-0.8038,-0.8038,-0.8144,-0.856,-0.8763,-0.5553,-0.4596,-0.4561,-0.4499,-0.432,-0.4117,-0.473,-0.5763,-0.6271,-0.6559,-0.6762,-0.6966,-0.71,-0.7467,-0.7556,-0.7611,-0.7476,-0.7173,-0.6763,-0.665,-0.6486,-0.6505,-0.6465,-0.6503,-0.6548,-0.6755,-0.6998,-0.7061,-0.7125,-0.7298,-0.7459,-0.7595,-0.7715,-0.7823,-0.7823,-0.7709,-0.7456,-0.7362,-0.7099,-0.6876,-0.6978,-0.6836,-0.6845,-0.7015,-0.6905,-0.6828,-0.6873,-0.6813,-0.6755,-0.6734,-0.6746,-0.6821,-0.6932,-0.6972,-0.7085,-0.7105,-0.7117,-0.7138,-0.7338,-0.7846,-0.8006,-0.7138,-0.8079,-0.8115,-0.7452,-0.7249,-0.7076,-0.6952,-0.7059,-0.763,-0.8031,-0.7637,-0.7341,-0.7643,-0.7842,-0.7942,-0.8038,-0.8038,-0.8233,-0.8233,-0.8333,-0.8333,-0.8233,-0.8038,-0.8038,-0.8038,-0.8038,-0.8038,-0.8038,-0.8038,-0.8038,-0.8038,-0.8038,-0.8038,-0.8038,-0.8038,-0.8038,-0.8038,-0.8038,-0.8038,-0.8038,-0.8038,-0.8038,-0.8038,-0.8038,-0.8038,-0.8038,-0.8038,-0.8038,-0.8038,-0.8038,-0.8038,-0.8038,-0.8038,-0.8038,-0.4413,-0.3422,-0.3378,-0.2909,-0.2364,-0.3448,-0.3973,-0.4024,-0.5734,-0.6545,-0.6748,-0.6871,-0.7044,-0.7425,-0.7458,-0.7376,-0.7141,-0.6749,-0.6586,-0.6483,-0.6445,-0.6467,-0.6478,-0.6491,-0.6497,-0.6551,-0.6706,-0.6858,-0.6956,-0.7119,-0.7191,-0.7249,-0.7379,-0.7376,-0.7376,-0.7265,-0.7243,-0.7149,-0.6893,-0.6782,-0.6788,-0.665,-0.6639,-0.6933,-0.6926,-0.7064,-0.7115,-0.6991,-0.6852,-0.6945,-0.7025,-0.7179,-0.7335,-0.7164,-0.7058,-0.7119,-0.7192,-0.7437,-0.7836,-0.8247,-0.8884,-0.9282,-0.9511,-0.9177,-0.8448,-0.8098,-0.7464,-0.7015,-0.6894,-0.7042,-0.7042,-0.7441,-0.7543,-0.7643,-0.7839,-0.8038,-0.8038,-0.8038,-0.8038,-0.8038,-0.8038,-0.8038,-0.8038,-0.8038,-0.8038,-0.8038,-0.8038,-0.8038,-0.8038,-0.8038,-0.8038,-0.8038,-0.8038,-0.8038,-0.8038,-0.8038,-0.8038,-0.8038,-0.8038,-0.8038,-0.8038,-0.8038,-0.8038,-0.8038,-0.8038,-0.8038,-0.8038,-0.8038,-0.8038,-0.8038,-0.8038,-0.8038,-0.8038,-0.8038,-0.8038,-0.3738,-0.2378,-0.2284,-0.2011,-0.1836,-0.2705,-0.3809,-0.4965,-0.5864,-0.6388,-0.6526,-0.6645,-0.667,-0.6923,-0.6931,-0.683,-0.6709,-0.6575,-0.6437,-0.6437,-0.6437,-0.6437,-0.6437,-0.6437,-0.6437,-0.6467,-0.6567,-0.6725,-0.6883,-0.6961,-0.7043,-0.713,-0.7154,-0.7154,-0.7154,-0.7265,-0.7084,-0.6989,-0.6864,-0.6736,-0.6632,-0.6483,-0.655,-0.6822,-0.6988,-0.7245,-0.7315,-0.7398,-0.7393,-0.7429,-0.7409,-0.7503,-0.7547,-0.7541,-0.7466,-0.7534,-0.7601,-0.7637,-0.7955,-0.8199,-0.8663,-0.8334,-0.8952,-0.8821,-0.8126,-0.7657,-0.7638,-0.7461,-0.692,-0.7141,-0.7836,-0.7643,-0.7643,-0.7842,-0.7939,-0.7939,-0.8038,-0.8038,-0.8038,-0.8038,-0.8038,-0.8038,-0.8038,-0.8038,-0.8038,-0.8038,-0.8038,-0.8038,-0.8038,-0.8038,-0.8038,-0.8038,-0.8038,-0.8038,-0.8038,-0.8038,-0.8038,-0.8038,-0.8038,-0.8038,-0.8038,-0.8038,-0.8038,-0.8038,-0.8038,-0.8038,-0.8038,-0.8038,-0.8038,-0.8038,-0.8038,-0.8038,-0.8038,-0.8038,-0.8038,-0.3186,-0.1483,-0.15,-0.1606,-0.1895,-0.2461,-0.4129,-0.5974,-0.6158,-0.6317,-0.6423,-0.6412,-0.6412,-0.6434,-0.6542,-0.6542,-0.6534,-0.6537,-0.6539,-0.6539,-0.6437,-0.6437,-0.6437,-0.6437,-0.6437,-0.6439,-0.6456,-0.6567,-0.679,-0.6893,-0.7016,-0.7119,-0.7154,-0.7154,-0.7154,-0.7119,-0.6989,-0.6896,-0.6771,-0.6643,-0.6491,-0.6437,-0.6539,-0.6745,-0.7042,-0.7244,-0.7466,-0.7543,-0.7573,-0.7527,-0.7571,-0.759,-0.758,-0.7777,-0.7909,-0.7915,-0.7939,-0.7739,-0.7869,-0.7965,-0.8203,-0.7731,-0.7971,-0.7726,-0.7422,-0.7271,-0.7252,-0.7648,-0.7412,-0.7241,-0.8038,-0.7939,-0.7842,-0.7939,-0.7939,-0.8038,-0.8038,-0.8038,-0.8038,-0.8038,-0.8038,-0.8038,-0.8038,-0.8038,-0.8038,-0.8038,-0.8038,-0.8038,-0.8038,-0.8038,-0.8038,-0.8038,-0.8038,-0.8038,-0.8038,-0.8038,-0.8038,-0.8038,-0.8038,-0.8038,-0.8038,-0.8038,-0.8038,-0.7939,-0.8038,-0.8038,-0.8038,-0.8038,-0.8038,-0.8038,-0.8038,-0.8038,-0.8038,-0.8038,-0.8038,-0.2501,-0.1478,-0.1456,-0.1916,-0.278,-0.3338,-0.4549,-0.6055,-0.6165,-0.6236,-0.6415,-0.6347,-0.6358,-0.642,-0.6639,-0.6839,-0.6939,-0.6839,-0.6742,-0.6642,-0.6539,-0.6437,-0.6437,-0.6437,-0.6437,-0.6437,-0.6437,-0.6578,-0.6749,-0.682,-0.695,-0.7108,-0.7143,-0.7149,-0.7122,-0.7065,-0.6994,-0.6921,-0.6744,-0.6573,-0.6464,-0.6437,-0.6539,-0.6742,-0.6862,-0.7098,-0.737,-0.7378,-0.7322,-0.7322,-0.7505,-0.7527,-0.7553,-0.7835,-0.7803,-0.7839,-0.7842,-0.8137,-0.8268,-0.7994,-0.7833,-0.766,-0.7678,-0.7242,-0.7136,-0.7014,-0.6936,-0.69,-0.7048,-0.7341,-0.7839,-0.7939,-0.7939,-0.7939,-0.8038,-0.8038,-0.8038,-0.8038,-0.8038,-0.8038,-0.8038,-0.8038,-0.8038,-0.8038,-0.8038,-0.8038,-0.8038,-0.8038,-0.8038,-0.8038,-0.7942,-0.7942,-0.7942,-0.7942,-0.7839,-0.7839,-0.7939,-0.7939,-0.7939,-0.7939,-0.7939,-0.7939,-0.7942,-0.7942,-0.7939,-0.7939,-0.7942,-0.7942,-0.7939,-0.8038,-0.8038,-0.8038,-0.8038,-0.8038,-0.8038,-0.2296,-0.1454,-0.189,-0.2342,-0.2995,-0.3901,-0.5018,-0.6034,-0.6119,-0.6179,-0.6328,-0.6366,-0.6492,-0.6628,-0.6939,-0.7138,-0.7138,-0.6942,-0.6845,-0.6745,-0.6539,-0.6437,-0.6437,-0.6437,-0.6437,-0.6437,-0.6464,-0.6573,-0.6714,-0.6766,-0.6844,-0.7103,-0.7092,-0.7054,-0.7054,-0.701,-0.6899,-0.6768,-0.6611,-0.6497,-0.645,-0.6437,-0.6437,-0.6542,-0.6807,-0.6972,-0.71,-0.7298,-0.7298,-0.7409,-0.7456,-0.7363,-0.7447,-0.7456,-0.7437,-0.7437,-0.7441,-0.7578,-0.7664,-0.7476,-0.7494,-0.7529,-0.732,-0.7183,-0.7027,-0.6953,-0.6886,-0.6975,-0.7184,-0.745,-0.7643,-0.7842,-0.7939,-0.8038,-0.8038,-0.8038,-0.8038,-0.8038,-0.8038,-0.8038,-0.8038,-0.8038,-0.8038,-0.8038,-0.8038,-0.8038,-0.8038,-0.7939,-0.7939,-0.8038,-0.7842,-0.7746,-0.7846,-0.7849,-0.7643,-0.754,-0.764,-0.7739,-0.7743,-0.7743,-0.7942,-0.7942,-0.7842,-0.7842,-0.7743,-0.7743,-0.7846,-0.7942,-0.7939,-0.8038,-0.8038,-0.8038,-0.8038,-0.8038,-0.8038,-0.2815,-0.2151,-0.2419,-0.2776,-0.3401,-0.4383,-0.5208,-0.6037,-0.604,-0.6105,-0.6324,-0.6527,-0.6685,-0.7006,-0.722,-0.7341,-0.7441,-0.7042,-0.6942,-0.6842,-0.6639,-0.6437,-0.6437,-0.6437,-0.6437,-0.6439,-0.6488,-0.6611,-0.6711,-0.676,-0.6842,-0.7097,-0.7035,-0.6975,-0.6937,-0.688,-0.6774,-0.6594,-0.6499,-0.6448,-0.6437,-0.6437,-0.6415,-0.6437,-0.6704,-0.6899,-0.6924,-0.6981,-0.7132,-0.7246,-0.7169,-0.7175,-0.7217,-0.7275,-0.7241,-0.7138,-0.7141,-0.7101,-0.7214,-0.7131,-0.7048,-0.7045,-0.7127,-0.713,-0.6987,-0.7027,-0.7109,-0.7169,-0.7459,-0.7691,-0.7762,-0.7972,-0.7979,-0.8065,-0.8038,-0.8038,-0.7942,-0.7952,-0.7949,-0.8038,-0.8038,-0.8038,-0.8038,-0.8038,-0.8038,-0.8038,-0.7939,-0.7939,-0.7939,-0.7839,-0.7739,-0.7543,-0.7646,-0.765,-0.7444,-0.7341,-0.7441,-0.7444,-0.7543,-0.7543,-0.7643,-0.7743,-0.7643,-0.7543,-0.7543,-0.754,-0.754,-0.7739,-0.8038,-0.8038,-0.8038,-0.8038,-0.8038,-0.7939,-0.7939,-0.4204,-0.402,-0.2953,-0.3312,-0.4561,-0.465,-0.5162,-0.5931,-0.5923,-0.6087,-0.6498,-0.6792,-0.7043,-0.7284,-0.7473,-0.7627,-0.7839,-0.7437,-0.7138,-0.6936,-0.6634,-0.6437,-0.6437,-0.6437,-0.6434,-0.6445,-0.6518,-0.6657,-0.6882,-0.7012,-0.6978,-0.6972,-0.7283,-0.7009,-0.6937,-0.7064,-0.6724,-0.648,-0.6418,-0.6418,-0.6418,-0.641,-0.638,-0.6333,-0.6399,-0.6499,-0.6603,-0.6639,-0.6686,-0.699,-0.6879,-0.6871,-0.6903,-0.6965,-0.6942,-0.6942,-0.6942,-0.6903,-0.7001,-0.7113,-0.71,-0.7057,-0.7099,-0.7318,-0.7151,-0.7285,-0.7391,-0.7519,-0.7743,-0.7847,-0.8029,-0.814,-0.815,-0.7989,-0.7865,-0.7895,-0.7892,-0.7882,-0.7875,-0.7949,-0.7952,-0.7872,-0.7839,-0.7739,-0.7939,-0.7939,-0.7839,-0.7839,-0.764,-0.764,-0.7441,-0.7344,-0.7444,-0.7444,-0.7241,-0.7138,-0.7138,-0.7241,-0.7344,-0.7341,-0.7341,-0.7341,-0.7344,-0.7341,-0.7241,-0.7238,-0.7238,-0.7537,-0.7739,-0.7939,-0.7939,-0.7942,-0.7942,-0.7942,-0.7842,-0.4521,-0.4914,-0.4467,-0.4469,-0.4919,-0.5191,-0.5615,-0.6079,-0.6182,-0.6343,-0.6643,-0.6913,-0.7178,-0.7405,-0.767,-0.7858,-0.7928,-0.7441,-0.7238,-0.7036,-0.6736,-0.6437,-0.6437,-0.6423,-0.6407,-0.6396,-0.6516,-0.7041,-0.7513,-0.7669,-0.8123,-0.8162,-0.7946,-0.8117,-0.802,-0.7495,-0.6931,-0.649,-0.6342,-0.6336,-0.6333,-0.6333,-0.6312,-0.6287,-0.6467,-0.6507,-0.6518,-0.6545,-0.6649,-0.669,-0.6655,-0.6712,-0.6805,-0.6868,-0.6845,-0.6845,-0.6845,-0.6974,-0.7027,-0.7144,-0.7134,-0.7305,-0.741,-0.7354,-0.7253,-0.7388,-0.7576,-0.7749,-0.7857,-0.7971,-0.8218,-0.8228,-0.8214,-0.7918,-0.7798,-0.774,-0.7772,-0.7769,-0.7769,-0.7778,-0.7655,-0.7544,-0.7494,-0.7441,-0.7739,-0.7942,-0.7842,-0.7643,-0.7441,-0.7341,-0.7241,-0.7042,-0.7144,-0.7042,-0.6839,-0.6836,-0.6736,-0.6939,-0.7042,-0.7042,-0.7042,-0.7045,-0.7045,-0.6942,-0.6942,-0.6942,-0.7039,-0.7338,-0.754,-0.7743,-0.7743,-0.7743,-0.7746,-0.7743,-0.7743,-0.543,-0.5897,-0.5808,-0.563,-0.5453,-0.5816,-0.6042,-0.6303,-0.635,-0.6599,-0.687,-0.706,-0.7201,-0.7469,-0.7697,-0.7858,-0.7861,-0.7512,-0.7332,-0.7036,-0.6836,-0.652,-0.641,-0.6401,-0.6388,-0.635,-0.6586,-0.7035,-0.7949,-0.8591,-0.9125,-0.9373,-0.9104,-0.8985,-0.8277,-0.7997,-0.714,-0.6611,-0.6331,-0.632,-0.6328,-0.6328,-0.6295,-0.6304,-0.6448,-0.6502,-0.648,-0.6606,-0.6705,-0.6938,-0.7079,-0.7,-0.7,-0.6995,-0.7045,-0.6939,-0.6942,-0.7042,-0.7175,-0.7265,-0.7297,-0.7509,-0.7583,-0.7541,-0.7476,-0.762,-0.7766,-0.7901,-0.7968,-0.8163,-0.825,-0.8243,-0.803,-0.776,-0.7693,-0.7616,-0.7586,-0.7607,-0.7607,-0.7607,-0.7483,-0.7473,-0.7428,-0.7471,-0.7384,-0.7572,-0.754,-0.7341,-0.7141,-0.7042,-0.6942,-0.6842,-0.6842,-0.6642,-0.6539,-0.6537,-0.6637,-0.6639,-0.6842,-0.6839,-0.6842,-0.6742,-0.6742,-0.6639,-0.6639,-0.6642,-0.6742,-0.6939,-0.7244,-0.765,-0.7547,-0.7441,-0.7441,-0.7441,-0.7437,-0.6969,-0.7051,-0.6792,-0.6612,-0.634,-0.634,-0.6349,-0.6471,-0.6656,-0.6813,-0.7011,-0.7262,-0.7475,-0.7578,-0.7791,-0.7914,-0.8,-0.7697,-0.7441,-0.7238,-0.6939,-0.658,-0.6671,-0.6682,-0.6886,-0.6451,-0.6882,-0.7579,-0.8428,-0.9542,-1.0278,-1.0414,-1.014,-0.935,-0.7971,-0.7035,-0.6616,-0.6586,-0.6461,-0.6504,-0.6586,-0.6674,-0.6819,-0.6804,-0.6988,-0.7051,-0.7114,-0.7247,-0.7443,-0.7585,-0.831,-0.8141,-0.745,-0.8141,-0.8021,-0.7238,-0.7238,-0.7338,-0.7553,-0.7474,-0.7483,-0.7589,-0.7657,-0.7682,-0.7722,-0.7827,-0.7919,-0.7941,-0.8094,-0.8117,-0.8107,-0.8059,-0.7836,-0.7685,-0.7513,-0.7431,-0.7401,-0.7434,-0.7326,-0.7326,-0.7434,-0.7527,-0.7485,-0.7416,-0.7283,-0.7214,-0.726,-0.7042,-0.6842,-0.6742,-0.6739,-0.6639,-0.6642,-0.6539,-0.6437,-0.6437,-0.6437,-0.6539,-0.6539,-0.6639,-0.6639,-0.6642,-0.6539,-0.6439,-0.6439,-0.6539,-0.6439,-0.6437,-0.6842,-0.7141,-0.7238,-0.7135,-0.7135,-0.7135,-0.7138,-0.7139,-0.7139,-0.7054,-0.6966,-0.6786,-0.652,-0.652,-0.6795,-0.7457,-0.7571,-0.7303,-0.7749,-0.8344,-0.8332,-0.8085,-0.8247,-0.8822,-0.7789,-0.754,-0.754,-0.7241,-0.7488,-0.7575,-0.773,-0.7799,-0.8305,-0.8442,-0.8853,-1.0263,-1.0919,-1.1376,-1.1507,-1.0655,-0.9534,-0.8635,-0.7898,-0.7297,-0.6707,-0.6973,-0.7381,-0.7391,-0.7882,-0.8254,-0.8297,-0.8343,-0.8375,-0.8311,-0.8576,-0.877,-0.8918,-0.9612,-0.9312,-0.8517,-0.8806,-0.8418,-0.7736,-0.7441,-0.754,-0.7547,-0.7403,-0.7468,-0.7576,-0.7629,-0.7672,-0.7629,-0.7644,-0.7793,-0.7843,-0.7867,-0.7877,-0.7867,-0.7874,-0.7748,-0.7461,-0.7326,-0.7292,-0.7243,-0.7138,-0.7138,-0.7138,-0.7248,-0.7194,-0.7146,-0.7217,-0.711,-0.6983,-0.6926,-0.6859,-0.6642,-0.6539,-0.6539,-0.6539,-0.6439,-0.6437,-0.6437,-0.6437,-0.6437,-0.6437,-0.6439,-0.6437,-0.6539,-0.6539,-0.6539,-0.6437,-0.6437,-0.6437,-0.6437,-0.6437,-0.6437,-0.6634,-0.6734,-0.6936,-0.6939,-0.6942,-0.6842,-0.7316,-0.7577,-0.7577,-0.7753,-0.7925,-0.7397,-0.7401,-0.7925,-0.8623,-0.8623,-0.8364,-0.8807,-0.9224,-0.9296,-0.9076,-0.9025,-0.9989,-0.9292,-0.8726,-0.8726,-0.8425,-0.8759,-0.8992,-0.9026,-0.9061,-0.9569,-0.9542,-0.9851,-1.1028,-1.1732,-1.2127,-1.2029,-1.1074,-1.0298,-0.963,-0.8809,-0.815,-0.7844,-0.8301,-0.8492,-0.8781,-0.9158,-0.9538,-0.9656,-0.971,-0.9743,-0.9896,-1.0147,-1.0353,-1.052,-1.0618,-1.0524,-0.9715,-0.93,-0.8814,-0.8134,-0.754,-0.7466,-0.7409,-0.7226,-0.7334,-0.7599,-0.7507,-0.7437,-0.7563,-0.7514,-0.7588,-0.7624,-0.7591,-0.7624,-0.7669,-0.768,-0.751,-0.7333,-0.7246,-0.7097,-0.7138,-0.7141,-0.7141,-0.7035,-0.7027,-0.6967,-0.6921,-0.6874,-0.6926,-0.6804,-0.6686,-0.6614,-0.6445,-0.6439,-0.6437,-0.6437,-0.6437,-0.6437,-0.6437,-0.6437,-0.6437,-0.6437,-0.6437,-0.6437,-0.6437,-0.6439,-0.6437,-0.6437,-0.6437,-0.6437,-0.6437,-0.6437,-0.6437,-0.6434,-0.6534,-0.6637,-0.6745,-0.6742,-0.6642,-0.7665,-0.8456,-0.8544,-0.9056,-0.9575,-0.8886,-0.9061,-0.9836,-0.9923,-0.9923,-0.9836,-0.9836,-1.0157,-1.0362,-1.0461,-1.0674,-1.0896,-1.0891,-1.0667,-1.0587,-1.0092,-1.0332,-1.0401,-1.0354,-1.0536,-1.0207,-1.0224,-1.0797,-1.1515,-1.2766,-1.3291,-1.2771,-1.1846,-1.1493,-1.0966,-1.024,-0.9442,-0.938,-0.9709,-0.9895,-1.0143,-1.0382,-1.0751,-1.0858,-1.0974,-1.0881,-1.0998,-1.1199,-1.1302,-1.1594,-1.2112,-1.1382,-1.0847,-1.0685,-0.9509,-0.8233,-0.7341,-0.7327,-0.7265,-0.7074,-0.7064,-0.727,-0.7327,-0.7416,-0.744,-0.7422,-0.7471,-0.7526,-0.7529,-0.7558,-0.7587,-0.7422,-0.7371,-0.7242,-0.713,-0.718,-0.723,-0.7243,-0.7243,-0.713,-0.7127,-0.7095,-0.7067,-0.7021,-0.6885,-0.6768,-0.6744,-0.6532,-0.6472,-0.6439,-0.6437,-0.6437,-0.6437,-0.6437,-0.6437,-0.6437,-0.6437,-0.6437,-0.6437,-0.6437,-0.6437,-0.6437,-0.6437,-0.6437,-0.6437,-0.6437,-0.6437,-0.6437,-0.6437,-0.6437,-0.6434,-0.6437,-0.6642,-0.6539,-0.6439,-0.8281,-0.854,-0.9231,-0.9662,-0.9927,-1.0279,-1.0274,-1.0009,-1.0539,-1.0534,-0.9923,-1.0621,-1.1014,-1.1237,-1.0822,-1.1213,-1.1437,-1.1433,-1.1142,-1.1072,-1.1272,-1.1567,-1.1734,-1.181,-1.2139,-1.2343,-1.2312,-1.2137,-1.2909,-1.4089,-1.4202,-1.3777,-1.2873,-1.2853,-1.2719,-1.2244,-1.1313,-1.0874,-1.1281,-1.1439,-1.1668,-1.2107,-1.2356,-1.2407,-1.2567,-1.2552,-1.2525,-1.2771,-1.275,-1.2932,-1.3116,-1.2494,-1.1605,-1.0886,-0.9608,-0.765,-0.7107,-0.7074,-0.6931,-0.6779,-0.6746,-0.678,-0.6838,-0.7046,-0.7097,-0.7309,-0.7323,-0.7357,-0.7379,-0.7382,-0.7382,-0.7346,-0.7318,-0.7207,-0.7095,-0.7116,-0.7154,-0.7154,-0.7154,-0.7154,-0.7154,-0.7152,-0.7135,-0.7051,-0.6918,-0.6812,-0.6698,-0.6575,-0.6488,-0.6453,-0.6437,-0.6437,-0.6437,-0.6437,-0.6437,-0.6437,-0.6437,-0.6437,-0.6437,-0.6437,-0.6437,-0.6437,-0.6437,-0.6437,-0.6437,-0.6437,-0.6437,-0.6437,-0.6437,-0.6437,-0.6437,-0.6437,-0.6437,-0.6437,-0.6437,-0.9235,-0.9671,-1.0188,-1.0621,-1.1058,-1.158,-1.1488,-1.1139,-1.158,-1.1488,-1.1133,-1.1574,-1.1978,-1.2209,-1.1928,-1.2145,-1.2858,-1.2691,-1.2422,-1.2533,-1.2145,-1.2761,-1.3154,-1.3165,-1.3386,-1.3723,-1.3771,-1.333,-1.3859,-1.4025,-1.4162,-1.4361,-1.3766,-1.3953,-1.3995,-1.3735,-1.3211,-1.2848,-1.2775,-1.3004,-1.3243,-1.3622,-1.382,-1.3922,-1.4027,-1.3945,-1.379,-1.3981,-1.386,-1.3722,-1.3699,-1.2834,-1.1452,-0.9958,-0.8814,-0.714,-0.6972,-0.6821,-0.6827,-0.6708,-0.66,-0.6616,-0.6681,-0.6858,-0.708,-0.7166,-0.7207,-0.7249,-0.726,-0.7265,-0.7154,-0.7154,-0.7152,-0.7152,-0.7152,-0.7152,-0.7154,-0.7154,-0.7154,-0.7154,-0.7154,-0.7154,-0.7114,-0.7035,-0.694,-0.6817,-0.6698,-0.6575,-0.6494,-0.6448,-0.6437,-0.6437,-0.6437,-0.6437,-0.6437,-0.6437,-0.6437,-0.6437,-0.6437,-0.6437,-0.6437,-0.6437,-0.6437,-0.6437,-0.6437,-0.6437,-0.6437,-0.6437,-0.6437,-0.6437,-0.6437,-0.6437,-0.6437,-0.6437,-0.6437,-1.0539,-1.1235,-1.1327,-1.1837,-1.2613,-1.2613,-1.2619,-1.2705,-1.2613,-1.2613,-1.2613,-1.2613,-1.2751,-1.275,-1.2697,-1.3021,-1.3407,-1.3397,-1.3483,-1.4166,-1.38,-1.3992,-1.4068,-1.4289,-1.4051,-1.4086,-1.4051,-1.3918,-1.3803,-1.412,-1.4491,-1.4763,-1.4664,-1.4688,-1.4637,-1.4781,-1.4579,-1.4412,-1.4293,-1.4259,-1.4225,-1.4319,-1.4317,-1.431,-1.428,-1.4256,-1.4195,-1.4187,-1.4103,-1.3814,-1.3274,-1.2314,-1.0302,-0.8718,-0.7576,-0.7006,-0.6802,-0.6722,-0.6654,-0.6657,-0.6687,-0.6763,-0.6902,-0.695,-0.7002,-0.7059,-0.7111,-0.7141,-0.7154,-0.7154,-0.7154,-0.7154,-0.7154,-0.7154,-0.7154,-0.7154,-0.7154,-0.7154,-0.7154,-0.7154,-0.7154,-0.7152,-0.7122,-0.7043,-0.6904,-0.6798,-0.6662,-0.654,-0.6497,-0.6445,-0.6437,-0.6437,-0.6437,-0.6437,-0.6437,-0.6437,-0.6437,-0.6437,-0.6437,-0.6437,-0.6437,-0.6437,-0.6437,-0.6437,-0.6437,-0.6437,-0.6437,-0.6437,-0.6437,-0.6437,-0.6437,-0.6437,-0.6437,-0.6437,-0.6437,-1.1063,-1.1408,-1.21,-1.2528,-1.2705,-1.2705,-1.2705,-1.2705,-1.2705,-1.2705,-1.2705,-1.2711,-1.2741,-1.2837,-1.3025,-1.323,-1.3357,-1.3676,-1.3906,-1.4075,-1.4177,-1.4383,-1.4502,-1.4326,-1.4344,-1.4392,-1.4362,-1.4308,-1.4427,-1.4666,-1.4934,-1.5255,-1.5297,-1.5175,-1.5258,-1.5497,-1.5437,-1.5431,-1.5368,-1.519,-1.4904,-1.4885,-1.489,-1.4684,-1.4588,-1.4249,-1.4175,-1.3941,-1.3215,-1.2422,-1.2011,-1.0618,-0.8722,-0.8069,-0.7384,-0.6698,-0.6575,-0.66,-0.6605,-0.6649,-0.6692,-0.673,-0.6828,-0.6931,-0.7013,-0.7076,-0.7116,-0.7141,-0.7154,-0.7154,-0.7154,-0.7154,-0.7154,-0.7154,-0.7154,-0.7154,-0.7154,-0.7154,-0.7154,-0.7154,-0.7154,-0.713,-0.71,-0.7002,-0.6877,-0.673,-0.657,-0.6467,-0.6467,-0.6437,-0.6437,-0.6437,-0.6437,-0.6437,-0.6437,-0.6437,-0.6437,-0.6437,-0.6437,-0.6437,-0.6437,-0.6437,-0.6437,-0.6437,-0.6437,-0.6437,-0.6437,-0.6437,-0.6437,-0.6437,-0.6437,-0.6437,-0.6437,-0.6437,-0.6437,-1.1929,-1.202,-1.2443,-1.2705,-1.2705,-1.2705,-1.2705,-1.2705,-1.2705,-1.2705,-1.2705,-1.2705,-1.2705,-1.2705,-1.2874,-1.3043,-1.3133,-1.3405,-1.3694,-1.39,-1.4063,-1.4262,-1.434,-1.4383,-1.4407,-1.4449,-1.4407,-1.4449,-1.4795,-1.4847,-1.5059,-1.5415,-1.5499,-1.5559,-1.5716,-1.5662,-1.5662,-1.5698,-1.5831,-1.5698,-1.5366,-1.5228,-1.4992,-1.4793,-1.4392,-1.4169,-1.3745,-1.3383,-1.2438,-1.1296,-1.0596,-0.9509,-0.8144,-0.7507,-0.7128,-0.6746,-0.6575,-0.6592,-0.6567,-0.6584,-0.6654,-0.669,-0.6714,-0.6806,-0.698,-0.7043,-0.7092,-0.7116,-0.7149,-0.7154,-0.7154,-0.7154,-0.7154,-0.7154,-0.7154,-0.7154,-0.7154,-0.7154,-0.7154,-0.7154,-0.7124,-0.7056,-0.6994,-0.6853,-0.6741,-0.6687,-0.6521,-0.6448,-0.6439,-0.6437,-0.6437,-0.6437,-0.6437,-0.6437,-0.6437,-0.6437,-0.6437,-0.6437,-0.6437,-0.6437,-0.6437,-0.6437,-0.6437,-0.6437,-0.6437,-0.6437,-0.6437,-0.6437,-0.6437,-0.6437,-0.6437,-0.6437,-0.6437,-0.6437,-0.6437,-1.2705,-1.2705,-1.2705,-1.2705,-1.2705,-1.2705,-1.2705,-1.2705,-1.2705,-1.2705,-1.2705,-1.2705,-1.2705,-1.2705,-1.2711,-1.2886,-1.3049,-1.32,-1.3465,-1.3737,-1.3894,-1.4135,-1.4274,-1.431,-1.4334,-1.4334,-1.4316,-1.4431,-1.471,-1.4757,-1.4986,-1.536,-1.5463,-1.5487,-1.5584,-1.5674,-1.5747,-1.5623,-1.5677,-1.5743,-1.5533,-1.5384,-1.5052,-1.4658,-1.4199,-1.3858,-1.3238,-1.2549,-1.1663,-1.0284,-0.9103,-0.8219,-0.7643,-0.7101,-0.6836,-0.6554,-0.6548,-0.6562,-0.6562,-0.6532,-0.6573,-0.6603,-0.6624,-0.6738,-0.6923,-0.6999,-0.7048,-0.7089,-0.7122,-0.7154,-0.7154,-0.7154,-0.7154,-0.7154,-0.7154,-0.7154,-0.7154,-0.7154,-0.7154,-0.7152,-0.7084,-0.701,-0.6899,-0.6755,-0.6654,-0.66,-0.654,-0.648,-0.6437,-0.6437,-0.6437,-0.6437,-0.6437,-0.6437,-0.6437,-0.6437,-0.6437,-0.6437,-0.6437,-0.6437,-0.6437,-0.6437,-0.6437,-0.6437,-0.6437,-0.6437,-0.6437,-0.6437,-0.6437,-0.6437,-0.6437,-0.6437,-0.6437,-0.6437,-0.6437,-1.2705,-1.2705,-1.2705,-1.2705,-1.2705,-1.2705,-1.2705,-1.2705,-1.2705,-1.2705,-1.2705,-1.2705,-1.2705,-1.2705,-1.2705,-1.2783,-1.2856,-1.3012,-1.3278,-1.3562,-1.3815,-1.4057,-1.4232,-1.4298,-1.4298,-1.4298,-1.4298,-1.434,-1.4473,-1.4636,-1.4853,-1.5161,-1.5197,-1.5372,-1.5734,-1.5759,-1.5575,-1.5475,-1.5411,-1.5358,-1.5007,-1.4888,-1.4945,-1.456,-1.4178,-1.3219,-1.2349,-1.1858,-1.048,-0.8909,-0.7624,-0.7033,-0.6748,-0.6667,-0.6488,-0.6502,-0.6499,-0.6497,-0.6488,-0.6518,-0.6559,-0.6616,-0.6671,-0.6782,-0.6902,-0.6937,-0.6986,-0.7032,-0.7076,-0.7143,-0.7154,-0.7154,-0.7154,-0.7154,-0.7154,-0.7154,-0.7154,-0.7154,-0.7154,-0.7119,-0.7062,-0.7002,-0.694,-0.6787,-0.6632,-0.6573,-0.6505,-0.645,-0.6437,-0.6437,-0.6437,-0.6437,-0.6437,-0.6437,-0.6437,-0.6437,-0.6437,-0.6437,-0.6437,-0.6437,-0.6437,-0.6437,-0.6437,-0.6437,-0.6437,-0.6437,-0.6437,-0.6437,-0.6437,-0.6437,-0.6437,-0.6437,-0.6437,-0.6437,-0.6437]},{"header":{"parameterUnit":"m.s-1","parameterCategory":1,"la1":31.0,"la2":29.5877,"lo1":-88.7671,"lo2":-86.6584,"dy":0.0162,"dx":0.0185,"nx":115,"ny":88,"refTime":"2023-08-07T00:00:00:Z","depth":0,"parameterNumber":3,"parameterNumberName":"V-component_of_WINDS"},"data":[0.0,0.0,0.0,0.0,0.0,0.0,0.0,0.0,0.0,0.0,0.0,0.0,0.0,0.0,0.0,0.0,0.0,0.0,0.0,0.0,0.0,0.0,0.0,0.0,0.0,0.0,0.0,0.0,0.0,0.0,0.0,0.0,0.0,0.0,0.0,0.0,0.0,0.0,0.0,0.0,0.0,0.0,0.0,0.0,0.0,0.0,0.0,0.0,0.0,0.0,0.0,0.0,0.0,0.0,0.0,0.0,0.0,0.0,0.0,0.0,0.0,0.0,0.0,0.0,0.0,0.0,0.0,0.0,0.0,0.0,0.0,0.0,0.0,0.0,0.0,0.0,0.0,0.0,0.0,0.0,0.0,0.0,0.0,0.0,0.0,0.0,0.0,0.0,0.0,0.0,0.0,0.0,0.0,0.0,0.0,0.0,0.0,0.0,0.0,0.0,0.0,0.0,0.0,0.0,0.0,0.0,0.0,0.0,0.0,0.0,0.0,0.0,0.0,0.0,0.0,0.0,0.0,0.0,0.0,0.0,0.0,0.0,0.0,0.0,0.0,0.0,0.0,0.0,0.0,0.0,0.0,0.0,0.0,0.0,0.0,0.0,0.0,0.0,0.0,0.0,0.0,0.0,0.0,0.0,0.0,0.0,0.0,0.0,0.0,0.0,0.0,0.0,0.0,0.0,0.0,0.0,0.0,0.0,0.0,0.0,0.0,0.0,0.0,0.0,0.0,0.0,0.0,0.0,0.0,0.0,0.0,0.0,0.0,0.0,0.0,0.0,0.0,0.0,0.0,0.0,0.0,0.0,0.0,0.0,0.0,0.0,0.0,0.0,0.0,0.0,0.0,0.0,0.0,0.0,0.0,0.0,0.0,0.0,0.0,0.0,0.0,0.0,0.0,0.0,0.0,0.0,0.0,0.0,0.0,0.0,0.0,0.0,0.0,0.0,0.0,0.0,0.0,0.0,0.0,0.0,0.0,0.0,0.0,0.0,0.0,0.0,0.0,0.0,0.0,0.0,0.0,0.0,0.0,0.0,0.0,0.0,0.0,0.0,0.0,0.0,0.0,0.0,0.0,0.0,0.0,0.0,0.0,0.0,0.0,0.0,0.0,0.0,0.0,0.0,0.0,0.0,0.0,0.0,0.0,0.0,0.0,0.0,0.0,0.0,0.0,0.0,0.0,0.0,0.0,0.0,0.0,0.0,0.0,0.0,0.0,0.0,0.0,0.0,0.0,0.0,0.0,0.0,0.0,0.0,0.0,0.0,0.0,0.0,0.0,0.0,0.0,0.0,0.0,0.0,0.0,0.0,0.0,0.0,0.0,0.0,0.0,0.0,0.0,0.0,0.0,0.0,0.0,0.0,0.0,0.0,0.0,0.0,0.0,0.0,0.0,0.0,0.0,0.0,0.0,0.0,0.0,0.0,0.0,0.0,0.0,0.0,0.0,0.0,0.0,0.0,0.0,0.0,0.0,0.0,0.0,0.0,0.0,0.0,0.0,0.0,0.0,0.0,0.0,0.0,0.0,0.0,0.0,0.0,0.0,0.0,0.0,0.0,0.0,0.0,0.0,0.0,0.0,0.0,0.0,0.0,0.0,0.0,0.0,0.0,0.0,0.0,0.0,0.0,0.0,0.0,0.0,0.0,0.0,0.0,0.0,0.0,0.0,0.0,0.0,0.0,0.0,0.0,0.0,0.0,0.0,0.0,0.0,0.0,0.0,0.0,0.0,0.0,0.0,0.0,0.0,0.0,0.0,0.0,0.0,0.0,0.0,0.0,0.0,0.0,0.0,0.0,0.0,0.0,0.0,0.0,0.0,0.0,0.0,0.0,0.0,0.0,0.0,0.0,0.0,0.0,0.0,0.0,0.0,0.0,0.0,0.0,0.0,0.0,0.0,0.0,0.0,0.0,0.0,0.0,0.0,0.0,0.0,0.0,0.0,0.0,0.0,0.0,0.0,0.0,0.0,0.0,0.0,0.0,0.0,0.0,0.0,0.0,0.0,0.0,0.0,0.0,0.0,0.0,0.0,0.0,0.0,0.0,0.0,0.0,0.0,0.0,0.0,0.0,0.0,0.0,0.0,0.0,0.0,0.0,0.0,0.0,0.0,0.0,0.0,0.0,0.0,0.0,0.0,0.0,0.0,0.0,0.0,0.0,0.0,0.0,0.0,0.0,0.0,0.0,0.0,0.0,0.0,0.0,0.0,0.0,0.0,0.0,0.0,0.0,0.0,0.0,0.0,0.0,0.0,0.0,0.0,0.0,0.0,0.0,0.0,0.0,0.0,0.0,0.0,0.0,0.0,0.0,0.0,0.0,0.0,0.0,0.0,0.0,0.0,0.0,0.0,0.0,0.0,0.0,0.0,0.0,0.0,0.0,0.0,0.0,0.0,0.0,0.0,0.0,0.0,0.0,0.0,0.0,0.0,0.0,0.0,0.0,0.0,0.0,0.0,0.0,0.0,0.0,0.0,0.0,0.0,0.0,0.0,0.0,0.0,0.0,0.0,0.0,0.0,0.0,0.0,0.0,0.0,0.0,0.0,0.0,0.0,0.0,0.0,0.0,0.0,0.0,0.0,0.0,0.0,0.0,0.0,0.0,0.0,0.0,0.0,0.0,0.0,0.0,0.0,0.0,0.0,0.0,0.0,0.0,0.0,0.0,0.0,0.0,0.0,0.0,0.0,0.0,0.0,0.0,0.0,0.0,0.0,0.0,0.0,0.0,0.0,0.0,0.0,0.0,0.0,0.0,0.0,0.0,0.0,0.0,0.0,0.0,0.0,0.0,0.0,0.0,0.0,0.0,0.0,0.0,0.0,0.0,0.0,0.0,0.0,0.0,0.0,0.0,0.0,0.0,0.0,0.0,0.0,0.0,0.0,0.0,0.0,0.0,0.0,0.0,0.0,0.0,0.0,0.0,0.0,0.0,0.0,0.0,0.0,0.0,0.0,0.0,0.0,0.0,0.0,0.0,0.0,0.0,0.0,0.0,0.0,0.0,0.0,0.0,0.0,0.0,0.0,0.0,0.0,0.0,0.0,0.0,0.0,0.0,0.0,0.0,0.0,0.0,0.0,0.0,0.0,0.0,0.0,0.0,0.0,0.0,0.0,0.0,0.0,0.0,0.0,0.0,0.0,0.0,0.0,0.0,0.0,0.0,0.0,0.0,0.0,0.0,0.0,0.0,0.0,0.0,0.0,0.0,0.0,0.0,0.0,0.0,0.0,0.0,0.0,0.0,0.0,0.0,0.0,0.0,0.0,0.0,0.0,0.0,0.0,0.0,0.0,0.0,0.0,0.0,0.0,0.0,0.0,0.0,0.0,0.0,0.0,0.0,0.0,0.0,0.0,0.0,0.0,0.0,0.0,0.0,0.0,0.0,0.0,0.0,0.0,0.0,0.0,0.0,0.0,0.0,0.0,0.0,0.0,0.0,0.0,0.0,0.0,0.0,0.0,0.0,0.0,0.0,0.0,0.0,0.0,0.0,0.0,0.0,0.0,0.0,0.0,0.0,0.0,0.0,0.0,0.0,0.0,0.0,0.0,0.0,0.0,0.0,0.0,0.0,0.0,0.0,0.0,0.0,0.0,0.0,0.0,0.0,0.0,0.0,0.0,0.0,0.0,0.0,0.0,0.0,0.0,0.0,0.0,0.0,0.0,0.0,0.0,0.0,0.0,0.0,0.0,0.0,0.0,0.0,0.0,0.0,0.0,0.0,0.0,0.0,0.0,0.0,0.0,0.0,0.0,0.0,0.0,0.0,0.0,0.0,0.0,0.0,0.0,0.0,0.0,0.0,0.0,0.0,0.0,0.0,0.0,0.0,0.0,0.0,0.0,0.0,0.0,0.0,0.0,0.0,0.0,0.0,0.0,0.0,0.0,0.0,0.0,0.0,0.0,0.0,0.0,0.0,0.0,0.0,0.0,0.0,0.0,0.0,0.0,0.0,0.0,0.0,0.0,0.0,0.0,0.0,0.0,0.0,0.0,0.0,0.0,0.0,0.0,0.0,0.0,0.0,0.0,0.0,0.0,0.0,0.0,0.0,0.0,0.0,0.0,0.0,0.0,0.0,0.0,0.0,0.0,0.0,0.0,0.0,0.0,0.0,0.0,0.0,0.0,0.0,0.0,0.0,0.0,0.0,0.0,0.0,0.0,0.0,0.0,0.0,0.0,0.0,0.0,0.0,0.0,0.0,0.0,0.0,0.0,0.0,0.0,0.0,0.0,0.0,0.0,0.0,0.0,0.0,0.0,0.0,0.0,0.0,0.0,0.0,-3.6509,0.0,0.0,0.0,0.0,0.0,0.0,0.0,0.0,0.0,0.0,0.0,0.0,0.0,0.0,0.0,0.0,0.0,0.0,0.0,0.0,0.0,0.0,0.0,0.0,0.0,0.0,0.0,0.0,0.0,0.0,0.0,0.0,0.0,0.0,0.0,0.0,0.0,0.0,0.0,0.0,0.0,0.0,0.0,0.0,0.0,0.0,0.0,0.0,0.0,0.0,0.0,0.0,0.0,0.0,0.0,0.0,0.0,0.0,0.0,0.0,0.0,0.0,0.0,0.0,0.0,0.0,0.0,0.0,0.0,0.0,0.0,0.0,0.0,0.0,0.0,0.0,0.0,0.0,0.0,0.0,0.0,0.0,0.0,0.0,0.0,0.0,0.0,0.0,0.0,0.0,0.0,0.0,0.0,0.0,0.0,0.0,0.0,0.0,0.0,0.0,0.0,0.0,0.0,0.0,0.0,0.0,0.0,0.0,0.0,0.0,-4.0119,-3.9718,-3.8877,-3.8035,-3.723,0.0,0.0,0.0,0.0,0.0,0.0,0.0,0.0,0.0,0.0,0.0,0.0,0.0,0.0,0.0,0.0,0.0,0.0,0.0,0.0,0.0,0.0,0.0,0.0,0.0,0.0,0.0,0.0,0.0,0.0,0.0,0.0,0.0,0.0,0.0,0.0,0.0,0.0,0.0,0.0,0.0,0.0,0.0,0.0,0.0,0.0,0.0,0.0,0.0,0.0,0.0,0.0,0.0,0.0,0.0,0.0,0.0,0.0,0.0,0.0,0.0,0.0,0.0,0.0,0.0,0.0,0.0,0.0,0.0,0.0,0.0,0.0,0.0,0.0,0.0,0.0,0.0,0.0,0.0,0.0,0.0,0.0,0.0,0.0,0.0,0.0,0.0,0.0,0.0,0.0,0.0,0.0,0.0,0.0,0.0,0.0,0.0,0.0,0.0,0.0,0.0,0.0,0.0,0.0,0.0,0.0,0.0,0.0,0.0,0.0,0.0,0.0,-3.947,-3.8532,-3.7515,0.0,0.0,0.0,0.0,0.0,0.0,0.0,0.0,0.0,0.0,0.0,0.0,0.0,0.0,0.0,0.0,0.0,0.0,0.0,0.0,0.0,0.0,0.0,0.0,0.0,0.0,0.0,0.0,0.0,0.0,0.0,0.0,0.0,0.0,0.0,0.0,0.0,0.0,0.0,0.0,0.0,0.0,0.0,0.0,0.0,0.0,0.0,0.0,0.0,0.0,0.0,0.0,0.0,0.0,0.0,0.0,0.0,0.0,0.0,0.0,0.0,0.0,0.0,0.0,0.0,0.0,0.0,0.0,0.0,0.0,0.0,0.0,0.0,0.0,0.0,0.0,0.0,0.0,0.0,0.0,0.0,0.0,0.0,0.0,0.0,0.0,0.0,0.0,0.0,0.0,0.0,0.0,0.0,0.0,0.0,0.0,0.0,0.0,0.0,0.0,0.0,0.0,0.0,0.0,0.0,0.0,0.0,0.0,0.0,0.0,-4.0329,-4.0291,-3.9451,0.0,-3.67,0.0,0.0,0.0,0.0,0.0,0.0,0.0,0.0,0.0,0.0,0.0,0.0,0.0,0.0,0.0,0.0,0.0,0.0,0.0,0.0,0.0,0.0,0.0,0.0,0.0,0.0,0.0,0.0,0.0,0.0,0.0,0.0,0.0,0.0,0.0,0.0,0.0,0.0,0.0,0.0,0.0,0.0,0.0,0.0,0.0,0.0,0.0,0.0,0.0,0.0,0.0,0.0,0.0,0.0,0.0,0.0,0.0,0.0,0.0,0.0,0.0,0.0,0.0,0.0,0.0,0.0,0.0,0.0,0.0,0.0,0.0,0.0,0.0,0.0,0.0,0.0,0.0,0.0,0.0,0.0,0.0,0.0,0.0,0.0,0.0,0.0,0.0,0.0,0.0,0.0,0.0,0.0,0.0,0.0,0.0,0.0,0.0,0.0,0.0,0.0,0.0,0.0,0.0,0.0,0.0,0.0,0.0,0.0,0.0,0.0,-4.0329,-4.0329,-3.8954,-3.7693,0.0,0.0,0.0,0.0,0.0,0.0,0.0,0.0,0.0,0.0,0.0,0.0,0.0,0.0,0.0,0.0,0.0,0.0,0.0,0.0,0.0,0.0,0.0,0.0,0.0,0.0,0.0,0.0,0.0,0.0,0.0,0.0,0.0,0.0,0.0,0.0,0.0,0.0,0.0,0.0,0.0,0.0,0.0,0.0,0.0,0.0,0.0,0.0,0.0,0.0,0.0,0.0,0.0,0.0,0.0,0.0,0.0,0.0,0.0,0.0,0.0,0.0,0.0,0.0,0.0,0.0,0.0,0.0,0.0,0.0,0.0,0.0,0.0,0.0,0.0,0.0,0.0,0.0,0.0,0.0,0.0,0.0,0.0,0.0,0.0,0.0,0.0,0.0,0.0,0.0,0.0,0.0,0.0,0.0,0.0,0.0,0.0,0.0,0.0,0.0,0.0,0.0,0.0,0.0,0.0,0.0,0.0,0.0,0.0,0.0,-3.9604,-3.991,-3.9814,-3.8459,-3.7295,-3.6457,0.0,0.0,0.0,0.0,0.0,0.0,0.0,0.0,0.0,0.0,0.0,0.0,0.0,0.0,0.0,0.0,0.0,0.0,0.0,0.0,0.0,0.0,0.0,0.0,0.0,0.0,0.0,0.0,0.0,0.0,0.0,0.0,0.0,0.0,0.0,0.0,0.0,0.0,0.0,0.0,0.0,0.0,0.0,0.0,0.0,0.0,0.0,0.0,0.0,0.0,0.0,0.0,0.0,0.0,0.0,0.0,0.0,0.0,0.0,0.0,0.0,0.0,0.0,0.0,0.0,0.0,0.0,0.0,0.0,0.0,0.0,0.0,0.0,0.0,0.0,0.0,0.0,0.0,0.0,0.0,0.0,0.0,0.0,0.0,0.0,0.0,0.0,0.0,0.0,0.0,0.0,0.0,0.0,0.0,0.0,0.0,0.0,0.0,0.0,0.0,0.0,0.0,0.0,0.0,0.0,0.0,0.0,0.0,-3.8897,-3.8975,-3.8918,-3.8842,-3.8042,-3.7186,0.0,0.0,0.0,0.0,0.0,0.0,0.0,0.0,0.0,0.0,0.0,0.0,0.0,0.0,0.0,0.0,0.0,0.0,0.0,0.0,0.0,0.0,0.0,0.0,0.0,0.0,0.0,0.0,0.0,0.0,0.0,0.0,0.0,0.0,0.0,0.0,0.0,0.0,0.0,0.0,0.0,0.0,0.0,0.0,0.0,0.0,0.0,0.0,0.0,0.0,0.0,0.0,0.0,0.0,0.0,0.0,0.0,0.0,0.0,0.0,0.0,0.0,0.0,0.0,0.0,0.0,0.0,0.0,0.0,0.0,0.0,0.0,0.0,0.0,0.0,0.0,0.0,0.0,0.0,0.0,0.0,0.0,0.0,0.0,0.0,0.0,0.0,0.0,0.0,0.0,0.0,0.0,0.0,0.0,0.0,0.0,0.0,0.0,0.0,0.0,0.0,0.0,0.0,0.0,0.0,0.0,0.0,0.0,0.0,-3.7315,-3.7794,-3.8042,-3.7946,-3.7186,-3.635,0.0,0.0,0.0,0.0,0.0,0.0,0.0,0.0,0.0,0.0,0.0,0.0,0.0,0.0,0.0,0.0,0.0,0.0,0.0,0.0,0.0,0.0,0.0,0.0,0.0,0.0,0.0,0.0,0.0,0.0,0.0,0.0,0.0,0.0,0.0,0.0,0.0,0.0,0.0,0.0,0.0,0.0,0.0,0.0,0.0,0.0,0.0,0.0,0.0,0.0,0.0,0.0,0.0,0.0,0.0,0.0,0.0,0.0,0.0,0.0,0.0,0.0,0.0,0.0,0.0,0.0,0.0,0.0,0.0,0.0,0.0,0.0,0.0,0.0,0.0,0.0,0.0,0.0,0.0,0.0,0.0,0.0,0.0,0.0,0.0,0.0,0.0,0.0,0.0,0.0,0.0,0.0,0.0,0.0,0.0,0.0,0.0,0.0,0.0,0.0,0.0,0.0,0.0,0.0,0.0,0.0,0.0,0.0,0.0,-3.6729,0.0,-3.7793,-3.7389,-3.6896,-3.6043,0.0,0.0,0.0,0.0,0.0,0.0,0.0,0.0,0.0,0.0,0.0,0.0,0.0,0.0,0.0,0.0,0.0,0.0,0.0,0.0,0.0,0.0,0.0,0.0,0.0,0.0,0.0,0.0,0.0,0.0,0.0,0.0,0.0,0.0,0.0,0.0,0.0,0.0,0.0,0.0,0.0,0.0,0.0,0.0,0.0,0.0,0.0,0.0,0.0,0.0,0.0,0.0,0.0,0.0,0.0,0.0,0.0,0.0,0.0,0.0,0.0,0.0,0.0,0.0,0.0,0.0,0.0,0.0,0.0,0.0,0.0,0.0,0.0,0.0,0.0,0.0,0.0,0.0,0.0,0.0,0.0,0.0,0.0,0.0,0.0,0.0,0.0,0.0,0.0,0.0,0.0,0.0,0.0,0.0,0.0,0.0,0.0,0.0,0.0,0.0,0.0,0.0,0.0,0.0,0.0,0.0,0.0,0.0,-3.5949,-3.7353,-3.8205,-3.8121,-3.725,-3.7134,-3.634,0.0,0.0,0.0,0.0,0.0,0.0,0.0,0.0,0.0,0.0,0.0,0.0,0.0,0.0,0.0,0.0,0.0,0.0,0.0,0.0,0.0,0.0,0.0,0.0,0.0,0.0,0.0,0.0,0.0,0.0,0.0,0.0,0.0,0.0,0.0,0.0,0.0,0.0,0.0,0.0,0.0,0.0,0.0,0.0,0.0,0.0,0.0,0.0,0.0,0.0,0.0,0.0,0.0,0.0,0.0,0.0,0.0,0.0,0.0,0.0,0.0,0.0,0.0,0.0,0.0,0.0,0.0,0.0,0.0,0.0,0.0,0.0,0.0,0.0,0.0,0.0,0.0,0.0,0.0,0.0,0.0,0.0,0.0,0.0,0.0,0.0,0.0,0.0,0.0,0.0,0.0,0.0,0.0,0.0,0.0,0.0,0.0,0.0,0.0,0.0,0.0,0.0,0.0,0.0,0.0,0.0,0.0,0.0,0.0,-3.7289,-3.7508,-3.7416,-3.6991,-3.6405,-3.5558,0.0,0.0,0.0,0.0,0.0,0.0,0.0,0.0,0.0,0.0,0.0,0.0,0.0,0.0,0.0,0.0,0.0,0.0,0.0,0.0,0.0,0.0,0.0,0.0,0.0,0.0,0.0,0.0,0.0,0.0,0.0,0.0,0.0,0.0,0.0,0.0,0.0,0.0,0.0,0.0,0.0,0.0,0.0,0.0,0.0,0.0,0.0,0.0,0.0,0.0,0.0,0.0,0.0,0.0,0.0,0.0,0.0,0.0,0.0,0.0,0.0,0.0,0.0,0.0,0.0,0.0,0.0,0.0,0.0,0.0,0.0,0.0,0.0,0.0,0.0,0.0,0.0,0.0,0.0,0.0,0.0,0.0,0.0,0.0,0.0,0.0,0.0,0.0,0.0,0.0,0.0,0.0,0.0,0.0,0.0,0.0,0.0,0.0,0.0,0.0,0.0,0.0,0.0,0.0,0.0,0.0,0.0,0.0,0.0,-3.7566,-3.7512,-3.7411,-3.7236,-3.641,-3.5547,-3.4742,0.0,0.0,0.0,0.0,0.0,0.0,0.0,0.0,0.0,0.0,0.0,0.0,0.0,0.0,0.0,0.0,0.0,0.0,0.0,0.0,0.0,0.0,0.0,0.0,0.0,0.0,0.0,0.0,0.0,0.0,0.0,0.0,0.0,0.0,0.0,0.0,0.0,0.0,0.0,0.0,0.0,0.0,0.0,0.0,0.0,0.0,0.0,0.0,0.0,0.0,0.0,0.0,0.0,0.0,0.0,0.0,0.0,0.0,0.0,0.0,0.0,0.0,0.0,0.0,0.0,0.0,0.0,0.0,0.0,0.0,0.0,0.0,0.0,0.0,0.0,0.0,0.0,0.0,0.0,0.0,0.0,0.0,0.0,0.0,0.0,0.0,0.0,0.0,0.0,0.0,0.0,0.0,0.0,0.0,0.0,0.0,0.0,0.0,0.0,0.0,0.0,0.0,0.0,0.0,0.0,0.0,0.0,0.0,-3.8059,-3.8089,-3.8029,-3.7776,-3.6962,-3.6186,0.0,0.0,0.0,0.0,0.0,0.0,0.0,0.0,0.0,0.0,0.0,0.0,0.0,0.0,0.0,0.0,0.0,0.0,0.0,0.0,0.0,0.0,0.0,0.0,0.0,0.0,0.0,0.0,0.0,0.0,0.0,0.0,0.0,0.0,0.0,0.0,0.0,0.0,0.0,0.0,0.0,0.0,0.0,0.0,0.0,0.0,0.0,0.0,0.0,0.0,0.0,0.0,0.0,0.0,0.0,0.0,0.0,0.0,0.0,0.0,0.0,0.0,0.0,0.0,0.0,0.0,0.0,0.0,0.0,0.0,0.0,0.0,0.0,0.0,0.0,0.0,0.0,0.0,0.0,0.0,0.0,0.0,0.0,0.0,0.0,0.0,0.0,0.0,0.0,0.0,0.0,0.0,0.0,0.0,0.0,0.0,0.0,0.0,0.0,0.0,0.0,0.0,0.0,0.0,0.0,0.0,0.0,0.0,0.0,-3.7729,-3.8282,-3.8261,-3.7671,-3.7374,-3.6619,0.0,0.0,0.0,0.0,0.0,0.0,0.0,0.0,0.0,0.0,0.0,0.0,0.0,0.0,0.0,0.0,0.0,0.0,0.0,0.0,0.0,0.0,0.0,0.0,0.0,0.0,0.0,0.0,0.0,0.0,0.0,0.0,0.0,0.0,0.0,0.0,0.0,0.0,0.0,0.0,0.0,0.0,0.0,0.0,0.0,0.0,0.0,0.0,0.0,0.0,0.0,0.0,0.0,0.0,0.0,0.0,0.0,0.0,0.0,0.0,0.0,0.0,0.0,0.0,0.0,0.0,0.0,0.0,0.0,0.0,0.0,0.0,0.0,0.0,0.0,0.0,0.0,0.0,0.0,0.0,0.0,0.0,0.0,0.0,0.0,0.0,0.0,0.0,0.0,0.0,0.0,0.0,0.0,0.0,0.0,0.0,0.0,0.0,0.0,0.0,0.0,0.0,0.0,0.0,0.0,0.0,0.0,0.0,-3.7259,-3.8163,-3.8523,-3.8499,-3.807,-3.7613,-3.6872,0.0,0.0,0.0,0.0,0.0,0.0,0.0,0.0,0.0,0.0,0.0,0.0,0.0,0.0,0.0,0.0,0.0,0.0,0.0,0.0,0.0,0.0,0.0,0.0,0.0,0.0,0.0,0.0,0.0,0.0,0.0,0.0,0.0,0.0,0.0,0.0,0.0,0.0,0.0,0.0,0.0,0.0,0.0,0.0,0.0,0.0,0.0,0.0,0.0,0.0,0.0,0.0,0.0,0.0,0.0,0.0,0.0,0.0,0.0,0.0,0.0,0.0,0.0,0.0,0.0,0.0,0.0,0.0,0.0,0.0,0.0,0.0,0.0,0.0,0.0,0.0,0.0,0.0,0.0,0.0,0.0,0.0,0.0,0.0,0.0,0.0,0.0,0.0,0.0,0.0,0.0,0.0,0.0,0.0,0.0,0.0,0.0,0.0,0.0,0.0,0.0,0.0,0.0,0.0,0.0,0.0,0.0,0.0,-3.7631,-3.9042,-3.8909,-3.8805,-3.8768,-3.7857,-3.7094,0.0,0.0,0.0,0.0,0.0,0.0,0.0,0.0,0.0,0.0,0.0,0.0,0.0,0.0,0.0,0.0,0.0,0.0,0.0,0.0,0.0,0.0,0.0,0.0,0.0,0.0,0.0,0.0,0.0,0.0,0.0,0.0,0.0,0.0,0.0,0.0,0.0,0.0,0.0,0.0,0.0,0.0,0.0,0.0,0.0,0.0,0.0,0.0,0.0,0.0,0.0,0.0,0.0,0.0,0.0,0.0,0.0,0.0,0.0,0.0,0.0,0.0,0.0,0.0,0.0,0.0,0.0,0.0,0.0,0.0,0.0,0.0,0.0,0.0,0.0,0.0,0.0,0.0,0.0,0.0,0.0,0.0,0.0,0.0,0.0,0.0,0.0,0.0,0.0,0.0,0.0,0.0,0.0,0.0,0.0,0.0,0.0,0.0,0.0,0.0,0.0,0.0,0.0,0.0,0.0,0.0,0.0,0.0,-3.8284,-3.9663,-3.963,-3.9566,-3.9566,-3.8711,-3.7979,0.0,0.0,0.0,0.0,0.0,0.0,0.0,0.0,0.0,0.0,0.0,0.0,0.0,0.0,0.0,0.0,0.0,0.0,0.0,0.0,0.0,0.0,0.0,0.0,0.0,0.0,0.0,0.0,0.0,0.0,0.0,0.0,0.0,0.0,0.0,0.0,0.0,0.0,0.0,0.0,0.0,0.0,0.0,0.0,0.0,0.0,0.0,0.0,-3.9264,0.0,0.0,0.0,0.0,0.0,0.0,0.0,0.0,0.0,0.0,0.0,0.0,0.0,0.0,0.0,0.0,0.0,0.0,0.0,0.0,0.0,0.0,0.0,0.0,0.0,0.0,0.0,0.0,0.0,0.0,0.0,0.0,0.0,0.0,0.0,0.0,0.0,0.0,0.0,0.0,0.0,0.0,0.0,0.0,0.0,0.0,0.0,0.0,0.0,0.0,0.0,0.0,0.0,0.0,0.0,0.0,0.0,0.0,0.0,-3.8514,-3.9915,-3.9533,-3.947,-3.9781,-3.903,-3.8345,0.0,0.0,0.0,0.0,0.0,0.0,0.0,0.0,0.0,0.0,0.0,0.0,0.0,0.0,0.0,0.0,0.0,0.0,0.0,0.0,0.0,0.0,0.0,0.0,0.0,0.0,0.0,0.0,0.0,0.0,0.0,0.0,0.0,0.0,0.0,0.0,0.0,0.0,0.0,0.0,0.0,0.0,0.0,0.0,0.0,0.0,0.0,0.0,0.0,0.0,0.0,0.0,0.0,0.0,0.0,0.0,0.0,0.0,0.0,0.0,0.0,0.0,0.0,0.0,0.0,0.0,0.0,0.0,0.0,0.0,0.0,0.0,0.0,0.0,0.0,0.0,0.0,0.0,0.0,0.0,0.0,0.0,0.0,0.0,0.0,0.0,0.0,0.0,0.0,0.0,0.0,0.0,0.0,0.0,0.0,0.0,0.0,0.0,0.0,0.0,0.0,0.0,0.0,0.0,0.0,0.0,0.0,-3.7588,-3.8598,-3.9785,-3.9369,-3.9362,-3.9958,-3.9283,-3.8722,-3.8275,0.0,0.0,0.0,0.0,0.0,0.0,0.0,0.0,0.0,0.0,0.0,0.0,0.0,0.0,0.0,0.0,0.0,0.0,0.0,0.0,0.0,0.0,0.0,0.0,0.0,0.0,0.0,0.0,0.0,0.0,0.0,0.0,0.0,0.0,0.0,0.0,0.0,0.0,-3.8937,-3.9602,0.0,0.0,0.0,0.0,0.0,0.0,0.0,0.0,-4.1701,0.0,0.0,0.0,0.0,0.0,0.0,0.0,0.0,0.0,0.0,0.0,0.0,0.0,0.0,0.0,0.0,0.0,0.0,0.0,0.0,0.0,0.0,0.0,0.0,0.0,0.0,0.0,0.0,0.0,0.0,0.0,0.0,0.0,0.0,0.0,0.0,0.0,0.0,0.0,0.0,0.0,0.0,0.0,0.0,0.0,0.0,0.0,0.0,0.0,0.0,0.0,0.0,0.0,0.0,0.0,0.0,-3.6826,-3.8063,-3.8807,-3.9024,-4.0115,-4.0541,-4.0251,-4.0034,-4.0095,-4.0265,0.0,0.0,0.0,0.0,0.0,0.0,0.0,0.0,0.0,0.0,0.0,0.0,0.0,0.0,0.0,0.0,0.0,0.0,0.0,0.0,0.0,0.0,0.0,0.0,0.0,0.0,0.0,0.0,0.0,0.0,0.0,0.0,0.0,0.0,0.0,0.0,0.0,0.0,0.0,-4.0062,-4.0136,0.0,0.0,0.0,0.0,0.0,0.0,0.0,0.0,-4.1338,0.0,0.0,0.0,0.0,0.0,0.0,0.0,0.0,0.0,0.0,0.0,0.0,0.0,0.0,0.0,0.0,0.0,0.0,0.0,0.0,0.0,0.0,0.0,0.0,0.0,0.0,0.0,0.0,0.0,0.0,0.0,0.0,0.0,0.0,0.0,0.0,0.0,0.0,0.0,0.0,0.0,0.0,0.0,0.0,0.0,0.0,0.0,0.0,0.0,0.0,0.0,0.0,0.0,0.0,0.0,-3.6907,-3.8192,-3.9113,-3.9441,-3.9724,-4.0204,-4.0847,-4.0047,-4.002,0.0,0.0,0.0,0.0,0.0,0.0,0.0,0.0,0.0,0.0,0.0,0.0,0.0,0.0,0.0,0.0,0.0,0.0,0.0,0.0,0.0,0.0,0.0,0.0,0.0,0.0,0.0,0.0,0.0,0.0,0.0,0.0,0.0,0.0,0.0,0.0,0.0,0.0,0.0,0.0,-4.1208,-4.1189,-4.193,0.0,0.0,0.0,0.0,0.0,0.0,-4.3699,-4.3296,0.0,0.0,0.0,0.0,0.0,0.0,0.0,0.0,0.0,0.0,0.0,0.0,0.0,0.0,0.0,0.0,0.0,0.0,0.0,0.0,0.0,0.0,0.0,0.0,0.0,0.0,0.0,0.0,0.0,0.0,0.0,0.0,0.0,0.0,0.0,0.0,0.0,0.0,0.0,0.0,0.0,0.0,0.0,0.0,0.0,0.0,0.0,0.0,0.0,0.0,0.0,0.0,0.0,0.0,0.0,-3.692,-3.822,-3.9132,-3.9575,-3.9185,-3.9669,-4.1163,-3.9993,-3.9813,0.0,0.0,0.0,0.0,0.0,0.0,0.0,0.0,0.0,0.0,0.0,0.0,0.0,0.0,0.0,0.0,0.0,0.0,0.0,0.0,0.0,0.0,0.0,0.0,0.0,0.0,0.0,0.0,0.0,0.0,0.0,0.0,0.0,0.0,0.0,0.0,0.0,0.0,0.0,0.0,0.0,-4.2297,-4.3395,-4.3126,0.0,0.0,0.0,0.0,-4.4682,-4.5062,0.0,0.0,0.0,0.0,0.0,0.0,0.0,0.0,0.0,0.0,0.0,0.0,0.0,0.0,0.0,0.0,0.0,0.0,0.0,0.0,0.0,0.0,0.0,0.0,0.0,0.0,0.0,0.0,0.0,0.0,0.0,0.0,0.0,0.0,0.0,0.0,0.0,0.0,0.0,0.0,0.0,0.0,0.0,0.0,0.0,0.0,0.0,0.0,0.0,0.0,0.0,0.0,0.0,0.0,0.0,0.0,-3.6939,-3.822,-3.8615,-3.8079,-3.9166,-3.9964,-4.0448,-4.0365,-4.0525,0.0,0.0,0.0,0.0,0.0,0.0,0.0,0.0,0.0,0.0,0.0,0.0,0.0,0.0,0.0,0.0,0.0,0.0,0.0,0.0,0.0,0.0,0.0,0.0,0.0,0.0,0.0,0.0,0.0,0.0,0.0,0.0,0.0,0.0,0.0,0.0,0.0,0.0,0.0,0.0,0.0,-4.2555,-4.273,-4.3126,-4.3372,0.0,0.0,-4.3886,-4.5718,-4.504,0.0,0.0,0.0,0.0,0.0,0.0,0.0,0.0,0.0,0.0,0.0,0.0,0.0,0.0,0.0,0.0,0.0,0.0,0.0,0.0,0.0,0.0,0.0,0.0,0.0,0.0,0.0,0.0,0.0,0.0,0.0,0.0,0.0,0.0,0.0,0.0,0.0,0.0,0.0,0.0,0.0,0.0,0.0,0.0,0.0,0.0,0.0,0.0,0.0,0.0,0.0,0.0,0.0,0.0,0.0,-3.6956,-3.6963,-3.8248,-3.9005,-3.9135,-3.97,-4.0374,-4.1139,-4.0809,-4.0553,0.0,0.0,0.0,0.0,0.0,0.0,0.0,0.0,0.0,0.0,0.0,0.0,0.0,0.0,0.0,0.0,0.0,0.0,0.0,0.0,0.0,0.0,0.0,0.0,0.0,0.0,0.0,0.0,0.0,0.0,0.0,0.0,0.0,0.0,0.0,0.0,0.0,0.0,0.0,0.0,0.0,0.0,-4.3809,-4.4846,0.0,0.0,0.0,-4.563,-4.6917,0.0,0.0,0.0,0.0,0.0,0.0,0.0,0.0,0.0,0.0,0.0,0.0,0.0,0.0,0.0,0.0,0.0,0.0,0.0,0.0,0.0,0.0,0.0,0.0,0.0,0.0,0.0,0.0,0.0,0.0,0.0,0.0,0.0,0.0,0.0,0.0,0.0,0.0,0.0,0.0,0.0,0.0,0.0,0.0,0.0,0.0,0.0,0.0,0.0,0.0,0.0,0.0,0.0,0.0,0.0,0.0,0.0,-3.7524,-3.8692,-3.9571,-4.0163,-4.0122,-4.0489,-4.1297,-4.0544,0.0,0.0,0.0,0.0,0.0,0.0,0.0,0.0,0.0,0.0,0.0,0.0,0.0,0.0,0.0,0.0,0.0,0.0,0.0,0.0,0.0,0.0,0.0,0.0,0.0,0.0,0.0,-3.5667,0.0,0.0,0.0,0.0,0.0,0.0,0.0,0.0,0.0,0.0,0.0,0.0,0.0,0.0,-4.4592,-4.5183,-4.6421,-4.6928,0.0,0.0,-4.709,-4.7723,-4.7295,-4.7108,0.0,0.0,0.0,0.0,0.0,0.0,0.0,0.0,0.0,0.0,0.0,0.0,0.0,0.0,0.0,0.0,0.0,0.0,0.0,0.0,0.0,0.0,0.0,0.0,0.0,0.0,0.0,0.0,0.0,0.0,0.0,0.0,0.0,0.0,0.0,0.0,0.0,0.0,0.0,0.0,0.0,0.0,0.0,0.0,0.0,0.0,0.0,0.0,0.0,0.0,0.0,0.0,0.0,0.0,0.0,-3.9104,-3.9779,-4.0137,-4.0182,-4.0122,-4.0129,-4.0178,-3.91,-3.8489,0.0,0.0,0.0,0.0,0.0,0.0,0.0,0.0,0.0,0.0,0.0,0.0,0.0,0.0,0.0,0.0,0.0,0.0,0.0,0.0,0.0,0.0,0.0,0.0,0.0,0.0,0.0,0.0,0.0,0.0,0.0,0.0,0.0,0.0,0.0,0.0,0.0,0.0,0.0,0.0,0.0,-4.5886,-4.6408,-4.7108,-4.7237,0.0,0.0,-4.754,-4.7765,-4.776,-4.7742,-4.7798,0.0,0.0,0.0,0.0,0.0,0.0,0.0,0.0,0.0,0.0,0.0,0.0,0.0,0.0,0.0,0.0,0.0,0.0,0.0,0.0,0.0,0.0,0.0,0.0,0.0,0.0,0.0,0.0,0.0,0.0,0.0,0.0,0.0,0.0,0.0,0.0,0.0,0.0,0.0,0.0,0.0,0.0,0.0,0.0,0.0,0.0,0.0,0.0,0.0,0.0,0.0,0.0,0.0,-3.771,-3.9272,-3.9426,-4.001,-4.1004,-4.0682,-4.0485,-4.0485,-3.9773,-3.8952,0.0,0.0,0.0,0.0,0.0,0.0,0.0,0.0,0.0,0.0,0.0,0.0,0.0,0.0,0.0,0.0,0.0,0.0,0.0,0.0,0.0,0.0,0.0,0.0,0.0,0.0,0.0,0.0,-3.5751,-3.5797,-3.6604,0.0,0.0,0.0,0.0,0.0,0.0,0.0,0.0,0.0,0.0,-4.5693,-4.6355,-4.7274,0.0,0.0,-4.7445,-4.8197,-4.8268,-4.8066,-4.81,-4.8651,-4.7442,0.0,0.0,0.0,0.0,0.0,0.0,0.0,0.0,0.0,0.0,0.0,0.0,0.0,0.0,0.0,0.0,0.0,0.0,0.0,0.0,0.0,0.0,0.0,0.0,0.0,0.0,0.0,0.0,0.0,0.0,0.0,0.0,0.0,0.0,0.0,0.0,0.0,0.0,0.0,0.0,0.0,0.0,0.0,0.0,0.0,0.0,0.0,0.0,0.0,0.0,0.0,0.0,-3.8203,-4.0072,-3.9741,-4.0244,-4.1611,-4.1095,-4.0641,-4.0384,-3.996,-3.9123,0.0,0.0,0.0,0.0,0.0,0.0,0.0,0.0,0.0,0.0,0.0,0.0,0.0,0.0,0.0,0.0,0.0,0.0,0.0,0.0,0.0,0.0,0.0,0.0,0.0,0.0,0.0,0.0,-3.6638,-3.7018,-3.846,0.0,0.0,0.0,0.0,0.0,0.0,0.0,0.0,0.0,0.0,-4.6313,-4.6932,-4.7739,-4.7972,-4.7189,-4.7902,-4.8605,-4.8678,-4.8494,-4.8557,-4.9196,0.0,0.0,0.0,0.0,0.0,0.0,0.0,0.0,0.0,0.0,0.0,0.0,0.0,0.0,0.0,0.0,0.0,0.0,0.0,0.0,0.0,0.0,0.0,0.0,0.0,0.0,0.0,0.0,0.0,0.0,0.0,0.0,0.0,0.0,0.0,0.0,0.0,0.0,0.0,0.0,0.0,0.0,0.0,0.0,0.0,0.0,0.0,0.0,0.0,0.0,0.0,0.0,0.0,-3.9364,-4.178,-4.095,-4.096,-4.1782,-4.1224,-4.0505,-3.9693,-3.9242,-3.8649,-3.7836,0.0,0.0,0.0,0.0,0.0,0.0,0.0,0.0,0.0,0.0,0.0,0.0,0.0,0.0,0.0,0.0,0.0,0.0,0.0,0.0,0.0,0.0,0.0,0.0,0.0,0.0,-3.784,-3.8212,-3.9104,0.0,0.0,0.0,0.0,0.0,0.0,0.0,0.0,0.0,0.0,-4.7065,-4.8124,-4.8292,-4.8458,-4.8421,-4.8017,-4.8267,-4.8606,-4.8839,-4.9061,-4.9193,0.0,0.0,0.0,0.0,0.0,0.0,0.0,0.0,0.0,0.0,0.0,0.0,0.0,0.0,0.0,0.0,0.0,0.0,0.0,0.0,0.0,0.0,0.0,0.0,0.0,0.0,0.0,-3.8595,-3.8049,0.0,0.0,0.0,0.0,0.0,0.0,0.0,0.0,0.0,0.0,0.0,-4.0778,-4.1111,0.0,0.0,0.0,0.0,0.0,0.0,0.0,0.0,0.0,0.0,0.0,0.0,-3.9471,-4.1777,-4.1052,-4.1259,-4.2539,-4.1642,-4.0959,-4.0637,-3.9744,-3.8882,-3.8112,0.0,0.0,0.0,0.0,0.0,0.0,0.0,0.0,0.0,0.0,0.0,0.0,0.0,0.0,0.0,0.0,0.0,0.0,0.0,0.0,0.0,0.0,0.0,0.0,0.0,-3.9487,0.0,0.0,0.0,0.0,0.0,0.0,0.0,0.0,0.0,0.0,0.0,-4.5293,-4.7154,-4.7572,-4.7909,-4.8512,-4.8383,-4.8172,0.0,0.0,0.0,0.0,0.0,0.0,0.0,0.0,0.0,0.0,0.0,0.0,0.0,0.0,-4.9805,-4.7542,-4.7174,-4.7341,-4.7899,0.0,0.0,0.0,0.0,0.0,0.0,0.0,0.0,0.0,0.0,0.0,0.0,0.0,0.0,0.0,0.0,-3.9667,0.0,0.0,0.0,0.0,0.0,0.0,0.0,0.0,-4.1057,-4.1857,-4.2547,-4.2836,-4.2994,0.0,-4.2762,-4.2065,0.0,0.0,0.0,0.0,0.0,0.0,0.0,0.0,-4.0352,-4.2396,-4.159,-4.1761,-4.2978,-4.1846,-4.122,-4.1245,-4.0111,-3.9236,-3.8698,-3.8396,-3.823,0.0,0.0,0.0,0.0,0.0,0.0,0.0,0.0,0.0,0.0,0.0,0.0,0.0,0.0,0.0,0.0,0.0,0.0,0.0,0.0,0.0,0.0,0.0,-4.061,0.0,0.0,0.0,0.0,0.0,0.0,0.0,0.0,0.0,-4.6296,-4.5819,-4.613,-4.7932,-4.8202,-4.8364,-4.8763,0.0,0.0,0.0,0.0,0.0,0.0,0.0,-4.9582,-4.9623,-4.9653,-4.9946,-5.0778,-5.1431,-5.1933,-5.2216,0.0,0.0,-4.9372,-4.9023,-4.923,-4.9769,-4.9825,-4.992,-5.0331,-5.0748,-5.0804,0.0,0.0,0.0,0.0,0.0,0.0,0.0,0.0,-4.3177,-4.2754,0.0,-4.1896,0.0,0.0,0.0,0.0,0.0,0.0,0.0,0.0,-4.3585,-4.4317,-4.3617,-4.4334,-4.4749,-4.4693,-4.3983,-4.3586,-4.3454,-4.1113,0.0,0.0,0.0,0.0,0.0,0.0,-4.194,-4.3397,-4.2605,-4.2547,-4.331,-4.2025,-4.1376,-4.1454,-4.032,-3.9702,-3.9674,-3.8866,-3.8391,-3.8391,-3.8354,0.0,0.0,0.0,0.0,0.0,0.0,0.0,0.0,0.0,0.0,0.0,0.0,0.0,0.0,0.0,0.0,0.0,0.0,0.0,0.0,-4.1263,0.0,0.0,0.0,0.0,0.0,0.0,0.0,0.0,0.0,0.0,-4.5108,-4.614,-4.7331,-4.8138,0.0,0.0,0.0,0.0,-4.9113,-4.8783,-4.9008,-4.9244,-4.9289,-4.9464,-4.9604,-4.9692,0.0,0.0,-5.0922,-5.1206,-5.1661,-5.2362,-5.2627,-5.256,-5.2399,-5.2247,-5.2273,-5.2384,-5.2334,-5.2422,-5.2351,-5.2243,-5.1956,-4.6717,0.0,0.0,0.0,0.0,-4.5897,-4.6014,-4.5819,-4.5611,-4.515,-4.4498,-4.377,0.0,0.0,0.0,0.0,0.0,0.0,-4.2512,-4.2905,-4.3623,-4.4065,-4.4391,-4.5274,-4.5696,-4.5677,-4.5502,-4.5433,-4.5338,-4.365,-4.2189,-4.1035,0.0,0.0,0.0,0.0,-4.2811,-4.371,-4.3453,-4.3715,-4.4502,-4.3685,-4.3115,-4.282,-4.1897,-4.138,-4.138,-4.0555,-4.0079,-4.0059,-3.9529,0.0,0.0,0.0,0.0,0.0,0.0,0.0,0.0,0.0,0.0,0.0,0.0,0.0,0.0,0.0,0.0,0.0,0.0,0.0,-4.1127,-4.2021,-4.3168,0.0,0.0,0.0,0.0,0.0,0.0,0.0,0.0,0.0,-4.7624,-4.7721,-4.8176,0.0,0.0,-4.9402,-4.9321,-4.9321,-4.9352,-4.9352,0.0,0.0,0.0,-4.9634,-4.9711,-4.975,-5.079,-5.1717,-5.1973,-5.3035,-5.3984,-5.4211,-5.4306,-5.4362,-5.4313,-5.3381,-5.2677,-5.2684,-5.3098,-5.3518,-5.3525,-5.347,-5.3101,-4.9683,-4.8683,-4.7856,-4.7336,-4.7159,-4.775,-4.7715,-4.726,-4.7332,-4.7005,-4.6433,-4.5709,-4.4947,-4.4129,-4.3438,0.0,0.0,0.0,-4.3695,-4.4369,-4.4712,-4.5262,-4.6039,-4.6576,-4.6847,-4.6847,-4.6892,-4.6915,-4.6896,-4.605,-4.5343,-4.4709,0.0,0.0,-4.3455,-4.3398,-4.3787,-4.4499,-4.4478,-4.4666,-4.5104,-4.4518,-4.3933,-4.3349,-4.2873,-4.2643,-4.2643,-4.1798,-4.1352,-4.1352,-4.0548,-3.9956,0.0,0.0,0.0,0.0,0.0,0.0,0.0,0.0,0.0,0.0,0.0,-4.4617,-4.4207,0.0,0.0,0.0,-4.1645,-4.123,-4.1343,-4.284,0.0,0.0,0.0,0.0,0.0,0.0,0.0,-4.8666,-4.9351,-4.9636,-4.9145,-4.8909,-4.898,-4.9506,-4.9544,-4.9506,-4.9525,0.0,-4.9555,-4.9634,-4.9663,-4.9692,-4.9721,-4.9778,-4.9807,-4.989,-5.1016,-5.2096,-5.2484,-5.366,-5.4638,-5.4962,-5.5113,-5.4939,-5.4325,-5.3632,-5.327,-5.3258,-5.3379,-5.3499,-5.3505,-5.372,-5.3571,-5.2302,-5.2337,-5.1485,-5.0638,-4.9862,-4.9943,-4.9389,-4.8458,-4.8643,-4.8517,-4.8188,-4.7564,-4.6829,-4.5944,-4.4363,0.0,-4.3434,-4.4199,-4.4922,-4.562,-4.645,-4.7239,-4.7988,-4.8065,-4.8103,-4.8103,-4.8103,-4.8161,-4.8219,-4.8137,-4.8172,-4.8202,-4.5117,-4.3867,-4.4508,-4.4488,-4.4804,-4.5505,-4.5451,-4.5398,-4.5342,-4.4816,-4.4181,-4.346,-4.3488,-4.351,-4.3491,-4.2597,-4.2101,-4.2082,-4.1315,-4.0519,-3.9772,0.0,0.0,0.0,0.0,0.0,0.0,0.0,0.0,0.0,0.0,0.0,0.0,0.0,0.0,0.0,-4.1294,0.0,-4.2149,-4.3788,0.0,0.0,0.0,-4.8813,-4.8804,-4.9568,-4.9792,-4.8996,0.0,0.0,-4.9825,0.0,-4.9721,-4.9721,-4.9721,-4.9711,-4.9692,-4.9721,-4.974,-4.9702,-4.9778,-4.9788,-4.9816,-4.9871,-4.9933,-5.0024,-5.0783,-5.1722,-5.2479,-5.3484,-5.4284,-5.4988,-5.5157,-5.4745,-5.3124,-5.3493,-5.3977,-5.3773,-5.3282,-5.2805,-5.2673,-5.3162,-5.3194,-5.3635,-5.4308,-5.4723,-5.401,-5.264,-5.2647,-5.2158,-5.1276,-5.0699,-5.006,-4.934,-4.8593,-4.8157,-4.7908,-4.7552,-4.6934,-4.6176,-4.6336,-4.6461,-4.6508,-4.6719,-4.7257,-4.8099,-4.8698,-4.9004,-4.9059,-4.9004,-4.9333,-4.9893,-4.88,-4.8589,-4.9161,-4.7934,-4.7035,-4.6493,-4.5905,-4.5628,-4.5742,-4.5717,-4.5698,-4.5678,-4.5681,-4.5609,-4.5425,-4.4199,-4.3586,-4.3547,-4.211,-4.1295,-4.1276,-4.1043,-4.083,-4.0673,-4.0671,0.0,0.0,0.0,0.0,0.0,0.0,0.0,0.0,0.0,-4.2884,-4.3231,0.0,-4.2119,0.0,-4.2607,-4.3119,-4.3928,-4.5563,0.0,0.0,-4.9654,-5.058,-5.0673,-5.1437,-5.1642,-5.0862,-5.0859,-5.0692,-5.0028,-4.9898,-4.9843,-4.9843,-4.9807,-4.9778,-4.9759,-4.9816,-4.9843,-4.9871,-4.9898,-4.9952,-4.9933,-5.0005,-5.0057,-5.0082,-5.13,-5.2372,-5.2563,-5.3872,-5.4947,-5.5138,-5.5267,-5.4919,-5.3926,-5.3448,-5.2875,-5.2403,-5.2485,-5.2585,-5.1997,-5.2054,-5.203,-5.3291,-5.3853,-5.5089,-5.4856,-5.3659,-5.3649,-5.2931,-5.1748,-5.1321,-5.0673,-4.9761,-4.8599,-4.7854,-4.7515,-4.7514,-4.7203,-4.6713,-4.7043,-4.7158,-4.7085,-4.7472,-4.7893,-4.8385,-4.9238,-4.9625,-4.9672,-4.9993,-5.0405,-5.0792,-5.0009,-4.9853,-5.0273,-4.9584,-4.8953,-4.8444,-4.7621,-4.6969,-4.6507,-4.6122,-4.5938,-4.5938,-4.6027,-4.6113,-4.6074,-4.4809,-4.4148,-4.4111,-4.2469,-4.1537,-4.1519,-4.1131,-4.0888,-4.0917,-4.1286,-4.1451,0.0,0.0,0.0,0.0,0.0,0.0,0.0,0.0,0.0,0.0,0.0,-4.2279,-4.2449,-4.305,-4.3799,-4.4599,-4.6256,-4.7659,-4.859,-5.0244,-5.1304,-5.133,-5.1756,-5.1903,-5.1466,-5.1014,-5.0608,-5.0114,-5.0031,-5.0138,-5.0518,-5.0548,-5.0342,-4.9947,-4.9879,-4.9952,-4.9952,-5.0005,-5.0038,-5.0057,-5.0082,-5.0108,-5.0228,-5.1243,-5.2215,-5.2647,-5.3779,-5.4836,-5.5179,-5.5033,-5.4543,-5.3683,-5.2862,-5.2016,-5.1353,-5.1376,-5.1476,-5.1123,-5.1334,-5.1501,-5.2349,-5.2466,-5.4084,-5.4291,-5.3547,-5.3547,-5.2673,-5.1295,-5.1353,-5.0888,-4.9974,-4.8536,-4.7397,-4.6608,-4.6589,-4.6491,-4.6336,-4.7056,-4.7397,-4.7455,-4.8175,-4.8603,-4.8739,-4.9596,-4.9985,-5.0033,-5.0705,-5.1113,-5.1211,-5.1113,-5.1094,-5.1191,-5.052,-5.015,-5.014,-4.9419,-4.8496,-4.7425,-4.6647,-4.6219,-4.6102,-4.6102,-4.6102,-4.6083,-4.5168,-4.4634,-4.4588,-4.2965,-4.2024,-4.1994,-4.1401,-4.1011,-4.097,-4.1753,-4.2226,0.0,-4.3602,0.0,0.0,0.0,0.0,0.0,0.0,0.0,0.0,-4.3043,-4.2945,-4.2739,-4.3283,-4.409,-4.5073,-4.6569,-4.7853,-4.8916,-5.0431,-5.1408,-5.1408,-5.1485,-5.1548,-5.1427,-5.0742,-5.0241,-5.0127,-5.0108,-5.0412,-5.0964,-5.1078,-5.0779,-5.0149,-5.0092,-5.0221,-5.0069,-5.0082,-5.0089,-5.0133,-5.0133,-5.0158,-5.0264,-5.0975,-5.1738,-5.2474,-5.332,-5.4161,-5.4753,-5.439,-5.3664,-5.2785,-5.2073,-5.1343,-5.055,-5.0417,-5.0417,-5.0436,-5.0875,-5.1119,-5.2457,-5.2566,-5.3561,-5.3514,-5.2727,-5.2727,-5.253,-5.2216,-5.226,-5.1765,-5.0948,-5.0685,-5.0071,-4.9301,-4.9278,-4.8491,-4.7178,-4.7334,-4.7395,-4.7388,-4.7572,-4.8029,-4.8727,-4.9584,-4.9991,-4.9999,-5.0157,-5.0586,-5.1258,-5.0559,-5.0578,-5.1258,-5.1131,-5.1062,-5.1031,0.0,0.0,0.0,-4.7318,-4.689,-4.6227,-4.6169,-4.6169,-4.615,-4.4642,0.0,-4.3763,-4.2097,-4.1159,-4.1159,-4.159,0.0,0.0,0.0,0.0,0.0,0.0,0.0,0.0,0.0,0.0,0.0,-4.4748,-4.4746,-4.3843,-4.4189,-4.4493,-4.444,-4.4549,-4.5299,-4.6901,-4.7386,-4.8272,-4.9782,-5.0918,-5.1534,-5.1522,-5.2081,-5.2303,-5.1629,-5.1375,-5.0945,-5.0278,-5.0114,-5.0165,-5.0393,-5.0355,-5.0279,-5.0139,-5.0653,-5.0831,-5.0253,-5.0139,-5.0188,-5.0255,-5.0274,-5.0255,-5.0393,-5.1004,-5.1596,-5.1868,-5.2518,-5.3053,-5.3359,-5.3168,-5.2785,-5.2021,-5.1711,-5.131,-5.0474,-5.0302,-5.0302,-5.0302,-5.0436,-5.0403,-5.1768,0.0,-5.2705,-5.2578,0.0,-5.2349,-5.231,-5.1911,-5.1921,-5.1433,-5.0547,-4.9757,-4.9181,-4.8733,-4.8319,-4.765,-4.6843,-4.7252,-4.7206,-4.6847,-4.7256,-4.7439,-4.7506,-4.8363,-4.8779,-4.8787,-4.9208,-4.9629,-5.0038,-4.962,-4.9835,-5.0641,-5.0708,-5.0899,-5.1296,-5.1296,-5.0256,-4.8164,-4.7715,-4.7072,-4.6254,-4.6196,-4.6196,-4.6157,0.0,0.0,0.0,0.0,0.0,0.0,0.0,0.0,0.0,0.0,0.0,-4.366,-4.403,-4.4208,-4.4192,-4.4576,-4.4748,-4.4647,-4.5006,-4.5001,-4.4519,-4.4767,-4.4986,-4.501,-4.5394,-4.6244,-4.7537,-4.8121,-4.893,-5.0214,-5.1136,-5.1653,-5.1644,-5.1988,-5.2064,-5.1658,-5.1195,-5.0732,-5.0293,-5.0231,-5.0397,-5.0779,-5.0836,-5.0817,-5.0836,-5.0792,-5.0621,-5.0264,-5.0231,-5.0255,-5.0302,-5.0302,-5.0283,-5.0378,-5.0665,-5.1123,-5.1525,-5.1945,-5.2327,-5.2652,-5.2499,-5.2059,-5.1739,-5.1314,-5.087,-5.0474,-5.034,-5.0264,-5.01,-5.0069,-4.9955,-5.0901,-5.1102,-5.1658,-5.1622,-5.1298,-5.2037,-5.1957,-5.1304,0.0,0.0,0.0,-4.8768,-4.8008,-4.7676,-4.6975,-4.6488,-4.6254,-4.6936,-4.6897,-4.6254,-4.7092,-4.7033,-4.6274,-4.7267,-4.7657,-4.754,-4.8222,-4.8651,-4.8787,-4.8806,-4.9216,-4.9964,-5.0212,-5.0647,-5.1258,-5.1317,-5.055,-4.9094,-4.8171,-4.7306,-4.6449,-4.6247,-4.6181,-4.6196,-4.4642,-4.3817,-4.381,-4.2188,-4.1256,-4.1211,-4.1865,-4.2264,-4.231,-4.363,-4.442,-4.444,-4.5036,-4.54,-4.5418,-4.5418,-4.5338,-4.5213,-4.5148,-4.5106,-4.5103,-4.5057,-4.5038,-4.5106,-4.584,-4.6688,-4.7747,-4.846,-4.9348,-5.0406,-5.1094,-5.1475,-5.1488,-5.1465,-5.1423,-5.1319,-5.076,-5.0302,-5.0302,-5.0302,-5.0531,-5.1162,-5.1214,-5.1372,-5.1295,-5.0694,-5.0307,-5.0298,-5.0278,-5.0302,-5.0283,-5.0092,-5.0111,-5.0034,-4.992,-5.0187,-5.0894,-5.1162,-5.1486,-5.2098,-5.1773,-5.1472,-5.1385,-5.0926,-5.0425,-5.0382,-5.0382,-5.0278,-4.9843,-4.9711,-4.9618,-5.0597,-5.123,-5.0586,-5.0692,-5.1312,-5.1429,-5.1425,-5.1303,-5.13,-5.1222,-5.1106,-5.0872,-4.9956,-4.8612,-4.8475,-4.7618,-4.6235,-4.6313,-4.6313,0.0,-4.7111,-4.7033,-4.6313,-4.7852,-4.8202,-4.756,-4.7637,-4.8066,-4.8736,-4.8794,-4.923,-5.0075,-5.0784,-5.1219,-5.1369,-5.1388,-5.0901,-4.9945,-4.9062,-4.8183,-4.7345,-4.6474,-4.6084,-4.615,-4.5112,-4.4608,-4.4686,-4.3669,-4.3121,-4.3112,-4.3763,-4.41,-4.4064,-4.4816,-4.5284,-4.5247,-4.5343,-4.54,-4.5418,-4.5418,-4.5338,-4.5213,-4.5192,-4.5151,-4.5103,-4.5103,-4.5125,-4.517,-4.5407,-4.616,-4.7719,-4.8162,-4.8951,-5.0333,-5.0678,-5.0734,-5.073,-5.0664,-5.0623,-5.0562,-5.044,-5.0264,-5.0168,-5.0187,-5.0187,-5.0417,-5.0455,-5.0474,-5.0378,-5.0378,-5.0302,-5.0302,-5.0302,-5.0302,-5.0073,-4.9675,-4.9331,-4.927,-4.8735,-4.8735,-4.9519,-4.9729,-5.0015,-5.0588,-5.0711,-5.0658,-5.0619,-5.0555,-5.044,-5.038,-5.0358,-5.0188,-4.9607,-4.9424,-4.9283,-5.08,-5.1132,-5.0753,-5.0869,-5.13,-5.1296,-5.1303,-5.1291,-5.1349,-5.1369,-5.131,-5.0862,-5.0219,-4.9445,-4.8503,-4.7665,-4.6885,-4.6423,-4.6456,-4.6885,-4.6813,-4.7099,-4.7554,-4.7476,-4.7671,-4.8132,-4.7723,-4.7944,-4.873,-4.8795,-4.9231,-5.0095,-5.0926,-5.1366,-5.1396,-5.1391,-5.1174,-5.0672,-4.9375,-4.8249,-4.7412,-4.6484,-4.6027,-4.6072,-4.5265,-4.4834,-4.4896,-4.3961,-4.3441,-4.3442,-4.4106,-4.4479,-4.4423,-4.5131,-4.5509,-4.5419,-4.54,-4.5419,-4.5419,-4.54,-4.538,-4.532,-4.532,-4.5281,-4.526,-4.5194,-4.5192,-4.5316,-4.576,-4.6587,-4.7933,-4.851,-4.9298,-5.0509,-5.0663,-5.0642,-5.0582,-5.054,-5.0306,-4.9844,-4.9704,-4.9468,-4.9048,-4.8968,-4.8945,-4.8965,-4.9289,-4.948,-4.906,-4.9366,-4.9633,-4.9652,-4.9652,-4.9423,-4.9041,-4.8662,-4.8414,-4.8391,-4.8487,-4.864,-4.9098,-4.9347,-4.9847,-5.0252,-5.0371,-5.0348,-5.0245,-5.0259,-5.0275,-5.0235,-5.023,-5.0025,-4.9679,-4.9438,-4.9209,-5.0934,-5.1139,-5.0936,-5.1045,-5.1296,-5.133,-5.1317,-5.1323,-5.1394,-5.1375,-5.1226,-5.0458,-4.999,-4.9658,-4.8176,-4.7396,-4.7142,-4.6733,-4.685,-4.7415,-4.7006,-4.7507,-4.8568,-4.7379,-4.7489,-4.8599,-4.8112,-4.8126,-4.8769,-4.8989,-4.9541,-5.0386,-5.1035,-5.1352,-5.1357,-5.1316,-5.1257,-5.1054,-4.9411,-4.8214,-4.7534,-4.6502,-4.5958,-4.5969,-4.544,-4.5141,-4.5157,-4.444,-4.4031,-4.4024,-4.4538,-4.4783,-4.4708,-4.524,-4.556,-4.5476,-4.5438,-4.5457,-4.5419,-4.54,-4.54,-4.54,-4.54,-4.54,-4.54,-4.532,-4.5277,-4.5475,-4.5975,-4.682,-4.7914,-4.8645,-4.9529,-5.051,-5.0683,-5.0567,-5.0374,-5.0315,-4.9968,-4.9121,-4.8886,-4.8616,-4.8077,-4.7884,-4.7898,-4.8032,-4.8411,-4.8468,-4.8028,-4.8411,-4.8716,-4.8582,-4.8662,-4.8586,-4.7895,-4.7611,-4.7535,-4.7513,-4.778,-4.8051,-4.8356,-4.9025,-4.948,-4.9522,-4.9675,-4.9553,-4.9472,-4.9562,-4.9562,-4.9465,-4.9681,-4.9986,-4.982,-4.9405,-4.9145,-5.0564,-5.1117,-5.0541,-5.0667,-5.1369,-5.1388,-5.138,-5.1391,-5.1396,-5.1316,-5.1101,-5.0426,-4.9658,-4.8859,-4.7981,-4.7201,-4.6577,-4.7084,-4.7454,-4.763,-4.8234,-4.8664,-4.8859,-4.8625,-4.8626,-4.884,-4.8736,-4.8769,-4.8989,-4.9621,-5.041,-5.1177,-5.1258,-5.123,-5.1203,-5.1094,-5.1031,-5.0981,-4.9239,-4.8308,-4.8225,-4.6612,-4.5854,-4.6065,-4.585,-4.5823,-4.5961,-4.5986,-4.5898,-4.586,-4.5725,-4.5699,-4.5602,-4.5594,-4.5603,-4.5586,-4.5586,-4.5568,-4.5495,-4.5457,-4.5419,-4.54,-4.5419,-4.5419,-4.5419,-4.54,-4.5381,-4.5458,-4.5553,-4.6359,-4.7838,-4.8183,-4.8952,-5.0375,-5.0606,-5.0375,-4.9721,-4.9451,-4.9066,-4.8222,-4.8105,-4.8045,-4.7834,-4.7737,-4.7811,-4.7597,-4.7805,-4.7818,-4.7586,-4.772,-4.7544,-4.7109,-4.7341,-4.7761,-4.757,-4.7076,-4.6715,-4.6596,-4.6118,-4.6369,-4.6966,-4.7214,-4.7193,-4.8346,-4.8151,-4.8143,-4.8004,-4.8045,-4.8405,-4.845,-4.8988,-4.9872,-4.9725,-4.9239,-4.8928,-5.1025,-5.1336,-5.0992,-5.1057,-5.1375,-5.1386,-5.1391,-5.1396,-5.1386,-5.1068,-5.0419,-4.9664,-4.9644,-5.0153,-4.9296,-4.8749,-4.8508,-4.8337,-4.8571,-4.8981,-4.8903,-4.9328,-5.0182,-4.9226,-4.9293,-5.0212,-4.9816,-4.9834,-5.0323,-5.0707,-5.1006,-5.1239,-5.1211,-5.1159,-5.1084,-5.1011,-5.0739,-5.0137,-4.8938,-4.8067,-4.7445,-4.6345,-4.5747,-4.5854,-4.5936,-4.5755,-4.5472,-4.5845,-4.5896,-4.541,-4.5677,-4.5852,-4.5766,-4.5742,-4.5684,-4.5603,-4.5586,-4.5622,-4.5622,-4.5586,-4.5566,-4.5582,-4.5582,-4.5582,-4.5582,-4.5582,-4.5582,-4.5565,-4.5531,-4.6032,-4.7242,-4.7798,-4.8625,-4.9663,-4.9933,-4.9779,-4.9471,-4.8914,-4.826,-4.7511,-4.7319,-4.7069,-4.6647,-4.6493,-4.6455,-4.6491,-4.6777,-4.6944,-4.6396,-4.6557,-4.6368,-4.5602,-4.5609,-4.5903,-4.6202,-4.6103,-4.5875,-4.5894,-4.6049,-4.6356,-4.6511,-4.7181,-4.7561,-4.7613,-4.7537,-4.7443,-4.739,-4.7416,-4.7607,-4.7701,-4.8397,-4.9415,-4.94,-4.9143,-4.9017,-5.1394,-5.1394,-5.1362,-5.1369,-5.1386,-5.1361,-5.1341,-5.1347,-5.1386,-5.0873,-4.9921,-4.934,-4.9594,-5.0314,-4.9646,-4.9424,-4.9653,-4.9325,-4.9345,-4.9716,-4.9306,-4.9829,-5.0816,-4.982,-4.9933,-5.1099,-5.0767,-5.0777,-5.1355,-5.1394,-5.1338,-5.1258,-5.1195,-5.0996,-5.0697,-5.0617,-5.0114,-4.9196,-4.835,-4.7571,-4.6891,-4.6092,-4.5673,-4.5713,-4.5689,-4.5366,-4.4821,-4.5373,-4.5412,-4.4773,-4.5462,-4.5718,-4.5409,-4.5428,-4.5383,-4.5271,-4.5274,-4.5387,-4.5651,-4.5687,-4.5687,-4.568,-4.568,-4.568,-4.568,-4.568,-4.568,-4.568,-4.5618,-4.599,-4.7124,-4.7759,-4.8548,-4.9548,-4.9586,-4.9336,-4.9029,-4.8298,-4.7451,-4.6701,-4.6492,-4.6262,-4.5705,-4.5534,-4.5534,-4.5514,-4.5875,-4.6023,-4.527,-4.5456,-4.547,-4.4685,-4.4549,-4.47,-4.5019,-4.5249,-4.5256,-4.5415,-4.5818,-4.6167,-4.634,-4.6933,-4.7097,-4.6378,-4.6763,-4.6738,-4.621,-4.6336,-4.7032,-4.7386,-4.7844,-4.8384,-4.8621,-4.8659,-4.8716,-5.1394,-5.1369,-5.1242,-5.1297,-5.139,-5.1278,-5.1211,-5.1245,-5.1352,-5.0803,-4.9858,-4.9776,-4.9449,-4.8826,-4.8162,-4.817,-4.8935,-4.9712,-4.9673,-4.9204,-4.9673,-5.0063,-5.0141,-5.0083,-5.0512,-5.1351,-5.1312,-5.1293,-5.1394,-5.1394,-5.1394,-5.1367,-5.1141,-5.0631,-4.9994,-4.9699,-4.9066,-4.8219,-4.7449,-4.6931,-4.6778,-4.6026,-4.5668,-4.5694,-4.504,-4.4711,-4.4665,-4.4744,-4.4702,-4.4511,-4.5324,-4.5375,-4.4559,-4.4501,-4.4592,-4.4546,-4.4527,-4.4855,-4.5565,-4.57,-4.568,-4.5696,-4.5696,-4.5696,-4.5696,-4.5696,-4.5696,-4.5715,-4.57,-4.6304,-4.7677,-4.7911,-4.8606,-4.999,-4.9721,-4.899,-4.824,-4.7451,-4.6624,-4.5932,-4.5759,-4.574,-4.5605,-4.555,-4.5362,-4.522,-4.5189,-4.509,-4.4852,-4.4794,-4.4723,-4.4678,-4.4595,-4.4648,-4.4591,-4.4868,-4.5045,-4.5211,-4.5435,-4.5592,-4.5457,-4.5398,-4.5306,-4.5181,-4.5347,-4.5262,-4.4842,-4.52,-4.6139,-4.6497,-4.6272,-4.6647,-4.7971,-4.7895,-4.7952,-5.1264,-5.1264,-5.131,-5.1357,-5.1367,-5.1258,-5.1252,-5.1327,-5.1271,-5.0439,-4.927,-4.9172,-4.871,-4.7852,-4.7684,-4.8294,-4.9529,-5.0407,-5.0635,-5.0303,-5.0114,-5.0308,-5.0844,-5.0399,-5.0535,-5.1277,-5.1394,-5.1394,-5.1394,-5.1394,-5.1338,-5.1252,-5.1084,-5.0564,-4.9799,-4.95,-4.874,-4.7451,-4.7028,-4.6644,-4.6124,-4.5759,-4.562,-4.5648,-4.5448,-4.4821,-4.3775,-4.4795,-4.4899,-4.3795,-4.5008,-4.5565,-4.5263,-4.5224,-4.524,-4.5237,-4.5237,-4.5387,-4.5708,-4.5765,-4.5781,-4.5776,-4.5757,-4.5757,-4.5757,-4.5771,-4.5757,-4.5776,-4.5761,-4.6329,-4.7127,-4.7405,-4.7584,-4.8065,-4.8008,-4.7759,-4.7278,-4.6586,-4.5932,-4.5663,-4.5586,-4.5586,-4.5549,-4.5419,-4.5263,-4.5161,-4.5026,-4.4789,-4.4584,-4.4495,-4.4412,-4.4248,-4.4158,-4.4128,-4.414,-4.4676,-4.5071,-4.5178,-4.5341,-4.5496,-4.5495,-4.5457,-4.5417,-4.5227,-4.4962,-4.491,-4.4915,-4.506,-4.5843,-4.5827,-4.5581,-4.623,-4.757,-4.7513,-4.7551,-5.1203,-5.123,-5.1297,-5.1362,-5.139,-5.1252,-5.1252,-5.1288,-5.0979,-5.0036,-4.8847,-4.8504,-4.7903,-4.7215,-4.742,-4.8108,-4.9184,-5.027,-5.0693,-5.042,-5.0108,-5.0327,-5.0785,-5.036,-5.0555,-5.1277,-5.1394,-5.1394,-5.1394,-5.1394,-5.1338,-5.1278,-5.1084,-5.0389,-4.9431,-4.9076,-4.8163,-4.6797,-4.649,-4.6182,-4.5643,-4.5586,-4.5586,-4.562,-4.57,-4.495,-4.3274,-4.4583,-4.4733,-4.3703,-4.4808,-4.5587,-4.5349,-4.5055,-4.5036,-4.5302,-4.5321,-4.5491,-4.5737,-4.581,-4.581,-4.58,-4.58,-4.58,-4.58,-4.58,-4.58,-4.58,-4.5805,-4.6085,-4.6476,-4.6603,-4.6767,-4.7118,-4.7066,-4.6913,-4.6855,-4.6144,-4.5682,-4.5605,-4.5586,-4.5586,-4.5568,-4.5342,-4.5182,-4.5115,-4.4849,-4.4572,-4.4318,-4.4221,-4.4151,-4.3974,-4.3929,-4.3961,-4.4017,-4.4484,-4.4751,-4.4891,-4.522,-4.5419,-4.5513,-4.5495,-4.5457,-4.5263,-4.5159,-4.5154,-4.5173,-4.5235,-4.5275,-4.5335,-4.5526,-4.6023,-4.6768,-4.7185,-4.7264,-5.1203,-5.1203,-5.1203,-5.1297,-5.1386,-5.1252,-5.1203,-5.1011,-5.043,-4.96,-4.8555,-4.7957,-4.7253,-4.6647,-4.7135,-4.7523,-4.7801,-4.922,-4.9625,-4.9094,-4.9582,-4.9957,-5.0184,-5.0048,-5.0496,-5.1375,-5.1394,-5.1394,-5.1367,-5.1367,-5.1381,-5.1327,-5.1113,-5.0246,-4.8599,-4.8372,-4.7375,-4.6144,-4.5797,-4.5663,-4.5586,-4.5586,-4.5565,-4.5526,-4.5635,-4.4881,-4.3223,-4.4033,-4.4238,-4.3612,-4.4847,-4.5291,-4.4723,-4.4061,-4.3805,-4.4664,-4.4722,-4.5045,-4.5684,-4.58,-4.58,-4.58,-4.58,-4.58,-4.58,-4.58,-4.58,-4.58,-4.58,-4.5858,-4.5896,-4.5911,-4.6407,-4.7713,-4.718,-4.6759,-4.6644,-4.6105,-4.5586,-4.5586,-4.5586,-4.5586,-4.5531,-4.5303,-4.5074,-4.4843,-4.4572,-4.4346,-4.4162,-4.414,-4.4048,-4.4048,-4.4109,-4.4181,-4.4181,-4.425,-4.4374,-4.4519,-4.4985,-4.5263,-4.5322,-4.5361,-4.5438,-4.5302,-4.5241,-4.5237,-4.5235,-4.5277,-4.5277,-4.5335,-4.5545,-4.5891,-4.6636,-4.7191,-4.7035,-5.1291,-5.123,-5.1316,-5.1362,-5.1386,-5.1252,-5.094,-5.0444,-5.0082,-4.9204,-4.8069,-4.7697,-4.71,-4.6475,-4.6593,-4.6683,-4.6748,-4.7854,-4.8479,-4.8626,-4.8416,-4.9016,-4.9864,-4.9501,-4.9969,-5.118,-5.1394,-5.1352,-5.1284,-5.1271,-5.1238,-5.1113,-5.0998,-5.0375,-4.9271,-4.8478,-4.7509,-4.6586,-4.5874,-4.5586,-4.5586,-4.5586,-4.5353,-4.4889,-4.5365,-4.4897,-4.338,-4.4542,-4.4851,-4.4124,-4.5148,-4.5645,-4.5365,-4.5148,-4.5142,-4.5374,-4.5413,-4.549,-4.5722,-4.58,-4.58,-4.58,-4.58,-4.58,-4.58,-4.58,-4.58,-4.58,-4.58,-4.58,-4.58,-4.581,-4.6074,-4.6436,-4.623,-4.6102,-4.603,-4.576,-4.5624,-4.5586,-4.5586,-4.5513,-4.5322,-4.5096,-4.4825,-4.4617,-4.4318,-4.4132,-4.425,-4.4279,-4.4374,-4.4511,-4.4538,-4.4484,-4.4484,-4.4511,-4.4565,-4.465,-4.4962,-4.5201,-4.5222,-4.5322,-4.54,-4.54,-4.5341,-4.53,-4.5298,-4.5297,-4.5297,-4.5297,-4.5413,-4.6084,-4.7023,-4.7212,-4.6994,-5.0402,-5.0588,-5.0452,-5.0567,-5.0781,-5.0465,-5.0034,-4.9591,-4.9215,-4.8493,-4.7662,-4.7237,-4.68,-4.6318,-4.6236,-4.6206,-4.6228,-4.6772,-4.7242,-4.7739,-4.8024,-4.8899,-5.0321,-4.9991,-5.014,-5.1037,-5.1252,-5.1195,-5.1123,-5.1113,-5.1074,-5.1016,-5.0956,-5.0457,-4.9591,-4.8617,-4.7721,-4.6913,-4.6047,-4.5586,-4.5586,-4.5586,-4.5389,-4.4983,-4.5112,-4.4851,-4.4221,-4.4665,-4.4737,-4.4694,-4.5346,-4.5786,-4.58,-4.578,-4.58,-4.58,-4.58,-4.58,-4.58,-4.58,-4.58,-4.58,-4.58,-4.58,-4.58,-4.58,-4.58,-4.58,-4.58,-4.58,-4.58,-4.5805,-4.5795,-4.575,-4.5761,-4.564,-4.5495,-4.5361,-4.5302,-4.5263,-4.5263,-4.5222,-4.5052,-4.4825,-4.465,-4.4493,-4.4318,-4.4231,-4.4438,-4.4527,-4.4676,-4.4751,-4.4726,-4.4701,-4.4751,-4.4776,-4.4776,-4.4891,-4.5007,-4.5159,-4.5201,-4.5419,-4.5531,-4.5495,-4.5438,-4.54,-4.538,-4.5376,-4.5354,-4.5356,-4.5356,-4.5906,-4.659,-4.6885,-4.6777,-4.8846,-4.9495,-4.9002,-4.9352,-4.9866,-4.9327,-4.8962,-4.8619,-4.8033,-4.7619,-4.7307,-4.6726,-4.6353,-4.6209,-4.6209,-4.6181,-4.6124,-4.6044,-4.6376,-4.6858,-4.7794,-4.9293,-5.0533,-5.0791,-5.0964,-5.1014,-5.1031,-5.1008,-5.1004,-5.1016,-5.0984,-5.0946,-5.0859,-5.0503,-4.9702,-4.8696,-4.7932,-4.7278,-4.6259,-4.5759,-4.574,-4.5605,-4.5524,-4.5461,-4.4974,-4.4847,-4.4931,-4.4283,-4.3968,-4.4581,-4.5374,-4.58,-4.58,-4.58,-4.58,-4.58,-4.58,-4.58,-4.58,-4.58,-4.58,-4.58,-4.58,-4.58,-4.58,-4.58,-4.58,-4.58,-4.58,-4.58,-4.58,-4.58,-4.5791,-4.5765,-4.5654,-4.5513,-4.5222,-4.4985,-4.4919,-4.4872,-4.48,-4.4825,-4.4868,-4.465,-4.4657,-4.465,-4.4572,-4.4572,-4.4707,-4.4825,-4.4843,-4.4915,-4.5007,-4.503,-4.5096,-4.5096,-4.5096,-4.5159,-4.522,-4.5222,-4.5243,-4.5438,-4.5586,-4.5531,-4.5495,-4.5476,-4.5419,-4.5398,-4.5376,-4.5397,-4.5528,-4.5745,-4.6046,-4.6424,-4.6483,-4.8953,-4.9703,-4.9584,-4.9635,-4.981,-4.964,-4.8892,-4.7905,-4.7674,-4.7153,-4.6593,-4.6362,-4.6601,-4.6963,-4.641,-4.6746,-4.7339,-4.656,-4.6743,-4.765,-4.7602,-4.8263,-4.9421,-5.0625,-5.1132,-5.0989,-5.0984,-5.0979,-5.0923,-5.0942,-5.0863,-5.0771,-5.0756,-5.0662,-5.0297,-4.947,-4.9009,-4.8567,-4.724,-4.6528,-4.6432,-4.5874,-4.5293,-4.48,-4.5086,-4.4785,-4.4186,-4.4181,-4.433,-4.462,-4.5374,-4.58,-4.5761,-4.578,-4.58,-4.58,-4.58,-4.58,-4.58,-4.58,-4.58,-4.58,-4.5877,-4.58,-4.58,-4.58,-4.58,-4.58,-4.58,-4.58,-4.58,-4.58,-4.5708,-4.5472,-4.5419,-4.5283,-4.4988,-4.4849,-4.48,-4.48,-4.4962,-4.4943,-4.4849,-4.4872,-4.4896,-4.4825,-4.4776,-4.4819,-4.5007,-4.5096,-4.5115,-4.5322,-4.5419,-4.54,-4.54,-4.5419,-4.5419,-4.5457,-4.5457,-4.5381,-4.54,-4.5438,-4.5513,-4.5532,-4.5513,-4.5495,-4.5457,-4.5419,-4.54,-4.5438,-4.5496,-4.5649,-4.5875,-4.6178,-4.6062,-4.7791,-4.8546,-4.8264,-4.8359,-4.8627,-4.8429,-4.777,-4.7093,-4.6986,-4.667,-4.6244,-4.6546,-4.6914,-4.7193,-4.7105,-4.752,-4.8199,-4.739,-4.7284,-4.7525,-4.743,-4.7985,-4.913,-5.0526,-5.1047,-5.0932,-5.0918,-5.0894,-5.0855,-5.0841,-5.0756,-5.072,-5.0702,-5.0683,-5.0625,-4.9875,-4.9451,-4.9124,-4.7833,-4.6947,-4.6852,-4.6082,-4.55,-4.497,-4.5121,-4.4399,-4.3137,-4.3595,-4.3904,-4.3924,-4.4852,-4.5664,-4.5355,-4.5645,-4.58,-4.58,-4.58,-4.58,-4.58,-4.58,-4.58,-4.5896,-4.6051,-4.6109,-4.5993,-4.6071,-4.6283,-4.5838,-4.5819,-4.58,-4.58,-4.5805,-4.5645,-4.5399,-4.5304,-4.518,-4.4843,-4.48,-4.48,-4.4825,-4.4919,-4.4988,-4.48,-4.4943,-4.4988,-4.4966,-4.4985,-4.5137,-4.5302,-4.5361,-4.54,-4.5513,-4.5586,-4.5531,-4.5513,-4.5513,-4.5513,-4.5568,-4.5568,-4.5495,-4.5495,-4.5475,-4.5513,-4.555,-4.5531,-4.5531,-4.5495,-4.5476,-4.5495,-4.5513,-4.5491,-4.551,-4.5707,-4.5932,-4.5805,-4.6123,-4.6872,-4.6205,-4.6427,-4.7114,-4.6533,-4.6461,-4.6235,-4.6274,-4.6169,-4.6134,-4.6804,-4.707,-4.7178,-4.7603,-4.8137,-4.8291,-4.7954,-4.7378,-4.7137,-4.711,-4.7856,-4.9013,-5.0164,-5.0729,-5.0803,-5.081,-5.081,-5.081,-5.0738,-5.072,-5.072,-5.0702,-5.0721,-5.0625,-5.0046,-4.968,-4.9428,-4.8116,-4.7306,-4.702,-4.6268,-4.5629,-4.5468,-4.4562,-4.3777,-4.2827,-4.2802,-4.2802,-4.1912,-4.4291,-4.5123,-4.4794,-4.5374,-4.5761,-4.58,-4.58,-4.58,-4.58,-4.5786,-4.5849,-4.6008,-4.6592,-4.6738,-4.6244,-4.6515,-4.6588,-4.5858,-4.58,-4.58,-4.58,-4.581,-4.5629,-4.538,-4.5304,-4.5182,-4.4919,-4.4825,-4.48,-4.48,-4.48,-4.4849,-4.4849,-4.4872,-4.4985,-4.5243,-4.5262,-4.5322,-4.5457,-4.5495,-4.5513,-4.5568,-4.5586,-4.5586,-4.5586,-4.5586,-4.5586,-4.5586,-4.5586,-4.5568,-4.5568,-4.5568,-4.5586,-4.5586,-4.5568,-4.5568,-4.5568,-4.5568,-4.5586,-4.5566,-4.5547,-4.5451,-4.5416,-4.5686,-4.5709,-4.6152,-4.6959,-4.6815,-4.6944,-4.7204,-4.7082,-4.6674,-4.6131,-4.6111,-4.6016,-4.5955,-4.6183,-4.6959,-4.7927,-4.7622,-4.7951,-4.881,-4.7896,-4.6767,-4.621,-4.6839,-4.7212,-4.8028,-4.9213,-5.0201,-5.0554,-5.0791,-5.081,-5.0754,-5.0754,-5.0775,-5.0775,-5.0776,-5.0794,-5.0736,-5.0582,-5.0505,-5.0233,-4.8825,-4.7957,-4.7532,-4.6433,-4.57,-4.5565,-4.4322,-4.3463,-4.3001,-4.2531,-4.188,-4.1847,-4.3258,-4.4606,-4.4664,-4.5278,-4.5722,-4.58,-4.58,-4.58,-4.5786,-4.5696,-4.5866,-4.6425,-4.6606,-4.6532,-4.6583,-4.6752,-4.6568,-4.5969,-4.58,-4.5786,-4.5786,-4.5795,-4.5648,-4.5436,-4.5475,-4.5476,-4.518,-4.4938,-4.4849,-4.4872,-4.4988,-4.5118,-4.5137,-4.5283,-4.54,-4.5495,-4.5513,-4.5531,-4.5568,-4.5586,-4.5586,-4.5586,-4.5586,-4.5586,-4.5586,-4.5586,-4.5586,-4.5586,-4.5586,-4.5586,-4.5586,-4.5586,-4.5586,-4.5586,-4.5586,-4.5586,-4.5586,-4.5586,-4.5586,-4.5586,-4.5586,-4.5528,-4.5512,-4.5629,-4.5663,-4.5757,-4.5919,-4.63,-4.6577,-4.6721,-4.6726,-4.6477,-4.6156,-4.6123,-4.5984,-4.5939,-4.6259,-4.6994,-4.7689,-4.7654,-4.8211,-4.8501,-4.7661,-4.6812,-4.6452,-4.6617,-4.6694,-4.7154,-4.7976,-4.889,-4.9605,-5.0107,-5.0262,-5.0359,-5.0651,-5.0846,-5.0846,-5.081,-5.0812,-5.081,-5.0827,-5.0557,-5.0016,-4.9029,-4.816,-4.7565,-4.6484,-4.5715,-4.5542,-4.4495,-4.383,-4.3772,-4.2593,-4.1826,-4.173,-4.2579,-4.3578,-4.4023,-4.4733,-4.5312,-4.5699,-4.5757,-4.5776,-4.5742,-4.5671,-4.5892,-4.6824,-4.7031,-4.7029,-4.7118,-4.7246,-4.6912,-4.6104,-4.5703,-4.5642,-4.5645,-4.5731,-4.5632,-4.5584,-4.5566,-4.5568,-4.54,-4.5243,-4.5161,-4.5182,-4.5322,-4.5381,-4.5457,-4.5531,-4.5568,-4.555,-4.555,-4.5568,-4.5568,-4.5586,-4.5586,-4.5586,-4.5586,-4.5586,-4.5586,-4.5586,-4.5586,-4.5586,-4.5586,-4.5586,-4.5586,-4.5586,-4.5586,-4.5586,-4.5586,-4.5586,-4.5586,-4.5586,-4.5586,-4.5586,-4.5586,-4.5586,-4.5607,-4.563,-4.5611,-4.5227,-4.4666,-4.5298,-4.5677,-4.591,-4.5909,-4.5968,-4.6106,-4.6079,-4.594,-4.5931,-4.6611,-4.6808,-4.7147,-4.7706,-4.8053,-4.7877,-4.7291,-4.6641,-4.6578,-4.6148,-4.6283,-4.6742,-4.7013,-4.7342,-4.8063,-4.9015,-4.9459,-4.9904,-5.0333,-5.0665,-5.0822,-5.0863,-5.0827,-5.0827,-5.0825,-5.0645,-5.0008,-4.8961,-4.8164,-4.7399,-4.6433,-4.58,-4.5576,-4.4862,-4.436,-4.4017,-4.3018,-4.2058,-4.1923,-4.2001,-4.2463,-4.3158,-4.4021,-4.4735,-4.5503,-4.558,-4.5715,-4.5684,-4.5659,-4.5988,-4.7059,-4.764,-4.7852,-4.7722,-4.7793,-4.7345,-4.6515,-4.5866,-4.5596,-4.5547,-4.5635,-4.5703,-4.5673,-4.564,-4.5622,-4.5586,-4.5586,-4.5531,-4.5531,-4.5513,-4.5513,-4.5531,-4.5586,-4.5586,-4.5586,-4.5586,-4.5586,-4.5586,-4.5586,-4.5586,-4.5586,-4.5586,-4.5586,-4.5586,-4.5586,-4.5586,-4.5586,-4.5586,-4.5586,-4.5586,-4.5586,-4.5586,-4.5586,-4.5586,-4.5586,-4.5586,-4.5586,-4.5586,-4.5586,-4.5586,-4.5586,-4.5586,-4.5586,-4.5586,-4.4803,-4.4732,-4.4148,-4.4377,-4.5114,-4.5064,-4.5412,-4.5996,-4.5873,-4.5844,-4.5834,-4.5974,-4.6441,-4.6877,-4.7089,-4.724,-4.7079,-4.6544,-4.6134,-4.6129,-4.5858,-4.6013,-4.609,-4.6187,-4.6225,-4.6612,-4.7715,-4.8798,-4.9494,-4.9865,-5.0368,-5.0774,-5.0893,-5.0874,-5.0874,-5.089,-5.0735,-5.0078,-4.9049,-4.8256,-4.7545,-4.6578,-4.5791,-4.5708,-4.4997,-4.46,-4.4295,-4.3524,-4.2656,-4.2067,-4.2549,-4.2899,-4.325,-4.3991,-4.4562,-4.4947,-4.541,-4.5668,-4.5601,-4.5608,-4.6244,-4.7201,-4.7813,-4.8336,-4.8528,-4.839,-4.78,-4.694,-4.6128,-4.575,-4.575,-4.5687,-4.569,-4.5673,-4.562,-4.5586,-4.5586,-4.5586,-4.5586,-4.5586,-4.5586,-4.5586,-4.5586,-4.5586,-4.5586,-4.5586,-4.5586,-4.5586,-4.5586,-4.5586,-4.5586,-4.5586,-4.5586,-4.5586,-4.5586,-4.5586,-4.5586,-4.5586,-4.5586,-4.5586,-4.5586,-4.5586,-4.5586,-4.5586,-4.5586,-4.5586,-4.5586,-4.5586,-4.5586,-4.5586,-4.5586,-4.5586,-4.5586,-4.5586,-4.5586,-4.3825,-4.3548,-4.3573,-4.386,-4.4259,-4.4234,-4.4662,-4.5334,-4.5306,-4.5452,-4.5708,-4.5829,-4.6003,-4.6321,-4.6379,-4.6394,-4.6274,-4.6056,-4.58,-4.58,-4.58,-4.58,-4.58,-4.58,-4.58,-4.6013,-4.6728,-4.785,-4.8972,-4.9533,-5.0113,-5.0732,-5.0906,-5.0906,-5.0906,-5.089,-5.0403,-4.9726,-4.8836,-4.7927,-4.7192,-4.6129,-4.5882,-4.5645,-4.5403,-4.5105,-4.4916,-4.4209,-4.3596,-4.3233,-4.3118,-4.3102,-4.3352,-4.3888,-4.4614,-4.5018,-4.5423,-4.5635,-4.5699,-4.5914,-4.6743,-4.7874,-4.8298,-4.8779,-4.9216,-4.9035,-4.8227,-4.7108,-4.6302,-4.5735,-4.5601,-4.5673,-4.5673,-4.564,-4.5603,-4.5603,-4.5586,-4.5586,-4.5586,-4.5586,-4.5586,-4.5586,-4.5586,-4.5586,-4.5586,-4.5586,-4.5586,-4.5586,-4.5586,-4.5586,-4.5586,-4.5586,-4.5586,-4.5586,-4.5586,-4.5586,-4.5586,-4.5586,-4.5586,-4.5586,-4.5586,-4.5586,-4.5586,-4.5586,-4.5586,-4.5586,-4.5586,-4.5586,-4.5586,-4.5586,-4.5586,-4.5586,-4.5586,-4.5586,-4.5586,-4.287,-4.2454,-4.2962,-4.3271,-4.3396,-4.3348,-4.3888,-4.4621,-4.4517,-4.4949,-4.5703,-4.5626,-4.5626,-4.578,-4.5824,-4.5824,-4.5766,-4.5786,-4.5805,-4.5805,-4.58,-4.58,-4.58,-4.58,-4.58,-4.5819,-4.5935,-4.6728,-4.8314,-4.9049,-4.9919,-5.0654,-5.0906,-5.0906,-5.0906,-5.0654,-4.9726,-4.9068,-4.8179,-4.727,-4.6187,-4.58,-4.5805,-4.5815,-4.575,-4.5738,-4.5841,-4.5076,-4.4655,-4.4386,-4.4061,-4.3602,-4.3544,-4.4105,-4.4855,-4.5468,-4.5603,-4.5637,-4.5794,-4.6352,-4.7123,-4.8133,-4.8945,-4.9478,-4.9663,-4.9389,-4.8523,-4.6959,-4.6147,-4.5719,-4.5586,-4.5603,-4.564,-4.5603,-4.5603,-4.5586,-4.5586,-4.5586,-4.5586,-4.5586,-4.5586,-4.5586,-4.5586,-4.5586,-4.5586,-4.5586,-4.5586,-4.5586,-4.5586,-4.5586,-4.5586,-4.5586,-4.5586,-4.5586,-4.5586,-4.5586,-4.5586,-4.5586,-4.5586,-4.5586,-4.5586,-4.5586,-4.5586,-4.5603,-4.5586,-4.5586,-4.5586,-4.5586,-4.5586,-4.5586,-4.5586,-4.5586,-4.5586,-4.5586,-4.5586,-4.2407,-4.2337,-4.1693,-4.1792,-4.2409,-4.2408,-4.3277,-4.4492,-4.3866,-4.4369,-4.5645,-4.5162,-4.5239,-4.5684,-4.5791,-4.5761,-4.5746,-4.5761,-4.5795,-4.581,-4.5805,-4.58,-4.58,-4.58,-4.58,-4.58,-4.58,-4.6806,-4.8024,-4.8527,-4.9455,-5.0577,-5.0828,-5.0867,-5.0674,-5.0268,-4.9765,-4.9243,-4.7985,-4.6767,-4.5993,-4.58,-4.5805,-4.5795,-4.5916,-4.6117,-4.6529,-4.5935,-4.5587,-4.5587,-4.5459,-4.498,-4.454,-4.5007,-4.5409,-4.562,-4.564,-4.5568,-4.5723,-4.6525,-4.7444,-4.8362,-4.917,-4.9946,-4.9981,-4.9131,-4.7839,-4.6167,-4.5789,-4.5703,-4.562,-4.5603,-4.5603,-4.5603,-4.5586,-4.5586,-4.5586,-4.5586,-4.5586,-4.5586,-4.5586,-4.5586,-4.5586,-4.5586,-4.5586,-4.5586,-4.5586,-4.5586,-4.5586,-4.5586,-4.5622,-4.5622,-4.5622,-4.5622,-4.562,-4.562,-4.5603,-4.5603,-4.5603,-4.5603,-4.5603,-4.5603,-4.5622,-4.5622,-4.5603,-4.5603,-4.5622,-4.5622,-4.5603,-4.5586,-4.5586,-4.5586,-4.5586,-4.5586,-4.5586,-4.2047,-4.1635,-4.1226,-4.1242,-4.1533,-4.1457,-4.2399,-4.3628,-4.3537,-4.3962,-4.5026,-4.5297,-4.5476,-4.5713,-4.5746,-4.5715,-4.5715,-4.5765,-4.58,-4.5815,-4.5805,-4.58,-4.58,-4.58,-4.58,-4.58,-4.5993,-4.6767,-4.7773,-4.814,-4.8701,-5.0538,-5.0461,-5.019,-5.019,-4.9881,-4.9088,-4.8159,-4.7038,-4.6225,-4.5896,-4.58,-4.58,-4.5824,-4.624,-4.665,-4.6808,-4.6738,-4.6738,-4.678,-4.6417,-4.5838,-4.5726,-4.5783,-4.5668,-4.5668,-4.5687,-4.5902,-4.6422,-4.7204,-4.7993,-4.8916,-4.9718,-5.031,-4.9997,-4.8705,-4.7492,-4.6669,-4.6005,-4.5745,-4.5673,-4.564,-4.5603,-4.5586,-4.5586,-4.5586,-4.5586,-4.5586,-4.5586,-4.5586,-4.5586,-4.5586,-4.5586,-4.5586,-4.5586,-4.5586,-4.5586,-4.5603,-4.5603,-4.5586,-4.564,-4.5676,-4.5659,-4.5678,-4.5673,-4.5671,-4.5654,-4.5637,-4.5657,-4.5657,-4.5622,-4.5622,-4.564,-4.564,-4.5657,-4.5657,-4.5659,-4.5622,-4.5603,-4.5586,-4.5586,-4.5586,-4.5586,-4.5586,-4.5586,-4.1565,-4.1037,-4.1022,-4.098,-4.0933,-4.084,-4.1668,-4.2957,-4.2976,-4.344,-4.4297,-4.5017,-4.5409,-4.5519,-4.5584,-4.5703,-4.5687,-4.575,-4.5765,-4.5781,-4.5791,-4.58,-4.58,-4.58,-4.58,-4.5819,-4.6167,-4.7038,-4.7753,-4.8101,-4.8682,-5.05,-5.0055,-4.9629,-4.9359,-4.8952,-4.8198,-4.6922,-4.6245,-4.5877,-4.58,-4.58,-4.5645,-4.58,-4.6235,-4.6858,-4.7032,-4.6708,-4.7021,-4.7774,-4.658,-4.5947,-4.6217,-4.5931,-4.5719,-4.5715,-4.5735,-4.6136,-4.687,-4.7712,-4.8613,-4.9343,-4.9923,-4.9943,-4.8937,-4.7728,-4.6866,-4.658,-4.6436,-4.5962,-4.5772,-4.5796,-4.5834,-4.574,-4.5586,-4.5586,-4.5622,-4.568,-4.5661,-4.5586,-4.5586,-4.5586,-4.5586,-4.5586,-4.5586,-4.5586,-4.5603,-4.5603,-4.5603,-4.562,-4.5637,-4.569,-4.5693,-4.5712,-4.5706,-4.5703,-4.5687,-4.5706,-4.569,-4.569,-4.5673,-4.5657,-4.5673,-4.569,-4.569,-4.5671,-4.5671,-4.5637,-4.5586,-4.5586,-4.5586,-4.5586,-4.5586,-4.5603,-4.5603,-4.0858,-4.0818,-4.0948,-4.094,-4.082,-4.081,-4.13,-4.2202,-4.2144,-4.2634,-4.3482,-4.4129,-4.4465,-4.4723,-4.5266,-4.5577,-4.562,-4.5668,-4.5715,-4.5727,-4.5752,-4.58,-4.58,-4.58,-4.578,-4.5858,-4.638,-4.7366,-4.8203,-4.8361,-4.8879,-4.961,-4.9467,-4.9092,-4.8589,-4.7979,-4.71,-4.6109,-4.5664,-4.5664,-4.5664,-4.5606,-4.5394,-4.5065,-4.5529,-4.6245,-4.698,-4.6501,-4.683,-4.8207,-4.6723,-4.5974,-4.6186,-4.592,-4.5765,-4.5765,-4.5765,-4.6186,-4.6843,-4.7596,-4.823,-4.8671,-4.8961,-4.8968,-4.7847,-4.7333,-4.6664,-4.6169,-4.6271,-4.6273,-4.6123,-4.6163,-4.622,-4.5892,-4.5774,-4.5948,-4.5928,-4.5871,-4.5832,-4.5661,-4.568,-4.5813,-4.562,-4.5637,-4.5603,-4.5603,-4.562,-4.562,-4.5654,-4.5654,-4.5687,-4.5722,-4.5706,-4.5706,-4.5719,-4.5715,-4.5715,-4.5719,-4.5722,-4.5703,-4.5703,-4.5703,-4.5722,-4.5703,-4.5719,-4.57,-4.57,-4.5651,-4.5637,-4.5603,-4.5603,-4.5622,-4.5622,-4.5622,-4.564,-4.1277,-4.0759,-4.0791,-4.0811,-4.0798,-4.0804,-4.126,-4.1925,-4.1989,-4.2439,-4.3163,-4.3042,-4.3474,-4.4248,-4.4639,-4.5141,-4.5545,-4.5687,-4.57,-4.5712,-4.5757,-4.58,-4.58,-4.5703,-4.5587,-4.551,-4.6361,-4.7113,-4.7436,-4.842,-4.8544,-4.8775,-4.8791,-4.8505,-4.7927,-4.732,-4.6379,-4.5457,-4.5123,-4.5084,-4.5065,-4.5065,-4.491,-4.4736,-4.6013,-4.6303,-4.638,-4.6573,-4.7308,-4.7599,-4.6617,-4.6293,-4.622,-4.5954,-4.58,-4.58,-4.58,-4.5978,-4.6325,-4.7098,-4.7731,-4.816,-4.8144,-4.7777,-4.7121,-4.6645,-4.6516,-4.6309,-4.6331,-4.639,-4.6605,-4.6663,-4.6586,-4.6082,-4.5984,-4.6251,-4.6444,-4.6425,-4.6425,-4.6482,-4.6364,-4.6323,-4.6015,-4.5687,-4.5637,-4.5622,-4.564,-4.5673,-4.5687,-4.5703,-4.5719,-4.575,-4.5754,-4.575,-4.5761,-4.5742,-4.5757,-4.5746,-4.575,-4.575,-4.575,-4.577,-4.577,-4.5765,-4.5765,-4.5765,-4.5731,-4.5684,-4.5671,-4.5657,-4.5657,-4.5657,-4.5676,-4.5657,-4.5657,-4.1246,-4.0668,-4.0681,-4.0706,-4.073,-4.0739,-4.1042,-4.1556,-4.1865,-4.2261,-4.2772,-4.2187,-4.246,-4.3464,-4.4218,-4.4566,-4.5161,-4.5497,-4.5645,-4.5712,-4.5742,-4.567,-4.5606,-4.5548,-4.5452,-4.5181,-4.6134,-4.7075,-4.7503,-4.8721,-4.8644,-4.8218,-4.7952,-4.7895,-4.7547,-4.7159,-4.6387,-4.5597,-4.5045,-4.4968,-4.5026,-4.5026,-4.4794,-4.4852,-4.5877,-4.6264,-4.6109,-4.6269,-4.6965,-4.7129,-4.6673,-4.6152,-4.6152,-4.6113,-4.577,-4.5746,-4.5765,-4.575,-4.5947,-4.6526,-4.741,-4.8089,-4.788,-4.761,-4.7204,-4.6786,-4.7039,-4.7214,-4.6985,-4.6892,-4.7393,-4.7354,-4.7351,-4.7,-4.6596,-4.6767,-4.7227,-4.7362,-4.7362,-4.7362,-4.7243,-4.7185,-4.6896,-4.6513,-4.5973,-4.5863,-4.5671,-4.5703,-4.5735,-4.575,-4.5765,-4.5781,-4.5781,-4.581,-4.5805,-4.5786,-4.5771,-4.5791,-4.5781,-4.5761,-4.5781,-4.5795,-4.5795,-4.5791,-4.5791,-4.581,-4.5795,-4.5746,-4.5738,-4.5712,-4.5709,-4.5687,-4.5687,-4.5687,-4.5668,-4.0558,-4.0504,-4.0588,-4.0598,-4.0602,-4.0602,-4.066,-4.0858,-4.1441,-4.1832,-4.1898,-4.1716,-4.1857,-4.2434,-4.3626,-4.4318,-4.4799,-4.5387,-4.5687,-4.57,-4.5746,-4.5385,-4.5312,-4.539,-4.5399,-4.5186,-4.6051,-4.7188,-4.7798,-4.8524,-4.8353,-4.7964,-4.7704,-4.7546,-4.7005,-4.7075,-4.7076,-4.6864,-4.5974,-4.5554,-4.5423,-4.5332,-4.4954,-4.4858,-4.5403,-4.5808,-4.5561,-4.5758,-4.634,-4.6574,-4.5954,-4.5587,-4.5745,-4.5587,-4.549,-4.57,-4.57,-4.5684,-4.5748,-4.6532,-4.7243,-4.7918,-4.767,-4.7824,-4.8075,-4.8058,-4.7964,-4.8099,-4.837,-4.8505,-4.8447,-4.8158,-4.8116,-4.7844,-4.7436,-4.7587,-4.8086,-4.8298,-4.8295,-4.8295,-4.8298,-4.8205,-4.7935,-4.7491,-4.6642,-4.6198,-4.5835,-4.575,-4.5781,-4.5795,-4.5776,-4.5791,-4.581,-4.5805,-4.58,-4.58,-4.58,-4.5805,-4.5805,-4.5791,-4.5791,-4.581,-4.5805,-4.5819,-4.5819,-4.5805,-4.5819,-4.58,-4.5781,-4.5735,-4.57,-4.5696,-4.5696,-4.5696,-4.5715,-4.0489,-4.0489,-4.0523,-4.0539,-4.0549,-4.0593,-4.0593,-4.0607,-4.0729,-4.0847,-4.0896,-4.0814,-4.1474,-4.2372,-4.3096,-4.396,-4.4863,-4.5332,-4.5671,-4.5671,-4.5719,-4.5976,-4.5883,-4.558,-4.5389,-4.5359,-4.6108,-4.6628,-4.6778,-4.7772,-4.7846,-4.7473,-4.7571,-4.739,-4.7165,-4.7195,-4.741,-4.6254,-4.5306,-4.4707,-4.4765,-4.4701,-4.4534,-4.4228,-4.5015,-4.5187,-4.4842,-4.517,-4.5649,-4.5879,-4.522,-4.5263,-4.5399,-4.5304,-4.5418,-4.5618,-4.5687,-4.5671,-4.5709,-4.6089,-4.6494,-4.7169,-4.7497,-4.7767,-4.8169,-4.8265,-4.8519,-4.8827,-4.8981,-4.9039,-4.8981,-4.902,-4.8921,-4.8472,-4.8295,-4.8794,-4.9196,-4.9231,-4.9231,-4.9231,-4.9235,-4.8868,-4.8539,-4.8292,-4.7577,-4.6727,-4.6341,-4.5896,-4.581,-4.5805,-4.5805,-4.5805,-4.5819,-4.58,-4.58,-4.58,-4.58,-4.58,-4.5819,-4.58,-4.5805,-4.5805,-4.5805,-4.58,-4.58,-4.58,-4.58,-4.58,-4.58,-4.5752,-4.5737,-4.5727,-4.5746,-4.5765,-4.5781,-4.0457,-4.0389,-4.0389,-4.0356,-4.0302,-4.0403,-4.0422,-4.0302,-4.0139,-4.0139,-4.0213,-4.0139,-4.0766,-4.1931,-4.2698,-4.3388,-4.4598,-4.5167,-4.5419,-4.5419,-4.5456,-4.5592,-4.5726,-4.5898,-4.5553,-4.5509,-4.5874,-4.6347,-4.6383,-4.7055,-4.7318,-4.7363,-4.7495,-4.743,-4.7331,-4.753,-4.743,-4.6254,-4.534,-4.4728,-4.4653,-4.4517,-4.4397,-4.4472,-4.472,-4.4872,-4.4639,-4.4843,-4.5297,-4.5118,-4.5095,-4.5137,-4.5218,-4.5206,-4.5343,-4.5549,-4.5671,-4.5841,-4.6127,-4.6275,-4.697,-4.7976,-4.7397,-4.7626,-4.8436,-4.882,-4.9302,-4.9534,-4.9321,-4.9534,-4.9823,-4.9901,-4.9512,-4.9064,-4.9215,-4.9711,-5.0001,-5.002,-5.002,-5.0055,-4.9997,-4.9571,-4.9243,-4.8914,-4.8512,-4.7661,-4.683,-4.6327,-4.5858,-4.5819,-4.58,-4.58,-4.58,-4.58,-4.58,-4.58,-4.58,-4.58,-4.58,-4.58,-4.58,-4.5819,-4.58,-4.58,-4.58,-4.58,-4.58,-4.58,-4.58,-4.578,-4.5766,-4.5771,-4.5815,-4.5795,-4.581,-4.0372,-4.0214,-4.0196,-4.0023,-3.9882,-4.0081,-4.0042,-3.9819,-3.9797,-3.9797,-3.9819,-3.9819,-4.0363,-4.1177,-4.1958,-4.281,-4.3701,-4.4507,-4.4862,-4.4962,-4.5055,-4.5201,-4.5506,-4.5757,-4.5635,-4.557,-4.5646,-4.5855,-4.6184,-4.6826,-4.7126,-4.725,-4.751,-4.7416,-4.75,-4.7662,-4.7468,-4.6624,-4.5679,-4.5099,-4.4824,-4.4969,-4.4782,-4.4796,-4.4849,-4.4891,-4.4943,-4.5336,-4.5331,-4.5237,-4.5202,-4.523,-4.5181,-4.4938,-4.5222,-4.5531,-4.5703,-4.6259,-4.6526,-4.6634,-4.7268,-4.7928,-4.7603,-4.8183,-4.9048,-4.9663,-4.9992,-5.0359,-5.0378,-5.0571,-5.0764,-5.0414,-5.0066,-4.9946,-4.9943,-5.0291,-5.0639,-5.0735,-5.0735,-5.0732,-5.0712,-5.048,-5.0287,-4.9958,-4.8991,-4.8159,-4.7236,-4.6477,-4.6051,-4.5819,-4.58,-4.58,-4.58,-4.58,-4.58,-4.58,-4.58,-4.58,-4.58,-4.58,-4.58,-4.58,-4.58,-4.58,-4.58,-4.58,-4.58,-4.58,-4.58,-4.58,-4.578,-4.58,-4.581,-4.5805,-4.5819,-4.0251,-4.0177,-3.9983,-3.9861,-3.9816,-3.9747,-3.9728,-3.9775,-3.9679,-3.966,-3.9797,-3.9637,-4.0056,-4.0866,-4.1846,-4.2591,-4.3441,-4.4209,-4.4687,-4.4825,-4.4795,-4.5546,-4.5786,-4.5665,-4.57,-4.5666,-4.5553,-4.5297,-4.5773,-4.6445,-4.6819,-4.6885,-4.7627,-4.7551,-4.7466,-4.7772,-4.758,-4.7101,-4.6101,-4.5458,-4.5117,-4.5183,-4.4934,-4.4737,-4.4936,-4.4879,-4.4785,-4.5284,-4.5209,-4.4731,-4.4636,-4.4672,-4.4871,-4.491,-4.5201,-4.5712,-4.6175,-4.6634,-4.6379,-4.6757,-4.7255,-4.7487,-4.7163,-4.8593,-4.9711,-5.041,-5.0507,-5.0739,-5.0893,-5.0913,-5.0913,-5.0662,-5.0468,-5.0484,-5.048,-5.0635,-5.0906,-5.0906,-5.0906,-5.0906,-5.0906,-5.0887,-5.077,-5.0171,-4.9223,-4.8469,-4.7657,-4.6786,-4.6167,-4.5916,-4.58,-4.58,-4.58,-4.58,-4.58,-4.58,-4.58,-4.58,-4.58,-4.58,-4.58,-4.58,-4.58,-4.58,-4.58,-4.58,-4.58,-4.58,-4.58,-4.58,-4.58,-4.58,-4.58,-4.58,-4.58,-4.0002,-3.9899,-3.975,-3.9637,-3.9537,-3.9408,-3.9414,-3.9494,-3.9408,-3.9414,-3.9476,-3.9389,-3.9799,-4.0566,-4.1259,-4.201,-4.3063,-4.354,-4.4044,-4.4438,-4.4546,-4.5247,-4.55,-4.5537,-4.5554,-4.5597,-4.5398,-4.5001,-4.5331,-4.5873,-4.6321,-4.7342,-4.8007,-4.7485,-4.7248,-4.7507,-4.7636,-4.7127,-4.6459,-4.5726,-4.5434,-4.526,-4.4853,-4.4494,-4.4829,-4.4568,-4.4412,-4.5028,-4.4983,-4.4535,-4.4461,-4.4759,-4.5092,-4.5385,-4.588,-4.6387,-4.665,-4.7047,-4.7086,-4.6984,-4.696,-4.7076,-4.754,-4.8798,-4.9595,-5.0194,-5.0484,-5.0774,-5.0851,-5.089,-5.0906,-5.0906,-5.0887,-5.0887,-5.0887,-5.0887,-5.0906,-5.0906,-5.0906,-5.0906,-5.0906,-5.0906,-5.0616,-5.0055,-4.9378,-4.8508,-4.7657,-4.6786,-4.6206,-4.5877,-4.58,-4.58,-4.58,-4.58,-4.58,-4.58,-4.58,-4.58,-4.58,-4.58,-4.58,-4.58,-4.58,-4.58,-4.58,-4.58,-4.58,-4.58,-4.58,-4.58,-4.58,-4.58,-4.58,-4.58,-4.58,-3.9679,-3.9508,-3.9502,-3.9331,-3.911,-3.911,-3.9129,-3.9101,-3.911,-3.911,-3.911,-3.911,-3.9538,-4.0133,-4.0579,-4.1297,-4.2199,-4.2816,-4.3423,-4.3924,-4.4102,-4.4717,-4.5307,-4.532,-4.5251,-4.5363,-4.5251,-4.4822,-4.4797,-4.5475,-4.6669,-4.7914,-4.7965,-4.7671,-4.7503,-4.7602,-4.7684,-4.751,-4.7118,-4.6638,-4.5811,-4.5413,-4.5065,-4.4371,-4.4278,-4.4203,-4.4346,-4.4656,-4.5072,-4.4834,-4.4813,-4.5168,-4.5529,-4.5918,-4.6516,-4.6882,-4.6912,-4.7081,-4.7347,-4.7366,-4.7579,-4.8121,-4.9107,-4.9455,-4.9823,-5.0229,-5.0596,-5.0809,-5.0906,-5.0906,-5.0906,-5.0906,-5.0906,-5.0906,-5.0906,-5.0906,-5.0906,-5.0906,-5.0906,-5.0906,-5.0906,-5.0887,-5.0674,-5.0113,-4.9126,-4.8372,-4.7405,-4.6535,-4.6225,-4.5858,-4.58,-4.58,-4.58,-4.58,-4.58,-4.58,-4.58,-4.58,-4.58,-4.58,-4.58,-4.58,-4.58,-4.58,-4.58,-4.58,-4.58,-4.58,-4.58,-4.58,-4.58,-4.58,-4.58,-4.58,-4.58,-3.9556,-3.9458,-3.9272,-3.9137,-3.9101,-3.9101,-3.9101,-3.9101,-3.9101,-3.9101,-3.9101,-3.912,-3.9212,-3.951,-4.0085,-4.0717,-4.1107,-4.2092,-4.2797,-4.3318,-4.3633,-4.4265,-4.4965,-4.4755,-4.4811,-4.496,-4.4867,-4.4699,-4.5071,-4.5815,-4.6652,-4.7657,-4.7787,-4.7765,-4.8025,-4.8051,-4.7865,-4.7847,-4.801,-4.7452,-4.6559,-4.6155,-4.5825,-4.5194,-4.4896,-4.4513,-4.4619,-4.4897,-4.4974,-4.4794,-4.4825,-4.5095,-4.54,-4.5759,-4.5973,-4.6197,-4.6786,-4.696,-4.6999,-4.7308,-4.7618,-4.7889,-4.8585,-4.932,-4.99,-5.0345,-5.0635,-5.0809,-5.0906,-5.0906,-5.0906,-5.0906,-5.0906,-5.0906,-5.0906,-5.0906,-5.0906,-5.0906,-5.0906,-5.0906,-5.0906,-5.0732,-5.0519,-4.9823,-4.8933,-4.7889,-4.6748,-4.6013,-4.6013,-4.58,-4.58,-4.58,-4.58,-4.58,-4.58,-4.58,-4.58,-4.58,-4.58,-4.58,-4.58,-4.58,-4.58,-4.58,-4.58,-4.58,-4.58,-4.58,-4.58,-4.58,-4.58,-4.58,-4.58,-4.58,-4.58,-3.9324,-3.9317,-3.9165,-3.9101,-3.9101,-3.9101,-3.9101,-3.9101,-3.9101,-3.9101,-3.9101,-3.9101,-3.9101,-3.9101,-3.9621,-4.0141,-4.042,-4.1256,-4.2147,-4.2779,-4.328,-4.3893,-4.4135,-4.4265,-4.4339,-4.4469,-4.4339,-4.4469,-4.5199,-4.5695,-4.6345,-4.7441,-4.7701,-4.7887,-4.837,-4.8203,-4.8203,-4.8314,-4.8723,-4.8314,-4.7293,-4.6865,-4.6141,-4.5528,-4.496,-4.46,-4.461,-4.4822,-4.485,-4.4889,-4.5,-4.5222,-4.5607,-4.6092,-4.631,-4.6525,-4.6786,-4.6902,-4.6728,-4.6844,-4.7347,-4.7599,-4.7773,-4.843,-4.9668,-5.0113,-5.0461,-5.0635,-5.0867,-5.0906,-5.0906,-5.0906,-5.0906,-5.0906,-5.0906,-5.0906,-5.0906,-5.0906,-5.0906,-5.0906,-5.0693,-5.021,-4.9765,-4.8759,-4.7966,-4.7579,-4.6399,-4.5877,-4.5819,-4.58,-4.58,-4.58,-4.58,-4.58,-4.58,-4.58,-4.58,-4.58,-4.58,-4.58,-4.58,-4.58,-4.58,-4.58,-4.58,-4.58,-4.58,-4.58,-4.58,-4.58,-4.58,-4.58,-4.58,-4.58,-4.58,-3.9101,-3.9101,-3.9101,-3.9101,-3.9101,-3.9101,-3.9101,-3.9101,-3.9101,-3.9101,-3.9101,-3.9101,-3.9101,-3.9101,-3.912,-3.9658,-4.016,-4.0624,-4.1441,-4.2277,-4.276,-4.3503,-4.3931,-4.4042,-4.4116,-4.4116,-4.4061,-4.4413,-4.4939,-4.5417,-4.6122,-4.7274,-4.759,-4.7664,-4.7961,-4.824,-4.8463,-4.8441,-4.8609,-4.8813,-4.8163,-4.7348,-4.6327,-4.5449,-4.4693,-4.4289,-4.4335,-4.4495,-4.4695,-4.4992,-4.5246,-4.5454,-4.5673,-4.6136,-4.6433,-4.6631,-4.6593,-4.6689,-4.6689,-4.6477,-4.6767,-4.698,-4.7134,-4.7947,-4.9262,-4.9803,-5.0152,-5.0442,-5.0674,-5.0906,-5.0906,-5.0906,-5.0906,-5.0906,-5.0906,-5.0906,-5.0906,-5.0906,-5.0906,-5.0887,-5.0403,-4.9881,-4.9088,-4.8063,-4.7347,-4.696,-4.6535,-4.6109,-4.58,-4.58,-4.58,-4.58,-4.58,-4.58,-4.58,-4.58,-4.58,-4.58,-4.58,-4.58,-4.58,-4.58,-4.58,-4.58,-4.58,-4.58,-4.58,-4.58,-4.58,-4.58,-4.58,-4.58,-4.58,-4.58,-4.58,-3.9101,-3.9101,-3.9101,-3.9101,-3.9101,-3.9101,-3.9101,-3.9101,-3.9101,-3.9101,-3.9101,-3.9101,-3.9101,-3.9101,-3.9101,-3.9342,-3.9565,-4.0048,-4.0866,-4.1739,-4.2519,-4.3262,-4.3801,-4.4005,-4.4005,-4.4005,-4.4005,-4.4135,-4.4544,-4.5045,-4.5714,-4.6661,-4.6773,-4.7311,-4.8426,-4.85,-4.8293,-4.8345,-4.8509,-4.871,-4.7961,-4.722,-4.669,-4.5829,-4.4966,-4.4626,-4.453,-4.4643,-4.4947,-4.5304,-4.5558,-4.5692,-4.5834,-4.5984,-4.6167,-4.6264,-4.6245,-4.6225,-4.6167,-4.638,-4.667,-4.7076,-4.7463,-4.8256,-4.9107,-4.9359,-4.9707,-5.0035,-5.0345,-5.0828,-5.0906,-5.0906,-5.0906,-5.0906,-5.0906,-5.0906,-5.0906,-5.0906,-5.0906,-5.0654,-5.0248,-4.9823,-4.9378,-4.8295,-4.7192,-4.6767,-4.6283,-4.5896,-4.58,-4.58,-4.58,-4.58,-4.58,-4.58,-4.58,-4.58,-4.58,-4.58,-4.58,-4.58,-4.58,-4.58,-4.58,-4.58,-4.58,-4.58,-4.58,-4.58,-4.58,-4.58,-4.58,-4.58,-4.58,-4.58,-4.58]}]]